[[{"header":{"parameterUnit":"m.s-1","parameterCategory":1,"la1":31.0,"la2":29.5877,"lo1":-88.7671,"lo2":-86.6584,"dy":0.0162,"dx":0.0185,"nx":115,"ny":88,"refTime":"2023-10-09T18:00:00:Z","depth":0,"parameterNumber":2,"parameterNumberName":"U-component_of_WINDS"},"data":[0.0,0.0,0.0,0.0,0.0,0.0,0.0,0.0,0.0,0.0,0.0,0.0,0.0,0.0,0.0,0.0,0.0,0.0,0.0,0.0,0.0,0.0,0.0,0.0,0.0,0.0,0.0,0.0,0.0,0.0,0.0,0.0,0.0,0.0,0.0,0.0,0.0,0.0,0.0,0.0,0.0,0.0,0.0,0.0,0.0,0.0,0.0,0.0,0.0,0.0,0.0,0.0,0.0,0.0,0.0,0.0,0.0,0.0,0.0,0.0,0.0,0.0,0.0,0.0,0.0,0.0,0.0,0.0,0.0,0.0,0.0,0.0,0.0,0.0,0.0,0.0,0.0,0.0,0.0,0.0,0.0,0.0,0.0,0.0,0.0,0.0,0.0,0.0,0.0,0.0,0.0,0.0,0.0,0.0,0.0,0.0,0.0,0.0,0.0,0.0,0.0,0.0,0.0,0.0,0.0,0.0,0.0,0.0,0.0,0.0,0.0,0.0,0.0,0.0,0.0,0.0,0.0,0.0,0.0,0.0,0.0,0.0,0.0,0.0,0.0,0.0,0.0,0.0,0.0,0.0,0.0,0.0,0.0,0.0,0.0,0.0,0.0,0.0,0.0,0.0,0.0,0.0,0.0,0.0,0.0,0.0,0.0,0.0,0.0,0.0,0.0,0.0,0.0,0.0,0.0,0.0,0.0,0.0,0.0,0.0,0.0,0.0,0.0,0.0,0.0,0.0,0.0,0.0,0.0,0.0,0.0,0.0,0.0,0.0,0.0,0.0,0.0,0.0,0.0,0.0,0.0,0.0,0.0,0.0,0.0,0.0,0.0,0.0,0.0,0.0,0.0,0.0,0.0,0.0,0.0,0.0,0.0,0.0,0.0,0.0,0.0,0.0,0.0,0.0,0.0,0.0,0.0,0.0,0.0,0.0,0.0,0.0,0.0,0.0,0.0,0.0,0.0,0.0,0.0,0.0,0.0,0.0,0.0,0.0,0.0,0.0,0.0,0.0,0.0,0.0,0.0,0.0,0.0,0.0,0.0,0.0,0.0,0.0,0.0,0.0,0.0,0.0,0.0,0.0,0.0,0.0,0.0,0.0,0.0,0.0,0.0,0.0,0.0,0.0,0.0,0.0,0.0,0.0,0.0,0.0,0.0,0.0,0.0,0.0,0.0,0.0,0.0,0.0,0.0,0.0,0.0,0.0,0.0,0.0,0.0,0.0,0.0,0.0,0.0,0.0,0.0,0.0,0.0,0.0,0.0,0.0,0.0,0.0,0.0,0.0,0.0,0.0,0.0,0.0,0.0,0.0,0.0,0.0,0.0,0.0,0.0,0.0,0.0,0.0,0.0,0.0,0.0,0.0,0.0,0.0,0.0,0.0,0.0,0.0,0.0,0.0,0.0,0.0,0.0,0.0,0.0,0.0,0.0,0.0,0.0,0.0,0.0,0.0,0.0,0.0,0.0,0.0,0.0,0.0,0.0,0.0,0.0,0.0,0.0,0.0,0.0,0.0,0.0,0.0,0.0,0.0,0.0,0.0,0.0,0.0,0.0,0.0,0.0,0.0,0.0,0.0,0.0,0.0,0.0,0.0,0.0,0.0,0.0,0.0,0.0,0.0,0.0,0.0,0.0,0.0,0.0,0.0,0.0,0.0,0.0,0.0,0.0,0.0,0.0,0.0,0.0,0.0,0.0,0.0,0.0,0.0,0.0,0.0,0.0,0.0,0.0,0.0,0.0,0.0,0.0,0.0,0.0,0.0,0.0,0.0,0.0,0.0,0.0,0.0,0.0,0.0,0.0,0.0,0.0,0.0,0.0,0.0,0.0,0.0,0.0,0.0,0.0,0.0,0.0,0.0,0.0,0.0,0.0,0.0,0.0,0.0,0.0,0.0,0.0,0.0,0.0,0.0,0.0,0.0,0.0,0.0,0.0,0.0,0.0,0.0,0.0,0.0,0.0,0.0,0.0,0.0,0.0,0.0,0.0,0.0,0.0,0.0,0.0,0.0,0.0,0.0,0.0,0.0,0.0,0.0,0.0,0.0,0.0,0.0,0.0,0.0,0.0,0.0,0.0,0.0,0.0,0.0,0.0,0.0,0.0,0.0,0.0,0.0,0.0,0.0,0.0,0.0,0.0,0.0,0.0,0.0,0.0,0.0,0.0,0.0,0.0,0.0,0.0,0.0,0.0,0.0,0.0,0.0,0.0,0.0,0.0,0.0,0.0,0.0,0.0,0.0,0.0,0.0,0.0,0.0,0.0,0.0,0.0,0.0,0.0,0.0,0.0,0.0,0.0,0.0,0.0,0.0,0.0,0.0,0.0,0.0,0.0,0.0,0.0,0.0,0.0,0.0,0.0,0.0,0.0,0.0,0.0,0.0,0.0,0.0,0.0,0.0,0.0,0.0,0.0,0.0,0.0,0.0,0.0,0.0,0.0,0.0,0.0,0.0,0.0,0.0,0.0,0.0,0.0,0.0,0.0,0.0,0.0,0.0,0.0,0.0,0.0,0.0,0.0,0.0,0.0,0.0,0.0,0.0,0.0,0.0,0.0,0.0,0.0,0.0,0.0,0.0,0.0,0.0,0.0,0.0,0.0,0.0,0.0,0.0,0.0,0.0,0.0,0.0,0.0,0.0,0.0,0.0,0.0,0.0,0.0,0.0,0.0,0.0,0.0,0.0,0.0,0.0,0.0,0.0,0.0,0.0,0.0,0.0,0.0,0.0,0.0,0.0,0.0,0.0,0.0,0.0,0.0,0.0,0.0,0.0,0.0,0.0,0.0,0.0,0.0,0.0,0.0,0.0,0.0,0.0,0.0,0.0,0.0,0.0,0.0,0.0,0.0,0.0,0.0,0.0,0.0,0.0,0.0,0.0,0.0,0.0,0.0,0.0,0.0,0.0,0.0,0.0,0.0,0.0,0.0,0.0,0.0,0.0,0.0,0.0,0.0,0.0,0.0,0.0,0.0,0.0,0.0,0.0,0.0,0.0,0.0,0.0,0.0,0.0,0.0,0.0,0.0,0.0,0.0,0.0,0.0,0.0,0.0,0.0,0.0,0.0,0.0,0.0,0.0,0.0,0.0,0.0,0.0,0.0,0.0,0.0,0.0,0.0,0.0,0.0,0.0,0.0,0.0,0.0,0.0,0.0,0.0,0.0,0.0,0.0,0.0,0.0,0.0,0.0,0.0,0.0,0.0,0.0,0.0,0.0,0.0,0.0,0.0,0.0,0.0,0.0,0.0,0.0,0.0,0.0,0.0,0.0,0.0,0.0,0.0,0.0,0.0,0.0,0.0,0.0,0.0,0.0,0.0,0.0,0.0,0.0,0.0,0.0,0.0,0.0,0.0,0.0,0.0,0.0,0.0,0.0,0.0,0.0,0.0,0.0,0.0,0.0,0.0,0.0,0.0,0.0,0.0,0.0,0.0,0.0,0.0,0.0,0.0,0.0,0.0,0.0,0.0,0.0,0.0,0.0,0.0,0.0,0.0,0.0,0.0,0.0,0.0,0.0,0.0,0.0,0.0,0.0,0.0,0.0,0.0,0.0,0.0,0.0,0.0,0.0,0.0,0.0,0.0,0.0,0.0,0.0,0.0,0.0,0.0,0.0,0.0,0.0,0.0,0.0,0.0,0.0,0.0,0.0,0.0,0.0,0.0,0.0,0.0,0.0,0.0,0.0,0.0,0.0,0.0,0.0,0.0,0.0,0.0,0.0,0.0,0.0,0.0,0.0,0.0,0.0,0.0,0.0,0.0,0.0,0.0,0.0,0.0,0.0,0.0,0.0,0.0,0.0,0.0,0.0,0.0,0.0,0.0,0.0,0.0,0.0,0.0,0.0,0.0,0.0,0.0,0.0,0.0,0.0,0.0,0.0,0.0,0.0,0.0,0.0,0.0,0.0,0.0,0.0,0.0,0.0,0.0,0.0,0.0,0.0,0.0,0.0,0.0,0.0,0.0,0.0,0.0,0.0,0.0,0.0,0.0,0.0,0.0,0.0,0.0,0.0,0.0,0.0,0.0,0.0,0.0,0.0,0.0,0.0,0.0,0.0,0.0,0.0,0.0,0.0,0.0,0.0,0.0,0.0,0.0,0.0,0.0,0.0,0.0,0.0,0.0,0.0,0.0,0.0,0.0,0.0,0.0,0.0,0.0,0.0,0.0,0.0,0.0,0.0,0.0,0.0,0.0,0.0,0.0,0.0,0.0,0.0,0.0,0.0,0.0,0.0,0.0,0.0,0.0,0.0,0.0,0.0,0.0,0.0,0.0,0.0,-1.4616,0.0,0.0,0.0,0.0,0.0,0.0,0.0,0.0,0.0,0.0,0.0,0.0,0.0,0.0,0.0,0.0,0.0,0.0,0.0,0.0,0.0,0.0,0.0,0.0,0.0,0.0,0.0,0.0,0.0,0.0,0.0,0.0,0.0,0.0,0.0,0.0,0.0,0.0,0.0,0.0,0.0,0.0,0.0,0.0,0.0,0.0,0.0,0.0,0.0,0.0,0.0,0.0,0.0,0.0,0.0,0.0,0.0,0.0,0.0,0.0,0.0,0.0,0.0,0.0,0.0,0.0,0.0,0.0,0.0,0.0,0.0,0.0,0.0,0.0,0.0,0.0,0.0,0.0,0.0,0.0,0.0,0.0,0.0,0.0,0.0,0.0,0.0,0.0,0.0,0.0,0.0,0.0,0.0,0.0,0.0,0.0,0.0,0.0,0.0,0.0,0.0,0.0,0.0,0.0,0.0,0.0,0.0,0.0,0.0,0.0,-1.1457,-1.2405,-1.3291,-1.3984,-1.4478,0.0,0.0,0.0,0.0,0.0,0.0,0.0,0.0,0.0,0.0,0.0,0.0,0.0,0.0,0.0,0.0,0.0,0.0,0.0,0.0,0.0,0.0,0.0,0.0,0.0,0.0,0.0,0.0,0.0,0.0,0.0,0.0,0.0,0.0,0.0,0.0,0.0,0.0,0.0,0.0,0.0,0.0,0.0,0.0,0.0,0.0,0.0,0.0,0.0,0.0,0.0,0.0,0.0,0.0,0.0,0.0,0.0,0.0,0.0,0.0,0.0,0.0,0.0,0.0,0.0,0.0,0.0,0.0,0.0,0.0,0.0,0.0,0.0,0.0,0.0,0.0,0.0,0.0,0.0,0.0,0.0,0.0,0.0,0.0,0.0,0.0,0.0,0.0,0.0,0.0,0.0,0.0,0.0,0.0,0.0,0.0,0.0,0.0,0.0,0.0,0.0,0.0,0.0,0.0,0.0,0.0,0.0,0.0,0.0,0.0,0.0,0.0,-1.3141,-1.363,-1.432,0.0,0.0,0.0,0.0,0.0,0.0,0.0,0.0,0.0,0.0,0.0,0.0,0.0,0.0,0.0,0.0,0.0,0.0,0.0,0.0,0.0,0.0,0.0,0.0,0.0,0.0,0.0,0.0,0.0,0.0,0.0,0.0,0.0,0.0,0.0,0.0,0.0,0.0,0.0,0.0,0.0,0.0,0.0,0.0,0.0,0.0,0.0,0.0,0.0,0.0,0.0,0.0,0.0,0.0,0.0,0.0,0.0,0.0,0.0,0.0,0.0,0.0,0.0,0.0,0.0,0.0,0.0,0.0,0.0,0.0,0.0,0.0,0.0,0.0,0.0,0.0,0.0,0.0,0.0,0.0,0.0,0.0,0.0,0.0,0.0,0.0,0.0,0.0,0.0,0.0,0.0,0.0,0.0,0.0,0.0,0.0,0.0,0.0,0.0,0.0,0.0,0.0,0.0,0.0,0.0,0.0,0.0,0.0,0.0,0.0,-1.2284,-1.2627,-1.3478,0.0,-1.4198,0.0,0.0,0.0,0.0,0.0,0.0,0.0,0.0,0.0,0.0,0.0,0.0,0.0,0.0,0.0,0.0,0.0,0.0,0.0,0.0,0.0,0.0,0.0,0.0,0.0,0.0,0.0,0.0,0.0,0.0,0.0,0.0,0.0,0.0,0.0,0.0,0.0,0.0,0.0,0.0,0.0,0.0,0.0,0.0,0.0,0.0,0.0,0.0,0.0,0.0,0.0,0.0,0.0,0.0,0.0,0.0,0.0,0.0,0.0,0.0,0.0,0.0,0.0,0.0,0.0,0.0,0.0,0.0,0.0,0.0,0.0,0.0,0.0,0.0,0.0,0.0,0.0,0.0,0.0,0.0,0.0,0.0,0.0,0.0,0.0,0.0,0.0,0.0,0.0,0.0,0.0,0.0,0.0,0.0,0.0,0.0,0.0,0.0,0.0,0.0,0.0,0.0,0.0,0.0,0.0,0.0,0.0,0.0,0.0,0.0,-1.2384,-1.2998,-1.3541,-1.3862,0.0,0.0,0.0,0.0,0.0,0.0,0.0,0.0,0.0,0.0,0.0,0.0,0.0,0.0,0.0,0.0,0.0,0.0,0.0,0.0,0.0,0.0,0.0,0.0,0.0,0.0,0.0,0.0,0.0,0.0,0.0,0.0,0.0,0.0,0.0,0.0,0.0,0.0,0.0,0.0,0.0,0.0,0.0,0.0,0.0,0.0,0.0,0.0,0.0,0.0,0.0,0.0,0.0,0.0,0.0,0.0,0.0,0.0,0.0,0.0,0.0,0.0,0.0,0.0,0.0,0.0,0.0,0.0,0.0,0.0,0.0,0.0,0.0,0.0,0.0,0.0,0.0,0.0,0.0,0.0,0.0,0.0,0.0,0.0,0.0,0.0,0.0,0.0,0.0,0.0,0.0,0.0,0.0,0.0,0.0,0.0,0.0,0.0,0.0,0.0,0.0,0.0,0.0,0.0,0.0,0.0,0.0,0.0,0.0,0.0,-1.1886,-1.2386,-1.3159,-1.341,-1.3572,-1.3663,0.0,0.0,0.0,0.0,0.0,0.0,0.0,0.0,0.0,0.0,0.0,0.0,0.0,0.0,0.0,0.0,0.0,0.0,0.0,0.0,0.0,0.0,0.0,0.0,0.0,0.0,0.0,0.0,0.0,0.0,0.0,0.0,0.0,0.0,0.0,0.0,0.0,0.0,0.0,0.0,0.0,0.0,0.0,0.0,0.0,0.0,0.0,0.0,0.0,0.0,0.0,0.0,0.0,0.0,0.0,0.0,0.0,0.0,0.0,0.0,0.0,0.0,0.0,0.0,0.0,0.0,0.0,0.0,0.0,0.0,0.0,0.0,0.0,0.0,0.0,0.0,0.0,0.0,0.0,0.0,0.0,0.0,0.0,0.0,0.0,0.0,0.0,0.0,0.0,0.0,0.0,0.0,0.0,0.0,0.0,0.0,0.0,0.0,0.0,0.0,0.0,0.0,0.0,0.0,0.0,0.0,0.0,0.0,-1.1265,-1.1979,-1.2556,-1.2908,-1.3053,-1.3176,0.0,0.0,0.0,0.0,0.0,0.0,0.0,0.0,0.0,0.0,0.0,0.0,0.0,0.0,0.0,0.0,0.0,0.0,0.0,0.0,0.0,0.0,0.0,0.0,0.0,0.0,0.0,0.0,0.0,0.0,0.0,0.0,0.0,0.0,0.0,0.0,0.0,0.0,0.0,0.0,0.0,0.0,0.0,0.0,0.0,0.0,0.0,0.0,0.0,0.0,0.0,0.0,0.0,0.0,0.0,0.0,0.0,0.0,0.0,0.0,0.0,0.0,0.0,0.0,0.0,0.0,0.0,0.0,0.0,0.0,0.0,0.0,0.0,0.0,0.0,0.0,0.0,0.0,0.0,0.0,0.0,0.0,0.0,0.0,0.0,0.0,0.0,0.0,0.0,0.0,0.0,0.0,0.0,0.0,0.0,0.0,0.0,0.0,0.0,0.0,0.0,0.0,0.0,0.0,0.0,0.0,0.0,0.0,0.0,-1.1419,-1.1902,-1.2276,-1.2514,-1.2652,-1.2799,0.0,0.0,0.0,0.0,0.0,0.0,0.0,0.0,0.0,0.0,0.0,0.0,0.0,0.0,0.0,0.0,0.0,0.0,0.0,0.0,0.0,0.0,0.0,0.0,0.0,0.0,0.0,0.0,0.0,0.0,0.0,0.0,0.0,0.0,0.0,0.0,0.0,0.0,0.0,0.0,0.0,0.0,0.0,0.0,0.0,0.0,0.0,0.0,0.0,0.0,0.0,0.0,0.0,0.0,0.0,0.0,0.0,0.0,0.0,0.0,0.0,0.0,0.0,0.0,0.0,0.0,0.0,0.0,0.0,0.0,0.0,0.0,0.0,0.0,0.0,0.0,0.0,0.0,0.0,0.0,0.0,0.0,0.0,0.0,0.0,0.0,0.0,0.0,0.0,0.0,0.0,0.0,0.0,0.0,0.0,0.0,0.0,0.0,0.0,0.0,0.0,0.0,0.0,0.0,0.0,0.0,0.0,0.0,0.0,-1.1588,0.0,-1.2366,-1.2575,-1.2765,-1.2801,0.0,0.0,0.0,0.0,0.0,0.0,0.0,0.0,0.0,0.0,0.0,0.0,0.0,0.0,0.0,0.0,0.0,0.0,0.0,0.0,0.0,0.0,0.0,0.0,0.0,0.0,0.0,0.0,0.0,0.0,0.0,0.0,0.0,0.0,0.0,0.0,0.0,0.0,0.0,0.0,0.0,0.0,0.0,0.0,0.0,0.0,0.0,0.0,0.0,0.0,0.0,0.0,0.0,0.0,0.0,0.0,0.0,0.0,0.0,0.0,0.0,0.0,0.0,0.0,0.0,0.0,0.0,0.0,0.0,0.0,0.0,0.0,0.0,0.0,0.0,0.0,0.0,0.0,0.0,0.0,0.0,0.0,0.0,0.0,0.0,0.0,0.0,0.0,0.0,0.0,0.0,0.0,0.0,0.0,0.0,0.0,0.0,0.0,0.0,0.0,0.0,0.0,0.0,0.0,0.0,0.0,0.0,0.0,-1.1116,-1.1769,-1.2468,-1.2908,-1.315,-1.333,-1.3282,0.0,0.0,0.0,0.0,0.0,0.0,0.0,0.0,0.0,0.0,0.0,0.0,0.0,0.0,0.0,0.0,0.0,0.0,0.0,0.0,0.0,0.0,0.0,0.0,0.0,0.0,0.0,0.0,0.0,0.0,0.0,0.0,0.0,0.0,0.0,0.0,0.0,0.0,0.0,0.0,0.0,0.0,0.0,0.0,0.0,0.0,0.0,0.0,0.0,0.0,0.0,0.0,0.0,0.0,0.0,0.0,0.0,0.0,0.0,0.0,0.0,0.0,0.0,0.0,0.0,0.0,0.0,0.0,0.0,0.0,0.0,0.0,0.0,0.0,0.0,0.0,0.0,0.0,0.0,0.0,0.0,0.0,0.0,0.0,0.0,0.0,0.0,0.0,0.0,0.0,0.0,0.0,0.0,0.0,0.0,0.0,0.0,0.0,0.0,0.0,0.0,0.0,0.0,0.0,0.0,0.0,0.0,0.0,0.0,-1.1663,-1.2076,-1.2327,-1.2427,-1.2706,-1.2866,0.0,0.0,0.0,0.0,0.0,0.0,0.0,0.0,0.0,0.0,0.0,0.0,0.0,0.0,0.0,0.0,0.0,0.0,0.0,0.0,0.0,0.0,0.0,0.0,0.0,0.0,0.0,0.0,0.0,0.0,0.0,0.0,0.0,0.0,0.0,0.0,0.0,0.0,0.0,0.0,0.0,0.0,0.0,0.0,0.0,0.0,0.0,0.0,0.0,0.0,0.0,0.0,0.0,0.0,0.0,0.0,0.0,0.0,0.0,0.0,0.0,0.0,0.0,0.0,0.0,0.0,0.0,0.0,0.0,0.0,0.0,0.0,0.0,0.0,0.0,0.0,0.0,0.0,0.0,0.0,0.0,0.0,0.0,0.0,0.0,0.0,0.0,0.0,0.0,0.0,0.0,0.0,0.0,0.0,0.0,0.0,0.0,0.0,0.0,0.0,0.0,0.0,0.0,0.0,0.0,0.0,0.0,0.0,0.0,-1.1874,-1.2304,-1.2665,-1.2933,-1.3056,-1.3155,-1.3193,0.0,0.0,0.0,0.0,0.0,0.0,0.0,0.0,0.0,0.0,0.0,0.0,0.0,0.0,0.0,0.0,0.0,0.0,0.0,0.0,0.0,0.0,0.0,0.0,0.0,0.0,0.0,0.0,0.0,0.0,0.0,0.0,0.0,0.0,0.0,0.0,0.0,0.0,0.0,0.0,0.0,0.0,0.0,0.0,0.0,0.0,0.0,0.0,0.0,0.0,0.0,0.0,0.0,0.0,0.0,0.0,0.0,0.0,0.0,0.0,0.0,0.0,0.0,0.0,0.0,0.0,0.0,0.0,0.0,0.0,0.0,0.0,0.0,0.0,0.0,0.0,0.0,0.0,0.0,0.0,0.0,0.0,0.0,0.0,0.0,0.0,0.0,0.0,0.0,0.0,0.0,0.0,0.0,0.0,0.0,0.0,0.0,0.0,0.0,0.0,0.0,0.0,0.0,0.0,0.0,0.0,0.0,0.0,-1.2305,-1.3008,-1.3593,-1.4168,-1.3988,-1.3879,0.0,0.0,0.0,0.0,0.0,0.0,0.0,0.0,0.0,0.0,0.0,0.0,0.0,0.0,0.0,0.0,0.0,0.0,0.0,0.0,0.0,0.0,0.0,0.0,0.0,0.0,0.0,0.0,0.0,0.0,0.0,0.0,0.0,0.0,0.0,0.0,0.0,0.0,0.0,0.0,0.0,0.0,0.0,0.0,0.0,0.0,0.0,0.0,0.0,0.0,0.0,0.0,0.0,0.0,0.0,0.0,0.0,0.0,0.0,0.0,0.0,0.0,0.0,0.0,0.0,0.0,0.0,0.0,0.0,0.0,0.0,0.0,0.0,0.0,0.0,0.0,0.0,0.0,0.0,0.0,0.0,0.0,0.0,0.0,0.0,0.0,0.0,0.0,0.0,0.0,0.0,0.0,0.0,0.0,0.0,0.0,0.0,0.0,0.0,0.0,0.0,0.0,0.0,0.0,0.0,0.0,0.0,0.0,0.0,-1.2362,-1.2818,-1.3139,-1.3324,-1.3299,-1.3347,0.0,0.0,0.0,0.0,0.0,0.0,0.0,0.0,0.0,0.0,0.0,0.0,0.0,0.0,0.0,0.0,0.0,0.0,0.0,0.0,0.0,0.0,0.0,0.0,0.0,0.0,0.0,0.0,0.0,0.0,0.0,0.0,0.0,0.0,0.0,0.0,0.0,0.0,0.0,0.0,0.0,0.0,0.0,0.0,0.0,0.0,0.0,0.0,0.0,0.0,0.0,0.0,0.0,0.0,0.0,0.0,0.0,0.0,0.0,0.0,0.0,0.0,0.0,0.0,0.0,0.0,0.0,0.0,0.0,0.0,0.0,0.0,0.0,0.0,0.0,0.0,0.0,0.0,0.0,0.0,0.0,0.0,0.0,0.0,0.0,0.0,0.0,0.0,0.0,0.0,0.0,0.0,0.0,0.0,0.0,0.0,0.0,0.0,0.0,0.0,0.0,0.0,0.0,0.0,0.0,0.0,0.0,0.0,-1.2194,-1.2456,-1.2818,-1.3011,-1.3013,-1.3189,-1.3311,0.0,0.0,0.0,0.0,0.0,0.0,0.0,0.0,0.0,0.0,0.0,0.0,0.0,0.0,0.0,0.0,0.0,0.0,0.0,0.0,0.0,0.0,0.0,0.0,0.0,0.0,0.0,0.0,0.0,0.0,0.0,0.0,0.0,0.0,0.0,0.0,0.0,0.0,0.0,0.0,0.0,0.0,0.0,0.0,0.0,0.0,0.0,0.0,0.0,0.0,0.0,0.0,0.0,0.0,0.0,0.0,0.0,0.0,0.0,0.0,0.0,0.0,0.0,0.0,0.0,0.0,0.0,0.0,0.0,0.0,0.0,0.0,0.0,0.0,0.0,0.0,0.0,0.0,0.0,0.0,0.0,0.0,0.0,0.0,0.0,0.0,0.0,0.0,0.0,0.0,0.0,0.0,0.0,0.0,0.0,0.0,0.0,0.0,0.0,0.0,0.0,0.0,0.0,0.0,0.0,0.0,0.0,0.0,-1.2135,-1.2447,-1.2895,-1.3075,-1.3075,-1.338,-1.3499,0.0,0.0,0.0,0.0,0.0,0.0,0.0,0.0,0.0,0.0,0.0,0.0,0.0,0.0,0.0,0.0,0.0,0.0,0.0,0.0,0.0,0.0,0.0,0.0,0.0,0.0,0.0,0.0,0.0,0.0,0.0,0.0,0.0,0.0,0.0,0.0,0.0,0.0,0.0,0.0,0.0,0.0,0.0,0.0,0.0,0.0,0.0,0.0,0.0,0.0,0.0,0.0,0.0,0.0,0.0,0.0,0.0,0.0,0.0,0.0,0.0,0.0,0.0,0.0,0.0,0.0,0.0,0.0,0.0,0.0,0.0,0.0,0.0,0.0,0.0,0.0,0.0,0.0,0.0,0.0,0.0,0.0,0.0,0.0,0.0,0.0,0.0,0.0,0.0,0.0,0.0,0.0,0.0,0.0,0.0,0.0,0.0,0.0,0.0,0.0,0.0,0.0,0.0,0.0,0.0,0.0,0.0,0.0,-1.2539,-1.2263,-1.2714,-1.2929,-1.2929,-1.3011,-1.3176,0.0,0.0,0.0,0.0,0.0,0.0,0.0,0.0,0.0,0.0,0.0,0.0,0.0,0.0,0.0,0.0,0.0,0.0,0.0,0.0,0.0,0.0,0.0,0.0,0.0,0.0,0.0,0.0,0.0,0.0,0.0,0.0,0.0,0.0,0.0,0.0,0.0,0.0,0.0,0.0,0.0,0.0,0.0,0.0,0.0,0.0,0.0,0.0,-0.4022,0.0,0.0,0.0,0.0,0.0,0.0,0.0,0.0,0.0,0.0,0.0,0.0,0.0,0.0,0.0,0.0,0.0,0.0,0.0,0.0,0.0,0.0,0.0,0.0,0.0,0.0,0.0,0.0,0.0,0.0,0.0,0.0,0.0,0.0,0.0,0.0,0.0,0.0,0.0,0.0,0.0,0.0,0.0,0.0,0.0,0.0,0.0,0.0,0.0,0.0,0.0,0.0,0.0,0.0,0.0,0.0,0.0,0.0,0.0,-1.2613,-1.2368,-1.2609,-1.2822,-1.2813,-1.2942,-1.3083,0.0,0.0,0.0,0.0,0.0,0.0,0.0,0.0,0.0,0.0,0.0,0.0,0.0,0.0,0.0,0.0,0.0,0.0,0.0,0.0,0.0,0.0,0.0,0.0,0.0,0.0,0.0,0.0,0.0,0.0,0.0,0.0,0.0,0.0,0.0,0.0,0.0,0.0,0.0,0.0,0.0,0.0,0.0,0.0,0.0,0.0,0.0,0.0,0.0,0.0,0.0,0.0,0.0,0.0,0.0,0.0,0.0,0.0,0.0,0.0,0.0,0.0,0.0,0.0,0.0,0.0,0.0,0.0,0.0,0.0,0.0,0.0,0.0,0.0,0.0,0.0,0.0,0.0,0.0,0.0,0.0,0.0,0.0,0.0,0.0,0.0,0.0,0.0,0.0,0.0,0.0,0.0,0.0,0.0,0.0,0.0,0.0,0.0,0.0,0.0,0.0,0.0,0.0,0.0,0.0,0.0,0.0,-1.2047,-1.2387,-1.2393,-1.2578,-1.2637,-1.2627,-1.2929,-1.3047,-1.2993,0.0,0.0,0.0,0.0,0.0,0.0,0.0,0.0,0.0,0.0,0.0,0.0,0.0,0.0,0.0,0.0,0.0,0.0,0.0,0.0,0.0,0.0,0.0,0.0,0.0,0.0,0.0,0.0,0.0,0.0,0.0,0.0,0.0,0.0,0.0,0.0,0.0,0.0,-0.6574,-0.6519,0.0,0.0,0.0,0.0,0.0,0.0,0.0,0.0,-0.3046,0.0,0.0,0.0,0.0,0.0,0.0,0.0,0.0,0.0,0.0,0.0,0.0,0.0,0.0,0.0,0.0,0.0,0.0,0.0,0.0,0.0,0.0,0.0,0.0,0.0,0.0,0.0,0.0,0.0,0.0,0.0,0.0,0.0,0.0,0.0,0.0,0.0,0.0,0.0,0.0,0.0,0.0,0.0,0.0,0.0,0.0,0.0,0.0,0.0,0.0,0.0,0.0,0.0,0.0,0.0,0.0,-1.1051,-1.1557,-1.1843,-1.1859,-1.2283,-1.2471,-1.2382,-1.2832,-1.2914,-1.2528,0.0,0.0,0.0,0.0,0.0,0.0,0.0,0.0,0.0,0.0,0.0,0.0,0.0,0.0,0.0,0.0,0.0,0.0,0.0,0.0,0.0,0.0,0.0,0.0,0.0,0.0,0.0,0.0,0.0,0.0,0.0,0.0,0.0,0.0,0.0,0.0,0.0,0.0,0.0,-0.5927,-0.5882,0.0,0.0,0.0,0.0,0.0,0.0,0.0,0.0,-0.2908,0.0,0.0,0.0,0.0,0.0,0.0,0.0,0.0,0.0,0.0,0.0,0.0,0.0,0.0,0.0,0.0,0.0,0.0,0.0,0.0,0.0,0.0,0.0,0.0,0.0,0.0,0.0,0.0,0.0,0.0,0.0,0.0,0.0,0.0,0.0,0.0,0.0,0.0,0.0,0.0,0.0,0.0,0.0,0.0,0.0,0.0,0.0,0.0,0.0,0.0,0.0,0.0,0.0,0.0,0.0,-1.0431,-1.0962,-1.1279,-1.1359,-1.2015,-1.2382,-1.2431,-1.2774,-1.2819,0.0,0.0,0.0,0.0,0.0,0.0,0.0,0.0,0.0,0.0,0.0,0.0,0.0,0.0,0.0,0.0,0.0,0.0,0.0,0.0,0.0,0.0,0.0,0.0,0.0,0.0,0.0,0.0,0.0,0.0,0.0,0.0,0.0,0.0,0.0,0.0,0.0,0.0,0.0,0.0,-0.5609,-0.554,-0.5289,0.0,0.0,0.0,0.0,0.0,0.0,-0.33,-0.2952,0.0,0.0,0.0,0.0,0.0,0.0,0.0,0.0,0.0,0.0,0.0,0.0,0.0,0.0,0.0,0.0,0.0,0.0,0.0,0.0,0.0,0.0,0.0,0.0,0.0,0.0,0.0,0.0,0.0,0.0,0.0,0.0,0.0,0.0,0.0,0.0,0.0,0.0,0.0,0.0,0.0,0.0,0.0,0.0,0.0,0.0,0.0,0.0,0.0,0.0,0.0,0.0,0.0,0.0,0.0,-0.9692,-1.0154,-1.0496,-1.078,-1.1568,-1.208,-1.2167,-1.2474,-1.2451,0.0,0.0,0.0,0.0,0.0,0.0,0.0,0.0,0.0,0.0,0.0,0.0,0.0,0.0,0.0,0.0,0.0,0.0,0.0,0.0,0.0,0.0,0.0,0.0,0.0,0.0,0.0,0.0,0.0,0.0,0.0,0.0,0.0,0.0,0.0,0.0,0.0,0.0,0.0,0.0,0.0,-0.5264,-0.5068,-0.5198,0.0,0.0,0.0,0.0,-0.3931,-0.3403,0.0,0.0,0.0,0.0,0.0,0.0,0.0,0.0,0.0,0.0,0.0,0.0,0.0,0.0,0.0,0.0,0.0,0.0,0.0,0.0,0.0,0.0,0.0,0.0,0.0,0.0,0.0,0.0,0.0,0.0,0.0,0.0,0.0,0.0,0.0,0.0,0.0,0.0,0.0,0.0,0.0,0.0,0.0,0.0,0.0,0.0,0.0,0.0,0.0,0.0,0.0,0.0,0.0,0.0,0.0,0.0,-0.9185,-0.885,-0.9085,-0.9914,-1.0668,-1.1084,-1.1155,-1.1433,-1.1566,0.0,0.0,0.0,0.0,0.0,0.0,0.0,0.0,0.0,0.0,0.0,0.0,0.0,0.0,0.0,0.0,0.0,0.0,0.0,0.0,0.0,0.0,0.0,0.0,0.0,0.0,0.0,0.0,0.0,0.0,0.0,0.0,0.0,0.0,0.0,0.0,0.0,0.0,0.0,0.0,0.0,-0.5023,-0.4953,-0.5131,-0.5172,0.0,0.0,-0.4545,-0.4205,-0.3805,0.0,0.0,0.0,0.0,0.0,0.0,0.0,0.0,0.0,0.0,0.0,0.0,0.0,0.0,0.0,0.0,0.0,0.0,0.0,0.0,0.0,0.0,0.0,0.0,0.0,0.0,0.0,0.0,0.0,0.0,0.0,0.0,0.0,0.0,0.0,0.0,0.0,0.0,0.0,0.0,0.0,0.0,0.0,0.0,0.0,0.0,0.0,0.0,0.0,0.0,0.0,0.0,0.0,0.0,0.0,-0.9103,-0.8722,-0.8629,-0.8925,-0.9689,-1.0516,-1.1025,-1.1221,-1.1334,-1.1503,0.0,0.0,0.0,0.0,0.0,0.0,0.0,0.0,0.0,0.0,0.0,0.0,0.0,0.0,0.0,0.0,0.0,0.0,0.0,0.0,0.0,0.0,0.0,0.0,0.0,0.0,0.0,0.0,0.0,0.0,0.0,0.0,0.0,0.0,0.0,0.0,0.0,0.0,0.0,0.0,0.0,0.0,-0.5162,-0.5317,0.0,0.0,0.0,-0.4611,-0.4337,0.0,0.0,0.0,0.0,0.0,0.0,0.0,0.0,0.0,0.0,0.0,0.0,0.0,0.0,0.0,0.0,0.0,0.0,0.0,0.0,0.0,0.0,0.0,0.0,0.0,0.0,0.0,0.0,0.0,0.0,0.0,0.0,0.0,0.0,0.0,0.0,0.0,0.0,0.0,0.0,0.0,0.0,0.0,0.0,0.0,0.0,0.0,0.0,0.0,0.0,0.0,0.0,0.0,0.0,0.0,0.0,0.0,-0.8463,-0.8672,-0.9013,-0.9511,-1.0252,-1.0813,-1.1056,-1.1046,0.0,0.0,0.0,0.0,0.0,0.0,0.0,0.0,0.0,0.0,0.0,0.0,0.0,0.0,0.0,0.0,0.0,0.0,0.0,0.0,0.0,0.0,0.0,0.0,0.0,0.0,0.0,-0.6423,0.0,0.0,0.0,0.0,0.0,0.0,0.0,0.0,0.0,0.0,0.0,0.0,0.0,0.0,-0.5018,-0.5317,-0.5462,-0.5491,0.0,0.0,-0.4698,-0.4494,-0.3997,-0.3703,0.0,0.0,0.0,0.0,0.0,0.0,0.0,0.0,0.0,0.0,0.0,0.0,0.0,0.0,0.0,0.0,0.0,0.0,0.0,0.0,0.0,0.0,0.0,0.0,0.0,0.0,0.0,0.0,0.0,0.0,0.0,0.0,0.0,0.0,0.0,0.0,0.0,0.0,0.0,0.0,0.0,0.0,0.0,0.0,0.0,0.0,0.0,0.0,0.0,0.0,0.0,0.0,0.0,0.0,0.0,-0.8521,-0.8806,-0.9076,-0.922,-0.964,-0.9946,-1.0065,-1.0115,-1.0371,0.0,0.0,0.0,0.0,0.0,0.0,0.0,0.0,0.0,0.0,0.0,0.0,0.0,0.0,0.0,0.0,0.0,0.0,0.0,0.0,0.0,0.0,0.0,0.0,0.0,0.0,0.0,0.0,0.0,0.0,0.0,0.0,0.0,0.0,0.0,0.0,0.0,0.0,0.0,0.0,0.0,-0.498,-0.5173,-0.5498,-0.5613,0.0,0.0,-0.4947,-0.4639,-0.4303,-0.4045,-0.4092,0.0,0.0,0.0,0.0,0.0,0.0,0.0,0.0,0.0,0.0,0.0,0.0,0.0,0.0,0.0,0.0,0.0,0.0,0.0,0.0,0.0,0.0,0.0,0.0,0.0,0.0,0.0,0.0,0.0,0.0,0.0,0.0,0.0,0.0,0.0,0.0,0.0,0.0,0.0,0.0,0.0,0.0,0.0,0.0,0.0,0.0,0.0,0.0,0.0,0.0,0.0,0.0,0.0,-0.8943,-0.8635,-0.905,-0.9261,-0.9288,-0.9695,-0.995,-1.0029,-1.0029,-1.0134,0.0,0.0,0.0,0.0,0.0,0.0,0.0,0.0,0.0,0.0,0.0,0.0,0.0,0.0,0.0,0.0,0.0,0.0,0.0,0.0,0.0,0.0,0.0,0.0,0.0,0.0,0.0,0.0,-0.6242,-0.6268,-0.5942,0.0,0.0,0.0,0.0,0.0,0.0,0.0,0.0,0.0,0.0,-0.4948,-0.5327,-0.5433,0.0,0.0,-0.5262,-0.4971,-0.4753,-0.4451,-0.4236,-0.4236,-0.406,0.0,0.0,0.0,0.0,0.0,0.0,0.0,0.0,0.0,0.0,0.0,0.0,0.0,0.0,0.0,0.0,0.0,0.0,0.0,0.0,0.0,0.0,0.0,0.0,0.0,0.0,0.0,0.0,0.0,0.0,0.0,0.0,0.0,0.0,0.0,0.0,0.0,0.0,0.0,0.0,0.0,0.0,0.0,0.0,0.0,0.0,0.0,0.0,0.0,0.0,0.0,0.0,-0.9133,-0.8886,-0.931,-0.947,-0.9417,-0.9774,-0.998,-0.9941,-0.998,-1.0009,0.0,0.0,0.0,0.0,0.0,0.0,0.0,0.0,0.0,0.0,0.0,0.0,0.0,0.0,0.0,0.0,0.0,0.0,0.0,0.0,0.0,0.0,0.0,0.0,0.0,0.0,0.0,0.0,-0.6542,-0.6573,-0.6626,0.0,0.0,0.0,0.0,0.0,0.0,0.0,0.0,0.0,0.0,-0.4894,-0.5389,-0.5508,-0.5593,-0.5843,-0.5608,-0.538,-0.525,-0.4983,-0.4798,-0.4703,0.0,0.0,0.0,0.0,0.0,0.0,0.0,0.0,0.0,0.0,0.0,0.0,0.0,0.0,0.0,0.0,0.0,0.0,0.0,0.0,0.0,0.0,0.0,0.0,0.0,0.0,0.0,0.0,0.0,0.0,-1.1377,0.0,0.0,0.0,0.0,0.0,0.0,0.0,0.0,0.0,0.0,0.0,0.0,0.0,0.0,0.0,0.0,0.0,0.0,0.0,0.0,0.0,0.0,-0.9373,-0.9288,-0.9542,-0.967,-0.9683,-0.9911,-0.9941,-0.9823,-0.9941,-0.9929,-0.9734,0.0,0.0,0.0,0.0,0.0,0.0,0.0,0.0,0.0,0.0,0.0,0.0,0.0,0.0,0.0,0.0,0.0,0.0,0.0,0.0,0.0,0.0,0.0,0.0,0.0,0.0,-0.6912,-0.6499,-0.6374,0.0,0.0,0.0,0.0,0.0,0.0,0.0,0.0,0.0,0.0,-0.4578,-0.4787,-0.5246,-0.5734,-0.6083,-0.6185,-0.6343,-0.6406,-0.6261,-0.6019,-0.5834,0.0,0.0,0.0,0.0,0.0,0.0,0.0,0.0,0.0,0.0,0.0,0.0,0.0,0.0,0.0,0.0,0.0,0.0,0.0,0.0,0.0,0.0,0.0,0.0,0.0,0.0,0.0,-1.3393,-1.365,0.0,0.0,0.0,0.0,0.0,0.0,0.0,0.0,0.0,0.0,0.0,-1.2809,-1.272,0.0,0.0,0.0,0.0,0.0,0.0,0.0,0.0,0.0,0.0,0.0,0.0,-1.0076,-0.9843,-0.974,-0.9603,-0.9457,-0.9674,-0.9723,-0.9634,-0.9713,-0.9658,-0.9368,0.0,0.0,0.0,0.0,0.0,0.0,0.0,0.0,0.0,0.0,0.0,0.0,0.0,0.0,0.0,0.0,0.0,0.0,0.0,0.0,0.0,0.0,0.0,0.0,0.0,-0.7438,0.0,0.0,0.0,0.0,0.0,0.0,0.0,0.0,0.0,0.0,0.0,-0.4236,-0.4368,-0.4491,-0.4754,-0.525,-0.5697,-0.6119,0.0,0.0,0.0,0.0,0.0,0.0,0.0,0.0,0.0,0.0,0.0,0.0,0.0,0.0,-0.33,-0.1878,-0.135,-0.0854,-0.0085,0.0,0.0,0.0,0.0,0.0,0.0,0.0,0.0,0.0,0.0,0.0,0.0,0.0,0.0,-1.4595,0.0,-1.4344,0.0,0.0,0.0,0.0,0.0,0.0,0.0,0.0,-1.3088,-1.3148,-1.3278,-1.3278,-1.328,0.0,-1.3322,-1.2944,0.0,0.0,0.0,0.0,0.0,0.0,0.0,0.0,-1.0846,-1.027,-1.0022,-0.9731,-0.9328,-0.9496,-0.9515,-0.9395,-0.9395,-0.9306,-0.9056,-0.8683,-0.857,0.0,0.0,0.0,0.0,0.0,0.0,0.0,0.0,0.0,0.0,0.0,0.0,0.0,0.0,0.0,0.0,0.0,0.0,0.0,0.0,0.0,0.0,0.0,-0.7595,0.0,0.0,0.0,0.0,0.0,0.0,0.0,0.0,0.0,-0.4548,-0.4386,-0.4333,-0.4455,-0.4735,-0.5052,-0.5513,0.0,0.0,0.0,0.0,0.0,0.0,0.0,-0.7124,-0.6717,-0.6616,-0.6571,-0.6476,-0.647,-0.646,-0.647,0.0,0.0,-0.3393,-0.279,-0.228,-0.1627,-0.1331,-0.1162,-0.1213,-0.1284,-0.1357,0.0,0.0,0.0,0.0,0.0,0.0,0.0,0.0,-1.6327,-1.6023,0.0,-1.5646,0.0,0.0,0.0,0.0,0.0,-1.3449,0.0,0.0,-1.4272,-1.4407,-1.4281,-1.4271,-1.4021,-1.3545,-1.3506,-1.3291,-1.2939,-1.3084,0.0,0.0,0.0,0.0,0.0,0.0,-1.1583,-1.0616,-1.0391,-1.0003,-0.935,-0.9306,-0.9266,-0.9177,-0.8992,-0.8822,-0.8683,-0.8365,-0.8167,-0.8175,-0.8765,0.0,0.0,0.0,0.0,0.0,0.0,0.0,0.0,0.0,0.0,0.0,0.0,0.0,0.0,0.0,0.0,0.0,0.0,0.0,0.0,-0.7103,0.0,0.0,0.0,0.0,0.0,0.0,0.0,0.0,0.0,0.0,-0.4625,-0.4592,-0.4654,-0.4832,0.0,0.0,0.0,0.0,-0.7144,-0.7556,-0.7936,-0.8262,-0.8362,-0.8315,-0.8096,-0.7765,0.0,0.0,-0.7515,-0.7515,-0.7551,-0.7664,-0.7188,-0.6345,-0.4791,-0.4052,-0.3497,-0.3003,-0.2659,-0.2572,-0.2777,-0.2792,-0.2697,-1.9606,0.0,0.0,0.0,0.0,-1.7287,-1.7267,-1.7407,-1.7032,-1.694,-1.7133,-1.6517,0.0,0.0,0.0,0.0,0.0,0.0,-1.415,-1.4228,-1.4241,-1.4184,-1.4141,-1.4141,-1.4072,-1.3945,-1.3643,-1.3447,-1.3311,-1.3116,-1.2958,-1.2958,0.0,0.0,0.0,0.0,-1.1972,-1.1505,-1.106,-1.0487,-0.99,-0.9461,-0.9073,-0.8692,-0.8732,-0.8683,-0.8561,-0.8226,-0.8036,-0.801,-0.8622,0.0,0.0,0.0,0.0,0.0,0.0,0.0,0.0,0.0,0.0,0.0,0.0,0.0,0.0,0.0,0.0,0.0,0.0,0.0,-0.7753,-0.7883,-0.8191,0.0,0.0,0.0,0.0,0.0,0.0,0.0,0.0,0.0,-0.5534,-0.528,-0.5171,0.0,0.0,-0.6046,-0.6349,-0.694,-0.7463,-0.7973,-0.8265,0.0,-0.8521,-0.8521,-0.8368,-0.8109,-0.8008,-0.8008,-0.8002,-0.8055,-0.8156,-0.8209,-0.7876,-0.7325,-0.6602,-0.5466,-0.4565,-0.4016,-0.3637,-0.3395,-0.3302,-0.3311,-0.3371,-2.1352,-1.9942,-1.9465,-1.9193,-1.9173,-1.8843,-1.8814,-1.8944,-1.8438,-1.8309,-1.8339,-1.7476,-1.6914,-1.6537,-1.5976,0.0,0.0,0.0,-1.517,-1.5223,-1.5166,-1.5068,-1.4902,-1.4902,-1.4717,-1.4385,-1.3955,-1.3662,-1.3506,-1.3086,-1.2891,-1.2891,0.0,0.0,-1.2871,-1.2617,-1.2271,-1.1921,-1.1453,-1.0822,-1.0047,-0.933,-0.8829,-0.853,-0.8511,-0.8439,-0.8316,-0.8028,-0.7821,-0.7753,-0.8356,-0.8752,0.0,0.0,0.0,0.0,0.0,0.0,0.0,0.0,0.0,0.0,0.0,-0.7771,-0.785,0.0,0.0,0.0,-0.7879,-0.8014,-0.8511,-0.8363,0.0,0.0,0.0,0.0,0.0,0.0,0.0,-0.6401,-0.6355,-0.6406,-0.6513,-0.635,-0.6162,-0.6077,-0.6316,-0.6568,-0.6861,0.0,-0.7504,-0.7974,-0.8133,-0.8285,-0.8292,-0.8441,-0.8508,-0.8355,-0.8368,-0.8374,-0.8374,-0.848,-0.8533,-0.8533,-0.8321,-0.8049,-0.7729,-0.6728,-0.5729,-0.4964,-0.4523,-0.4164,-0.3902,-0.386,-0.3805,-2.2734,-2.1914,-2.1501,-2.1191,-2.1141,-2.0995,-2.0908,-2.0868,-2.0242,-1.9756,-1.9336,-1.8496,-1.7909,-1.7615,-1.6854,0.0,-1.6366,-1.6305,-1.6451,-1.6665,-1.6665,-1.6494,-1.6135,-1.6115,-1.5625,-1.4824,-1.4355,-1.3883,-1.3555,-1.3096,-1.2891,-1.2891,-1.2891,-1.2891,-1.293,-1.293,-1.2638,-1.2025,-1.1752,-1.1053,-0.9914,-0.9144,-0.866,-0.8518,-0.83,-0.8165,-0.8066,-0.7802,-0.7628,-0.7539,-0.8146,-0.8529,-0.8699,0.0,0.0,0.0,0.0,0.0,0.0,0.0,0.0,0.0,0.0,0.0,0.0,0.0,0.0,0.0,-0.8262,0.0,-0.9099,-0.869,0.0,0.0,0.0,-0.8119,-0.7251,-0.7161,-0.7085,-0.6982,0.0,0.0,-0.7521,-0.7574,-0.7323,-0.6835,-0.6956,-0.7189,-0.7318,-0.7309,-0.7446,-0.7704,-0.7758,-0.7819,-0.8014,-0.8243,-0.8477,-0.8528,-0.8574,-0.8528,-0.8528,-0.8633,-0.8758,-0.8751,-0.8672,-0.8527,-0.8215,-0.7652,-0.702,-0.5923,-0.5328,-0.4893,-0.4563,-0.4405,-0.4249,-2.333,-2.2822,-2.2703,-2.2242,-2.1735,-2.1654,-2.1654,-2.1585,-2.0742,-2.0361,-2.0205,-1.9365,-1.8564,-1.789,-1.7435,-1.6958,-1.6572,-1.6582,-1.6631,-1.6728,-1.6665,-1.6494,-1.6135,-1.6125,-1.5841,-1.5234,-1.4437,-1.4029,-1.3902,-1.3242,-1.2891,-1.2891,-1.2891,-1.3037,-1.334,-1.3359,-1.32,-1.2953,-1.2692,-1.1733,-1.0027,-0.9397,-0.8952,-0.8667,-0.829,-0.8157,-0.8288,-0.7829,-0.7595,-0.7706,-0.8038,-0.8311,-0.8637,-0.9235,0.0,0.0,0.0,0.0,0.0,0.0,0.0,0.0,0.0,-0.8238,-0.862,0.0,-0.9132,0.0,-0.9285,-0.928,-0.9478,-0.9408,0.0,0.0,-0.9105,-0.848,-0.7775,-0.7641,-0.7563,-0.7509,-0.7616,-0.7777,-0.8002,-0.8062,-0.8031,-0.7958,-0.7723,-0.7478,-0.7334,-0.7483,-0.7631,-0.7739,-0.795,-0.8257,-0.8263,-0.8323,-0.839,-0.8457,-0.824,-0.8039,-0.8088,-0.833,-0.8528,-0.849,-0.8553,-0.8501,-0.8268,-0.7889,-0.7456,-0.681,-0.61,-0.5445,-0.5069,-0.4904,-0.4849,-2.3535,-2.3144,-2.3144,-2.2861,-2.2451,-2.2451,-2.2334,-2.2109,-2.1445,-2.1045,-2.081,-1.9941,-1.9092,-1.8291,-1.8047,-1.7705,-1.7314,-1.7305,-1.7305,-1.7305,-1.7295,-1.7047,-1.653,-1.6439,-1.6025,-1.5391,-1.4486,-1.4087,-1.4029,-1.3291,-1.2891,-1.2891,-1.2891,-1.3086,-1.3486,-1.3506,-1.3464,-1.3301,-1.2642,-1.1624,-1.0234,-0.9673,-0.9163,-0.8793,-0.8536,-0.8414,-0.8497,-0.8179,-0.798,-0.8127,-0.8241,-0.8435,-0.8706,-0.9102,-0.929,0.0,0.0,0.0,0.0,0.0,0.0,0.0,0.0,0.0,0.0,0.0,-0.9368,-0.9952,-0.9858,-0.9853,-1.0038,-0.9772,-0.9602,-0.9592,-0.9158,-0.8642,-0.809,-0.7943,-0.7943,-0.7949,-0.8049,-0.8203,-0.8368,-0.8374,-0.8376,-0.8423,-0.8165,-0.7904,-0.7702,-0.7762,-0.7773,-0.7828,-0.8014,-0.823,-0.8343,-0.8257,-0.8223,-0.8323,-0.813,-0.7929,-0.7882,-0.8063,-0.8216,-0.8357,-0.8453,-0.8495,-0.8389,-0.8209,-0.7889,-0.7509,-0.6972,-0.6372,-0.5719,-0.5454,-0.5289,-2.3545,-2.3144,-2.3144,-2.3144,-2.3144,-2.3086,-2.2852,-2.248,-2.207,-2.1611,-2.1094,-2.0332,-1.9521,-1.866,-1.8721,-1.8457,-1.8018,-1.8008,-1.8008,-1.8008,-1.8008,-1.7674,-1.7096,-1.685,-1.6227,-1.54,-1.4564,-1.4136,-1.4058,-1.334,-1.293,-1.2891,-1.2891,-1.3096,-1.3496,-1.3506,-1.3484,-1.3368,-1.2154,-1.1158,-1.0506,-0.9969,-0.9467,-0.904,-0.8808,-0.8751,-0.8751,-0.8598,-0.8537,-0.854,-0.856,-0.8684,-0.8819,-0.8923,-0.9061,0.0,-0.8908,0.0,0.0,0.0,0.0,0.0,0.0,0.0,0.0,-0.8731,-0.9342,-1.0264,-1.0127,-1.0148,-1.0503,-0.986,-0.94,-0.9252,-0.8978,-0.8626,-0.8275,-0.8268,-0.8275,-0.8275,-0.8374,-0.8474,-0.858,-0.8626,-0.8586,-0.851,-0.8464,-0.84,-0.8233,-0.8039,-0.7882,-0.7882,-0.7915,-0.8136,-0.8297,-0.8136,-0.8009,-0.8176,-0.7963,-0.7782,-0.7736,-0.7836,-0.7963,-0.8237,-0.8357,-0.8426,-0.8574,-0.8521,-0.8315,-0.7984,-0.7723,-0.7246,-0.6539,-0.605,-0.5782,-2.3535,-2.3144,-2.3144,-2.3144,-2.3028,-2.2773,-2.2578,-2.248,-2.207,-2.1435,-2.0693,-2.0518,-1.9971,-1.9189,-1.916,-1.875,-1.8018,-1.8008,-1.8008,-1.8008,-1.8008,-1.7658,-1.7086,-1.6821,-1.622,-1.5422,-1.4916,-1.4482,-1.4068,-1.3633,-1.3213,-1.2891,-1.2891,-1.3096,-1.3486,0.0,0.0,0.0,-1.2341,-1.1418,-1.0964,-1.0297,-0.9857,-0.9644,-0.9119,0.0,-0.9072,-0.8714,-0.859,-0.8833,-0.8672,0.0,0.0,0.0,0.0,0.0,0.0,0.0,0.0,0.0,0.0,0.0,-0.8775,-0.8734,-0.8882,-0.9313,-0.9703,-0.9889,-0.9855,-0.9919,-1.0012,-0.9556,-0.9224,-0.9085,-0.8869,-0.8699,-0.8427,-0.8474,-0.8521,-0.8521,-0.8639,-0.8752,-0.8752,-0.8752,-0.8732,-0.8717,-0.8724,-0.8724,-0.8659,-0.8227,-0.7902,-0.7895,-0.815,-0.8303,-0.837,-0.8136,-0.7869,-0.7682,-0.7388,-0.7184,-0.7191,-0.7422,-0.7662,-0.7969,-0.8216,-0.8406,-0.8574,-0.8573,-0.8527,-0.8315,-0.8162,-0.7842,-0.7085,-0.682,-0.6603,-2.334,0.0,-2.3144,-2.3144,0.0,-2.2695,-2.2393,-2.2168,-2.1748,-2.1191,-2.0576,-2.0576,-2.0088,-1.9277,-1.9277,-1.8818,-1.8008,-1.8008,-1.8008,-1.8008,-1.8008,-1.787,-1.7534,-1.6943,-1.6258,-1.5387,-1.4965,-1.4678,-1.4443,-1.4023,-1.3603,-1.3184,-1.3193,-1.3193,-1.3193,-1.3043,-1.3144,-1.3451,-1.2388,-1.1519,-1.1023,-1.0514,-1.0051,-0.9621,-0.9314,0.0,0.0,0.0,0.0,0.0,0.0,0.0,0.0,-0.8962,0.0,-0.891,-0.8956,-0.9015,-0.9008,-0.8962,-0.891,-0.891,-0.8857,-0.8857,-0.9008,-0.9307,-0.9535,-0.9614,-0.9599,-0.9562,-0.9537,-0.9278,-0.905,-0.8883,-0.8857,-0.8752,-0.8639,-0.8639,-0.8692,-0.8692,-0.8752,-0.8804,-0.8804,-0.8804,-0.8804,-0.8804,-0.8804,-0.8804,-0.8791,-0.8564,-0.8363,-0.8363,-0.8477,-0.8591,-0.855,-0.8203,-0.7848,-0.7689,-0.7321,-0.7012,-0.6972,-0.7141,-0.7395,-0.7822,-0.8063,-0.8234,-0.8639,-0.8692,-0.8692,-0.8586,-0.848,-0.8315,-0.7883,-0.7563,-0.7246,-2.3144,-2.3144,-2.3144,-2.3144,-2.3105,-2.2617,-2.2119,-2.1631,0.0,0.0,0.0,-2.0576,-2.0127,-1.9404,-1.9326,-1.8857,-1.8135,-1.8047,-1.8008,-1.8008,-1.8008,-1.8006,-1.7929,-1.714,-1.6225,-1.5411,-1.5071,-1.4853,-1.4775,-1.4424,-1.4033,-1.3643,-1.3555,-1.3311,-1.291,-1.2627,-1.265,-1.2893,-1.22,-1.1528,-1.093,-1.0565,-1.0095,-0.9465,-0.9406,-0.9309,-0.9211,-0.9204,-0.9204,-0.9204,-0.9061,-0.9015,-0.9015,-0.8857,-0.8804,-0.8804,-0.8804,-0.8804,-0.8804,-0.8804,-0.8804,-0.8804,-0.8804,-0.8857,-0.8956,-0.9061,-0.9211,-0.9263,-0.9309,-0.9256,-0.9106,-0.9008,-0.891,-0.8804,-0.8804,-0.8804,-0.8804,-0.8804,-0.8804,-0.8804,-0.8804,-0.8804,-0.8804,-0.8804,-0.8804,-0.8804,-0.8804,-0.8804,-0.8804,-0.8784,-0.8751,-0.8758,-0.8758,-0.8778,-0.8671,-0.8357,-0.7996,-0.7809,-0.7415,-0.7101,-0.7041,-0.7068,-0.7321,-0.7836,-0.7963,-0.8243,-0.8684,-0.8804,-0.8804,-0.8804,-0.8745,-0.8633,-0.858,-0.8256,-0.783,-2.3144,-2.3144,-2.3144,-2.3144,-2.3076,-2.2305,-2.1514,-2.0762,-2.0693,-2.0625,-2.0576,-2.0576,-2.0293,-1.9805,-1.9453,-1.9023,-1.8535,-1.8164,-1.8008,-1.8008,-1.8008,-1.7988,-1.7968,-1.7109,-1.6277,-1.5429,-1.5348,-1.5137,-1.4814,-1.4717,-1.4473,-1.4,-1.3682,-1.3301,-1.291,-1.2686,-1.2518,-1.2407,-1.1855,-1.1326,-1.0871,-1.036,-0.9947,-0.9562,-0.9361,-0.9211,-0.9204,-0.9204,-0.9204,-0.9204,-0.9061,-0.9015,-0.9008,-0.8857,-0.8804,-0.8804,-0.8804,-0.8804,-0.8804,-0.8804,-0.8804,-0.8804,-0.8804,-0.8811,-0.8804,-0.8857,-0.8857,-0.891,-0.891,-0.891,-0.8864,-0.8857,-0.8804,-0.8811,-0.8804,-0.8804,-0.8804,-0.8804,-0.8804,-0.8804,-0.8804,-0.8804,-0.8804,-0.8804,-0.8804,-0.8804,-0.8804,-0.8804,-0.8804,-0.8804,-0.8804,-0.8804,-0.8804,-0.8704,-0.8537,-0.8397,-0.811,-0.7602,-0.7502,-0.7335,-0.7085,-0.7268,-0.7542,-0.7876,-0.813,-0.841,-0.8744,-0.8804,-0.8804,-0.8804,-0.8752,-0.8752,-0.8752,-0.8646,-0.848,-2.3144,-2.3144,-2.3144,-2.3144,-2.3096,-2.248,-2.1865,-2.1279,-2.1025,-2.0781,-2.0576,-2.0576,-2.0332,-1.9912,-1.9717,-1.9268,-1.8553,-1.8437,-1.8223,-1.8018,-1.8008,-1.8008,-1.793,-1.7129,-1.6233,-1.544,-1.5434,-1.5312,-1.5137,-1.5127,-1.4902,-1.4482,-1.4062,-1.3643,-1.3252,-1.3161,-1.2736,-1.2076,-1.161,-1.1209,-1.0769,-1.0308,-0.9784,-0.9413,-0.9159,-0.9061,-0.8956,-0.8956,-0.8956,-0.8962,-0.891,-0.891,-0.891,-0.8857,-0.8804,-0.8804,-0.8804,-0.8804,-0.8804,-0.8804,-0.8804,-0.8804,-0.8804,-0.8804,-0.8804,-0.8804,-0.8804,-0.8804,-0.8804,-0.8804,-0.8804,-0.8804,-0.8804,-0.8804,-0.8804,-0.8804,-0.8804,-0.8804,-0.8804,-0.8804,-0.8804,-0.8804,-0.8804,-0.8804,-0.8804,-0.8804,-0.8804,-0.8804,-0.8804,-0.8804,-0.8804,-0.8804,-0.8804,-0.8758,-0.8617,-0.847,-0.8313,-0.8037,-0.7822,-0.7682,-0.7535,-0.7649,-0.7829,-0.8096,-0.8297,-0.8477,-0.8751,-0.8804,-0.8804,-0.8804,-0.8804,-0.8804,-0.8804,-0.8804,-0.8699,-2.3144,-2.3144,-2.3144,-2.3086,-2.2978,-2.2656,-2.2266,-2.1865,-2.1523,-2.1133,-2.0732,-2.0615,-2.0371,-2.0068,-1.9961,-1.9551,-1.8955,-1.865,-1.8387,-1.8164,-1.8047,-1.8008,-1.793,-1.7227,-1.6459,-1.5787,-1.5693,-1.5654,-1.5566,-1.5557,-1.5293,-1.4805,-1.4443,-1.4062,-1.3652,-1.343,-1.2912,-1.2072,-1.1368,-1.0821,-1.0565,-1.0095,-0.9629,-0.9211,-0.9008,-0.891,-0.8811,-0.8804,-0.8804,-0.8804,-0.8804,-0.8804,-0.8804,-0.8804,-0.8804,-0.8804,-0.8804,-0.8804,-0.8804,-0.8804,-0.8804,-0.8804,-0.8804,-0.8804,-0.8804,-0.8804,-0.8804,-0.8804,-0.8804,-0.8804,-0.8804,-0.8804,-0.8804,-0.8804,-0.8804,-0.8804,-0.8804,-0.8804,-0.8804,-0.8804,-0.8804,-0.8804,-0.8804,-0.8804,-0.8804,-0.8804,-0.8804,-0.8804,-0.8804,-0.8804,-0.8804,-0.8804,-0.8804,-0.8798,-0.8791,-0.8637,-0.8457,-0.8397,-0.8183,-0.8003,-0.7943,-0.7956,-0.8096,-0.8317,-0.843,-0.8564,-0.8758,-0.8804,-0.8804,-0.8804,-0.8804,-0.8804,-0.8804,-0.8804,-0.8752,-2.3144,-2.3144,-2.3144,-2.292,-2.2607,-2.2549,-2.2295,-2.1934,-2.1836,-2.1572,-2.1162,-2.0752,-2.0547,-2.0459,-2.0098,-1.9853,-1.9697,-1.8984,-1.8633,-1.8545,-1.8184,-1.8008,-1.7988,-1.7529,-1.706,-1.6571,-1.6538,-1.6348,-1.6016,-1.6066,-1.5596,-1.4873,-1.4746,-1.4512,-1.4038,-1.338,-1.2791,-1.2443,-1.0912,-1.0089,-1.0043,-0.9673,-0.9309,-0.9008,-0.891,-0.8811,-0.8804,-0.8804,-0.8804,-0.8804,-0.8804,-0.8804,-0.8804,-0.8804,-0.8804,-0.8804,-0.8804,-0.8804,-0.8804,-0.8804,-0.8804,-0.8804,-0.8804,-0.8804,-0.8804,-0.8804,-0.8804,-0.8804,-0.8804,-0.8804,-0.8804,-0.8804,-0.8804,-0.8804,-0.8804,-0.8804,-0.8804,-0.8804,-0.8804,-0.8804,-0.8804,-0.8804,-0.8804,-0.8804,-0.8804,-0.8804,-0.8804,-0.8804,-0.8804,-0.8804,-0.8804,-0.8804,-0.8804,-0.8804,-0.8798,-0.8798,-0.8651,-0.8444,-0.8414,-0.825,-0.8143,-0.8203,-0.8363,-0.8437,-0.8584,-0.8744,-0.8778,-0.8804,-0.8804,-0.8804,-0.8804,-0.8804,-0.8804,-0.8804,-0.8752,-2.3144,-2.3144,-2.3144,-2.3047,-2.2891,-2.2881,-2.2793,-2.2617,-2.2363,-2.2124,-2.1804,-2.1252,-2.082,-2.0644,-2.0371,-2.0166,-1.9893,-1.9551,-1.9248,-1.9004,-1.8584,-1.8211,-1.7956,-1.7599,-1.7203,-1.691,-1.6776,-1.6578,-1.6484,-1.6465,-1.6143,-1.5605,-1.5596,-1.5205,-1.4561,-1.4443,-1.3905,-1.2869,-1.1173,-1.0316,-1.0295,-0.9716,-0.9316,-0.9106,-0.891,-0.8804,-0.8804,-0.8804,-0.8804,-0.8804,-0.8804,-0.8804,-0.8804,-0.8804,-0.8804,-0.8804,-0.8804,-0.8804,-0.8804,-0.8804,-0.8804,-0.8804,-0.8804,-0.8804,-0.8804,-0.8804,-0.8804,-0.8804,-0.8804,-0.8804,-0.8804,-0.8804,-0.8804,-0.8804,-0.8804,-0.8804,-0.8804,-0.8804,-0.8804,-0.8804,-0.8804,-0.8804,-0.8804,-0.8804,-0.8804,-0.8804,-0.8804,-0.8804,-0.8804,-0.8804,-0.8804,-0.8804,-0.8804,-0.8804,-0.8804,-0.8804,-0.8744,-0.8671,-0.8631,-0.8544,-0.8497,-0.8517,-0.8631,-0.8624,-0.8724,-0.8804,-0.8798,-0.8804,-0.8804,-0.8804,-0.8804,-0.8804,-0.8804,-0.8804,-0.8804,-2.3144,-2.3144,-2.3144,-2.3144,-2.3144,-2.3144,-2.3144,-2.3105,-2.2822,-2.2585,-2.2482,-2.183,-2.1269,-2.0781,-2.0625,-2.0391,-2.0098,-1.9971,-1.9746,-1.9424,-1.9014,-1.8627,-1.8199,-1.8036,-1.7832,-1.7599,-1.7356,-1.7148,-1.6934,-1.6704,-1.6562,-1.6279,-1.625,-1.5879,-1.5272,-1.5367,-1.4743,-1.3359,-1.199,-1.1164,-1.0786,-1.0083,-0.9506,-0.9166,-0.8962,-0.8864,-0.8804,-0.8804,-0.8804,-0.8804,-0.8804,-0.8804,-0.8804,-0.8804,-0.8804,-0.8804,-0.8804,-0.8804,-0.8804,-0.8804,-0.8804,-0.8804,-0.8804,-0.8804,-0.8804,-0.8804,-0.8804,-0.8804,-0.8804,-0.8804,-0.8804,-0.8804,-0.8804,-0.8804,-0.8804,-0.8804,-0.8804,-0.8804,-0.8804,-0.8804,-0.8804,-0.8804,-0.8804,-0.8804,-0.8804,-0.8804,-0.8804,-0.8804,-0.8804,-0.8804,-0.8804,-0.8804,-0.8804,-0.8804,-0.8804,-0.8804,-0.8804,-0.8804,-0.8784,-0.8778,-0.8804,-0.8804,-0.8798,-0.8724,-0.8784,-0.8804,-0.8804,-0.8804,-0.8804,-0.8804,-0.8804,-0.8804,-0.8804,-0.8804,-0.8752,-2.3144,-2.3144,-2.3144,-2.3144,-2.3144,-2.3144,-2.3144,-2.3144,-2.3096,-2.3093,-2.2948,-2.2556,-2.1973,-2.1191,-2.082,-2.0576,-2.0469,-2.0117,-1.9941,-1.9853,-1.9453,-1.9156,-1.8879,-1.9107,-1.9056,-1.8664,-1.8486,-1.8105,-1.7422,-1.6982,-1.6665,-1.6646,-1.6709,-1.6465,-1.5967,-1.5585,-1.4926,-1.4005,-1.3459,-1.2659,-1.1382,-1.0709,-0.9943,-0.9169,-0.9015,-0.8956,-0.8804,-0.8804,-0.8804,-0.8804,-0.8804,-0.8804,-0.8818,-0.8824,-0.8824,-0.8824,-0.8811,-0.8804,-0.8804,-0.8804,-0.8804,-0.8804,-0.8804,-0.8804,-0.8804,-0.8804,-0.8804,-0.8804,-0.8804,-0.8804,-0.8804,-0.8804,-0.8804,-0.8804,-0.8804,-0.8804,-0.8804,-0.8804,-0.8804,-0.8804,-0.8804,-0.8804,-0.8804,-0.8804,-0.8804,-0.8804,-0.8804,-0.8804,-0.8804,-0.8804,-0.8804,-0.8804,-0.8804,-0.8804,-0.8804,-0.8804,-0.8804,-0.8804,-0.8804,-0.8804,-0.8804,-0.8804,-0.8804,-0.8804,-0.8804,-0.8804,-0.8804,-0.8804,-0.8804,-0.8804,-0.8804,-0.8804,-0.8804,-0.8804,-0.8752,-2.3144,-2.3144,-2.3144,-2.3144,-2.3144,-2.3144,-2.3144,-2.3144,-2.3144,-2.3132,-2.3028,-2.2644,-2.2187,-2.1641,-2.1484,-2.1094,-2.0586,-2.04,-2.0332,-2.0283,-1.9883,-1.9603,-1.9555,-1.9414,-1.9301,-1.9174,-1.9062,-1.8906,-1.8603,-1.8164,-1.7803,-1.7529,-1.7266,-1.6797,-1.6162,-1.5667,-1.5081,-1.452,-1.4231,-1.3539,-1.2301,-1.1527,-1.0699,-0.9796,-0.9263,-0.8962,-0.8804,-0.8804,-0.8804,-0.8804,-0.8804,-0.8891,-0.9004,-0.903,-0.9085,-0.901,-0.8905,-0.8804,-0.8804,-0.8804,-0.8804,-0.8804,-0.8804,-0.8804,-0.8804,-0.8804,-0.8804,-0.8804,-0.8804,-0.8804,-0.8804,-0.8804,-0.8804,-0.8804,-0.8804,-0.8804,-0.8804,-0.8804,-0.8804,-0.8804,-0.8804,-0.8804,-0.8804,-0.8804,-0.8804,-0.8804,-0.8804,-0.8804,-0.8804,-0.8804,-0.8804,-0.8804,-0.8804,-0.8804,-0.8804,-0.8804,-0.8804,-0.8804,-0.8804,-0.8804,-0.8804,-0.8804,-0.8804,-0.8804,-0.8804,-0.8804,-0.8804,-0.8804,-0.8804,-0.8804,-0.8804,-0.8804,-0.8804,-0.8699,-0.8639,-2.3144,-2.3144,-2.3144,-2.3144,-2.3144,-2.3144,-2.3144,-2.3144,-2.3135,-2.3104,-2.2994,-2.283,-2.248,-2.2139,-2.209,-2.1709,-2.1016,-2.085,-2.0713,-2.0547,-2.0254,-2.0127,-2.0078,-1.9834,-1.9619,-1.9482,-1.9336,-1.9277,-1.9258,-1.8994,-1.8623,-1.8213,-1.792,-1.7353,-1.6611,-1.6081,-1.5548,-1.5119,-1.4711,-1.4035,-1.3061,-1.2249,-1.139,-1.0572,-0.9835,-0.9248,-0.8958,-0.8945,-0.8998,-0.9072,-0.9098,-0.9178,-0.9359,-0.9379,-0.9276,-0.9176,-0.9004,-0.8898,-0.8824,-0.8804,-0.8804,-0.8804,-0.8804,-0.8804,-0.8804,-0.8804,-0.8804,-0.8804,-0.8804,-0.8804,-0.8804,-0.8804,-0.8804,-0.8804,-0.8804,-0.8804,-0.8804,-0.8804,-0.8804,-0.8804,-0.8804,-0.8804,-0.8804,-0.8804,-0.8804,-0.8804,-0.8804,-0.8804,-0.8804,-0.8804,-0.8804,-0.8804,-0.8804,-0.8804,-0.8804,-0.8804,-0.8804,-0.8804,-0.8804,-0.8804,-0.8804,-0.8804,-0.8804,-0.8804,-0.8804,-0.8804,-0.8804,-0.8804,-0.8804,-0.8804,-0.8804,-0.8804,-0.8699,-0.858,-0.8421,-2.3144,-2.3144,-2.3144,-2.3144,-2.3144,-2.3144,-2.3144,-2.3144,-2.3144,-2.3115,-2.3076,-2.3096,-2.2861,-2.2578,-2.2519,-2.2275,-2.1826,-2.1416,-2.1006,-2.0644,-2.0547,-2.0518,-2.0508,-2.0459,-2.0244,-1.9912,-1.9531,-1.9346,-1.9404,-1.9316,-1.9072,-1.873,-1.8584,-1.8086,-1.7363,-1.6934,-1.6389,-1.567,-1.4934,-1.4209,-1.3535,-1.2864,-1.2101,-1.1153,-1.0565,-0.9981,-0.9279,-0.9196,-0.9359,-0.9593,-0.9633,-0.9673,-0.9673,-0.9659,-0.9546,-0.9263,-0.917,-0.9072,-0.8844,-0.8804,-0.8804,-0.8804,-0.8804,-0.8804,-0.8804,-0.8804,-0.8804,-0.8804,-0.8804,-0.8804,-0.8804,-0.8804,-0.8804,-0.8804,-0.8804,-0.8804,-0.8804,-0.8804,-0.8804,-0.8804,-0.8804,-0.8804,-0.8804,-0.8804,-0.8804,-0.8804,-0.8804,-0.8804,-0.8804,-0.8804,-0.8804,-0.8804,-0.8804,-0.8804,-0.8804,-0.8804,-0.8804,-0.8804,-0.8804,-0.8804,-0.8804,-0.8804,-0.8804,-0.8804,-0.8804,-0.8804,-0.8804,-0.8804,-0.8804,-0.8804,-0.8804,-0.8752,-0.8633,-0.8468,-0.815,-2.3144,-2.3144,-2.3144,-2.3144,-2.3144,-2.3144,-2.3144,-2.3144,-2.3144,-2.3144,-2.3144,-2.3144,-2.3057,-2.2969,-2.2939,-2.2715,-2.2305,-2.1875,-2.1445,-2.1035,-2.0713,-2.0576,-2.0576,-2.0576,-2.0498,-2.0361,-2.0244,-2.0166,-2.0088,-1.9863,-1.9629,-1.9443,-1.8916,-1.8369,-1.7822,-1.7656,-1.7066,-1.585,-1.5179,-1.4542,-1.401,-1.3399,-1.2627,-1.1682,-1.1049,-1.0519,-1.0082,-0.9717,-0.9593,-0.9706,-0.9686,-0.9773,-0.9907,-0.9786,-0.9639,-0.9519,-0.9152,-0.8918,-0.8831,-0.8804,-0.8804,-0.8804,-0.8804,-0.8804,-0.8804,-0.8804,-0.8804,-0.8804,-0.8804,-0.8804,-0.8804,-0.8804,-0.8804,-0.8804,-0.8804,-0.8804,-0.8804,-0.8804,-0.8804,-0.8804,-0.8804,-0.8804,-0.8804,-0.8804,-0.8804,-0.8804,-0.8804,-0.8804,-0.8804,-0.8804,-0.8804,-0.8804,-0.8804,-0.8804,-0.8804,-0.8804,-0.8804,-0.8804,-0.8804,-0.8804,-0.8804,-0.8804,-0.8804,-0.8804,-0.8804,-0.8804,-0.8804,-0.8804,-0.8804,-0.8804,-0.8804,-0.8692,-0.8573,-0.8302,-0.7937,-2.3144,-2.3144,-2.3144,-2.3144,-2.3144,-2.3144,-2.3144,-2.3144,-2.3144,-2.3144,-2.3144,-2.3144,-2.3144,-2.3144,-2.3144,-2.2998,-2.2695,-2.2158,-2.1738,-2.1396,-2.082,-2.0586,-2.0576,-2.0576,-2.0576,-2.0576,-2.0566,-2.0576,-2.0557,-2.0293,-2.0078,-1.9805,-1.9219,-1.8672,-1.8213,-1.8041,-1.7379,-1.6224,-1.5616,-1.5081,-1.4396,-1.3881,-1.3168,-1.2378,-1.1684,-1.1131,-1.0758,-1.0342,-1.0067,-1.0073,-1.0007,-1.0107,-1.0241,-1.0013,-0.98,-0.9606,-0.9265,-0.8938,-0.8831,-0.8804,-0.8804,-0.8804,-0.8804,-0.8804,-0.8804,-0.8804,-0.8804,-0.8804,-0.8804,-0.8804,-0.8804,-0.8804,-0.8804,-0.8804,-0.8804,-0.8804,-0.8804,-0.8804,-0.8804,-0.8804,-0.8804,-0.8804,-0.8804,-0.8804,-0.8804,-0.8804,-0.8804,-0.8804,-0.8804,-0.8804,-0.8804,-0.8804,-0.8804,-0.8804,-0.8804,-0.8804,-0.8804,-0.8804,-0.8804,-0.8804,-0.8804,-0.8804,-0.8804,-0.8804,-0.8804,-0.8804,-0.8804,-0.8804,-0.8804,-0.8804,-0.8752,-0.8586,-0.8415,-0.8043,-0.7622,-2.3213,-2.3174,-2.3184,-2.3174,-2.3144,-2.3144,-2.3144,-2.3144,-2.3144,-2.3144,-2.3144,-2.3144,-2.3144,-2.3144,-2.3144,-2.3105,-2.2978,-2.2256,-2.1885,-2.1602,-2.1016,-2.0576,-2.0576,-2.0576,-2.0576,-2.0576,-2.0576,-2.0576,-2.0566,-2.0518,-2.0352,-1.998,-1.9561,-1.9102,-1.8613,-1.8277,-1.7556,-1.6787,-1.6243,-1.5575,-1.4758,-1.4243,-1.3666,-1.2964,-1.2336,-1.1772,-1.1253,-1.085,-1.0627,-1.0604,-1.0488,-1.053,-1.0461,-1.0254,-0.9913,-0.9633,-0.9372,-0.9072,-0.8864,-0.8804,-0.8804,-0.8804,-0.8804,-0.8804,-0.8804,-0.8804,-0.8804,-0.8804,-0.8804,-0.8804,-0.8804,-0.8804,-0.8804,-0.8804,-0.8804,-0.8804,-0.8804,-0.8804,-0.8804,-0.8804,-0.8804,-0.8804,-0.8804,-0.8804,-0.8804,-0.8804,-0.8804,-0.8804,-0.8804,-0.8804,-0.8804,-0.8804,-0.8804,-0.8804,-0.8804,-0.8804,-0.8804,-0.8804,-0.8804,-0.8804,-0.8804,-0.8804,-0.8804,-0.8804,-0.8804,-0.8804,-0.8804,-0.8804,-0.8752,-0.8745,-0.8639,-0.8474,-0.8156,-0.7729,-0.73,-2.3906,-2.3633,-2.3613,-2.3437,-2.3164,-2.3144,-2.3144,-2.3144,-2.3144,-2.3144,-2.3144,-2.3144,-2.3144,-2.3144,-2.3144,-2.3144,-2.293,-2.2266,-2.1894,-2.1738,-2.0977,-2.0605,-2.0576,-2.0576,-2.0576,-2.0576,-2.0576,-2.0576,-2.0576,-2.0576,-2.0498,-2.0391,-1.9932,-1.9521,-1.9062,-1.836,-1.7742,-1.7217,-1.6679,-1.5995,-1.5237,-1.4594,-1.3793,-1.2875,-1.2375,-1.1809,-1.1185,-1.0814,-1.0618,-1.0624,-1.0618,-1.0448,-1.0254,-0.998,-0.9693,-0.9399,-0.9112,-0.8905,-0.8831,-0.8804,-0.8804,-0.8804,-0.8804,-0.8804,-0.8804,-0.8804,-0.8804,-0.8804,-0.8804,-0.8804,-0.8804,-0.8804,-0.8804,-0.8804,-0.8804,-0.8804,-0.8804,-0.8804,-0.8804,-0.8804,-0.8804,-0.8804,-0.8804,-0.8804,-0.8804,-0.8804,-0.8804,-0.8804,-0.8804,-0.8804,-0.8804,-0.8804,-0.8804,-0.8804,-0.8804,-0.8804,-0.8804,-0.8804,-0.8804,-0.8804,-0.8804,-0.8804,-0.8804,-0.8804,-0.8804,-0.8804,-0.8804,-0.8804,-0.8752,-0.8692,-0.8533,-0.8315,-0.7889,-0.7461,-0.6977,-2.4268,-2.4033,-2.3867,-2.3643,-2.3398,-2.3223,-2.3144,-2.3144,-2.3144,-2.3144,-2.3144,-2.3144,-2.3144,-2.3144,-2.3144,-2.3144,-2.3027,-2.2266,-2.1914,-2.1748,-2.0977,-2.0596,-2.0576,-2.0576,-2.0576,-2.0576,-2.0576,-2.0576,-2.0576,-2.0576,-2.0576,-2.0469,-2.0127,-1.9697,-1.9248,-1.8643,-1.7969,-1.7451,-1.6925,-1.6405,-1.5629,-1.4899,-1.4044,-1.3124,-1.2469,-1.1747,-1.1059,-1.0744,-1.0618,-1.0618,-1.0604,-1.0421,-1.0134,-0.9846,-0.9552,-0.9196,-0.8971,-0.8811,-0.8804,-0.8804,-0.8804,-0.8804,-0.8804,-0.8804,-0.8804,-0.8804,-0.8804,-0.8804,-0.8804,-0.8804,-0.8804,-0.8804,-0.8804,-0.8804,-0.8804,-0.8804,-0.8804,-0.8804,-0.8804,-0.8804,-0.8804,-0.8804,-0.8804,-0.8804,-0.8804,-0.8804,-0.8804,-0.8804,-0.8804,-0.8804,-0.8804,-0.8804,-0.8804,-0.8804,-0.8804,-0.8804,-0.8804,-0.8804,-0.8804,-0.8804,-0.8804,-0.8804,-0.8804,-0.8804,-0.8804,-0.8804,-0.8804,-0.8752,-0.8745,-0.8639,-0.8427,-0.8109,-0.7676,-0.7192,-0.6707,-2.4521,-2.4443,-2.4033,-2.3828,-2.3711,-2.333,-2.3144,-2.3144,-2.3144,-2.3144,-2.3144,-2.3144,-2.3144,-2.3144,-2.3144,-2.3135,-2.3086,-2.2266,-2.1836,-2.1475,-2.0937,-2.0576,-2.0576,-2.0576,-2.0576,-2.0576,-2.0576,-2.0576,-2.0576,-2.0576,-2.0576,-2.0498,-2.0176,-1.9736,-1.9326,-1.8887,-1.8271,-1.757,-1.7206,-1.6619,-1.5827,-1.5024,-1.4144,-1.329,-1.225,-1.1567,-1.0996,-1.0681,-1.0618,-1.0618,-1.0618,-1.0401,-1.0127,-0.9846,-0.9552,-0.9252,-0.8978,-0.8804,-0.8804,-0.8804,-0.8804,-0.8804,-0.8804,-0.8804,-0.8804,-0.8804,-0.8804,-0.8804,-0.8804,-0.8804,-0.8804,-0.8804,-0.8804,-0.8804,-0.8804,-0.8804,-0.8804,-0.8804,-0.8804,-0.8804,-0.8804,-0.8804,-0.8804,-0.8804,-0.8804,-0.8804,-0.8804,-0.8804,-0.8804,-0.8804,-0.8804,-0.8804,-0.8804,-0.8804,-0.8804,-0.8804,-0.8804,-0.8804,-0.8804,-0.8804,-0.8804,-0.8804,-0.8804,-0.8804,-0.8804,-0.8804,-0.8804,-0.8752,-0.8692,-0.848,-0.8215,-0.7895,-0.7521,-0.6982,-0.6495,-2.5244,-2.4893,-2.4473,-2.4092,-2.375,-2.333,-2.3144,-2.3144,-2.3144,-2.3144,-2.3144,-2.3144,-2.3144,-2.3144,-2.3144,-2.3144,-2.2998,-2.2227,-2.1553,-2.084,-2.0713,-2.0576,-2.0576,-2.0576,-2.0576,-2.0576,-2.0576,-2.0576,-2.0576,-2.0576,-2.0576,-2.0537,-2.042,-2.0039,-1.9355,-1.915,-1.864,-1.7794,-1.7358,-1.6745,-1.5966,-1.4972,-1.3972,-1.2996,-1.1777,-1.1073,-1.087,-1.0688,-1.0624,-1.0618,-1.0541,-1.0428,-1.0127,-0.9853,-0.9566,-0.921,-0.8991,-0.8818,-0.8804,-0.8804,-0.8811,-0.8831,-0.8844,-0.8804,-0.8804,-0.8831,-0.8818,-0.8804,-0.8804,-0.8804,-0.8804,-0.8804,-0.8804,-0.8804,-0.8804,-0.8804,-0.8804,-0.8804,-0.8804,-0.8804,-0.8804,-0.8804,-0.8804,-0.8804,-0.8804,-0.8804,-0.8804,-0.8804,-0.8804,-0.8804,-0.8804,-0.8804,-0.8804,-0.8804,-0.8804,-0.8804,-0.8804,-0.8804,-0.8804,-0.8804,-0.8804,-0.8804,-0.8804,-0.8804,-0.8804,-0.8804,-0.8804,-0.8692,-0.8626,-0.8315,-0.8008,-0.7628,-0.7198,-0.6771,-0.6386,-2.5478,-2.5029,-2.46,-2.418,-2.376,-2.333,-2.3144,-2.3144,-2.3144,-2.3144,-2.3144,-2.3144,-2.3144,-2.3144,-2.3135,-2.3047,-2.2676,-2.1973,-2.1221,-2.0693,-2.0576,-2.0576,-2.0576,-2.0576,-2.0576,-2.0576,-2.0576,-2.0576,-2.0576,-2.0576,-2.0576,-2.0576,-2.0576,-2.0078,-1.9404,-1.9277,-1.8718,-1.786,-1.7364,-1.6849,-1.6073,-1.5095,-1.3727,-1.2512,-1.1354,-1.08,-1.0681,-1.0624,-1.0618,-1.0618,-1.0618,-1.0428,-1.0167,-0.9967,-0.9686,-0.923,-0.9064,-0.8925,-0.8858,-0.8818,-0.8864,-0.9005,-0.9011,-0.9105,-0.9125,-0.9112,-0.9011,-0.8978,-0.8898,-0.8804,-0.8804,-0.8804,-0.8804,-0.8804,-0.8804,-0.8804,-0.8804,-0.8804,-0.8804,-0.8804,-0.8804,-0.8804,-0.8804,-0.8804,-0.8804,-0.8804,-0.8804,-0.8804,-0.8804,-0.8804,-0.8804,-0.8804,-0.8804,-0.8804,-0.8804,-0.8804,-0.8804,-0.8804,-0.8804,-0.8804,-0.8804,-0.8804,-0.8804,-0.8804,-0.8804,-0.8804,-0.8752,-0.8633,-0.8468,-0.8215,-0.7901,-0.7413,-0.6982,-0.6657,-0.6332,-2.5381,-2.4932,-2.4502,-2.4111,-2.375,-2.332,-2.3144,-2.3144,-2.3144,-2.3144,-2.3144,-2.3144,-2.3096,-2.3037,-2.3008,-2.2773,-2.2217,-2.167,-2.1016,-2.0625,-2.0576,-2.0576,-2.0576,-2.0576,-2.0576,-2.0576,-2.0576,-2.0576,-2.0576,-2.0576,-2.0576,-2.0576,-2.0576,-2.0176,-1.9561,-1.9268,-1.8773,-1.7906,-1.7361,-1.6811,-1.6096,-1.5068,-1.3668,-1.2029,-1.1163,-1.0758,-1.0624,-1.0618,-1.0618,-1.0618,-1.0618,-1.0421,-1.0254,-1.0094,-0.994,-0.9349,-0.9303,-0.9232,-0.9092,-0.9018,-0.9098,-0.9243,-0.9305,-0.9412,-0.9526,-0.9439,-0.9292,-0.9077,-0.8944,-0.8804,-0.8804,-0.8804,-0.8804,-0.8804,-0.8804,-0.8804,-0.8804,-0.8804,-0.8804,-0.8804,-0.8804,-0.8804,-0.8804,-0.8804,-0.8804,-0.8804,-0.8804,-0.8804,-0.8804,-0.8804,-0.8804,-0.8804,-0.8804,-0.8804,-0.8804,-0.8804,-0.8804,-0.8804,-0.8804,-0.8804,-0.8804,-0.8804,-0.8804,-0.8804,-0.8804,-0.8804,-0.8699,-0.8527,-0.8368,-0.8115,-0.7681,-0.7198,-0.682,-0.6549,-0.6277,-2.4932,-2.4492,-2.4072,-2.3848,-2.3721,-2.332,-2.3144,-2.3144,-2.3144,-2.3144,-2.3144,-2.3135,-2.2949,-2.2725,-2.2627,-2.2197,-2.165,-2.124,-2.0957,-2.0625,-2.0576,-2.0576,-2.0576,-2.0576,-2.0576,-2.0576,-2.0576,-2.0576,-2.0576,-2.0576,-2.0576,-2.0576,-2.0576,-2.0254,-1.9814,-1.9463,-1.8889,-1.7976,-1.7334,-1.6621,-1.5826,-1.4755,-1.34,-1.173,-1.1019,-1.0728,-1.0624,-1.0618,-1.0618,-1.0618,-1.0618,-1.0591,-1.0428,-1.0254,-1.0074,-0.9907,-0.9706,-0.9552,-0.9452,-0.9492,-0.9539,-0.9599,-0.9613,-0.9626,-0.9686,-0.9639,-0.9492,-0.9232,-0.9011,-0.8818,-0.8804,-0.8804,-0.8804,-0.8804,-0.8804,-0.8804,-0.8804,-0.8804,-0.8804,-0.8804,-0.8804,-0.8804,-0.8804,-0.8804,-0.8804,-0.8804,-0.8804,-0.8804,-0.8804,-0.8804,-0.8804,-0.8804,-0.8804,-0.8804,-0.8804,-0.8804,-0.8804,-0.8804,-0.8804,-0.8804,-0.8804,-0.8804,-0.8804,-0.8752,-0.8745,-0.8745,-0.8639,-0.8421,-0.8103,-0.7735,-0.7359,-0.6928,-0.6603,-0.6332,-0.6223,-2.4687,-2.4082,-2.3867,-2.3652,-2.3437,-2.3242,-2.3144,-2.3144,-2.3144,-2.3144,-2.3144,-2.3125,-2.291,-2.2598,-2.251,-2.2031,-2.1367,-2.0967,-2.0771,-2.0586,-2.0576,-2.0576,-2.0566,-2.0576,-2.0576,-2.0576,-2.0576,-2.0566,-2.0576,-2.0576,-2.0576,-2.0576,-2.0566,-2.0342,-1.9912,-1.9492,-1.8865,-1.8086,-1.7339,-1.6542,-1.5728,-1.4369,-1.2876,-1.1875,-1.1118,-1.0792,-1.0631,-1.0618,-1.0618,-1.0618,-1.0618,-1.0618,-1.0577,-1.0428,-1.0274,-1.0127,-0.9987,-0.9833,-0.9726,-0.9693,-0.9733,-0.9893,-0.9913,-1.0,-1.0047,-0.9993,-0.9713,-0.9352,-0.9103,-0.8965,-0.8831,-0.8824,-0.8804,-0.8804,-0.8804,-0.8804,-0.8804,-0.8804,-0.8804,-0.8804,-0.8804,-0.8804,-0.8804,-0.8804,-0.8804,-0.8804,-0.8804,-0.8804,-0.8804,-0.8804,-0.8804,-0.8804,-0.8804,-0.8804,-0.8804,-0.8804,-0.8804,-0.8804,-0.8804,-0.8804,-0.8804,-0.8804,-0.8745,-0.8685,-0.8685,-0.8639,-0.8421,-0.8209,-0.7783,-0.7354,-0.6923,-0.6549,-0.6332,-0.6114,-0.595,-2.4355,-2.3652,-2.3652,-2.3457,-2.3164,-2.3144,-2.3144,-2.3144,-2.3144,-2.3144,-2.3125,-2.3018,-2.2764,-2.2412,-2.2016,-2.1607,-2.0994,-2.0625,-2.044,-2.042,-2.0411,-2.0411,-2.0498,-2.0498,-2.0498,-2.0596,-2.0498,-2.0566,-2.0566,-2.0576,-2.0576,-2.0576,-2.0566,-2.042,-2.0049,-1.957,-1.8904,-1.8171,-1.7348,-1.6491,-1.5325,-1.387,-1.257,-1.1778,-1.1209,-1.0848,-1.0651,-1.0618,-1.0618,-1.0618,-1.0618,-1.0618,-1.0618,-1.0618,-1.0448,-1.0254,-1.0207,-1.0067,-0.996,-0.99,-1.0033,-1.0194,-1.02,-1.0334,-1.0367,-1.02,-0.9913,-0.9462,-0.9283,-0.9205,-0.8998,-0.8911,-0.8871,-0.8804,-0.8804,-0.8804,-0.8804,-0.8804,-0.8804,-0.8804,-0.8804,-0.8804,-0.8804,-0.8804,-0.8804,-0.8804,-0.8804,-0.8804,-0.8804,-0.8804,-0.8804,-0.8804,-0.8804,-0.8804,-0.8804,-0.8804,-0.8804,-0.8804,-0.8804,-0.8804,-0.8804,-0.8804,-0.8692,-0.8633,-0.8474,-0.8421,-0.8209,-0.7883,-0.7456,-0.6977,-0.6598,-0.6218,-0.6005,-0.5782,-0.5673,-2.3652,-2.3223,-2.3135,-2.3184,-2.3144,-2.3144,-2.3144,-2.3144,-2.3144,-2.3144,-2.3115,-2.2744,-2.2383,-2.1821,-2.0941,-2.0584,-2.0361,-2.0156,-2.002,-2.002,-2.002,-2.0117,-2.0224,-2.0039,-2.0205,-2.0459,-2.044,-2.042,-2.0576,-2.0576,-2.0576,-2.0576,-2.0566,-2.0498,-2.0254,-1.9629,-1.9141,-1.8464,-1.7407,-1.6123,-1.4633,-1.3454,-1.25,-1.1778,-1.1283,-1.0855,-1.0665,-1.0618,-1.0618,-1.0618,-1.0618,-1.0618,-1.0618,-1.0618,-1.0611,-1.0514,-1.0501,-1.0551,-1.0463,-1.0416,-1.0416,-1.0434,-1.0461,-1.0577,-1.0481,-1.0341,-1.0107,-1.0053,-0.9793,-0.9506,-0.9259,-0.9178,-0.9058,-0.8918,-0.8831,-0.8818,-0.8804,-0.8804,-0.8804,-0.8804,-0.8804,-0.8804,-0.8804,-0.8804,-0.8804,-0.8804,-0.8804,-0.8804,-0.8804,-0.8804,-0.8804,-0.8804,-0.8804,-0.8804,-0.8804,-0.8804,-0.8804,-0.8804,-0.8804,-0.8804,-0.8804,-0.8752,-0.8692,-0.858,-0.8421,-0.8103,-0.7836,-0.7515,-0.7025,-0.6598,-0.6218,-0.5946,-0.5673,-0.5508,-0.5344,-2.331,-2.3144,-2.3144,-2.3144,-2.3144,-2.3144,-2.3144,-2.3144,-2.3144,-2.3144,-2.2979,-2.2524,-2.1822,-2.0995,-2.0197,-1.9803,-1.9706,-1.9627,-1.9548,-1.9548,-1.9548,-1.9655,-1.9841,-1.9822,-1.9891,-2.0068,-2.0284,-2.0342,-2.0411,-2.0547,-2.0566,-2.0547,-2.0537,-2.04,-2.0109,-1.9451,-1.8816,-1.794,-1.6706,-1.5284,-1.4181,-1.3241,-1.2361,-1.1573,-1.1149,-1.0855,-1.0698,-1.0618,-1.0618,-1.0618,-1.0618,-1.0618,-1.0618,-1.0618,-1.0618,-1.0618,-1.0618,-1.0611,-1.0604,-1.0618,-1.0618,-1.0618,-1.0618,-1.0611,-1.0598,-1.0448,-1.0261,-1.0107,-1.0007,-0.98,-0.9519,-0.9332,-0.9143,-0.901,-0.8965,-0.8864,-0.8844,-0.8811,-0.8804,-0.8804,-0.8804,-0.8804,-0.8804,-0.8804,-0.8804,-0.8804,-0.8804,-0.8804,-0.8804,-0.8804,-0.8804,-0.8804,-0.8804,-0.8804,-0.8804,-0.8804,-0.8804,-0.8804,-0.8804,-0.8804,-0.8752,-0.8745,-0.8633,-0.8421,-0.8156,-0.7836,-0.7515,-0.7139,-0.6756,-0.6273,-0.5841,-0.5622,-0.5399,-0.523,-0.5066,-2.3144,-2.3144,-2.3144,-2.3144,-2.3144,-2.3144,-2.3144,-2.3144,-2.3144,-2.3057,-2.2824,-2.2141,-2.1117,-2.0114,-1.9476,-1.9152,-1.9054,-1.8975,-1.8984,-1.8993,-1.9082,-1.9179,-1.9356,-1.9427,-1.9576,-1.9734,-1.9868,-2.0062,-2.0178,-2.0206,-2.0205,-2.0381,-2.0099,-1.9963,-1.9577,-1.8931,-1.8231,-1.7107,-1.5766,-1.4633,-1.378,-1.3027,-1.2221,-1.1573,-1.1142,-1.0855,-1.0608,-1.0618,-1.0618,-1.0618,-1.0618,-1.0618,-1.0618,-1.0618,-1.0618,-1.0618,-1.0618,-1.0618,-1.0618,-1.0618,-1.0618,-1.0618,-1.0618,-1.0618,-1.0618,-1.0618,-1.0571,-1.0267,-1.0247,-1.008,-0.984,-0.9593,-0.9486,-0.9359,-0.9205,-0.9051,-0.8931,-0.8938,-0.8878,-0.8804,-0.8804,-0.8804,-0.8804,-0.8804,-0.8804,-0.8804,-0.8804,-0.8804,-0.8804,-0.8804,-0.8804,-0.8804,-0.8804,-0.8804,-0.8804,-0.8804,-0.8804,-0.8804,-0.8804,-0.8804,-0.8752,-0.8692,-0.858,-0.8315,-0.7996,-0.7735,-0.7473,-0.6977,-0.6485,-0.6109,-0.5732,-0.5348,-0.5124,-0.4956,-0.4791,-2.3144,-2.3144,-2.3144,-2.3144,-2.3144,-2.3144,-2.3144,-2.3144,-2.3144,-2.295,-2.2533,-2.1371,-2.0191,-1.9236,-1.8656,-1.8336,-1.8336,-1.8193,-1.8112,-1.8193,-1.8362,-1.8603,-1.8745,-1.9027,-1.9265,-1.9612,-1.9572,-1.9602,-1.9723,-1.9545,-1.9697,-1.9873,-1.9474,-1.9178,-1.8772,-1.8096,-1.709,-1.6076,-1.4927,-1.4106,-1.3425,-1.2692,-1.197,-1.1471,-1.1129,-1.0855,-1.0645,-1.0618,-1.0618,-1.0618,-1.0618,-1.0618,-1.0618,-1.0618,-1.0618,-1.0618,-1.0618,-1.0618,-1.0618,-1.0618,-1.0618,-1.0618,-1.0618,-1.0618,-1.0618,-1.0618,-1.0584,-1.0488,-1.0441,-1.0347,-1.0174,-1.0033,-0.982,-0.9673,-0.9486,-0.9299,-0.9185,-0.9077,-0.8997,-0.8871,-0.8804,-0.8804,-0.8804,-0.8804,-0.8804,-0.8804,-0.8804,-0.8804,-0.8804,-0.8804,-0.8804,-0.8804,-0.8804,-0.8804,-0.8804,-0.8804,-0.8804,-0.8804,-0.8804,-0.8804,-0.8804,-0.8692,-0.8573,-0.8368,-0.8109,-0.7741,-0.7371,-0.6982,-0.6544,-0.6055,-0.5622,-0.5238,-0.4904,-0.4736,-0.4625,-2.3144,-2.3144,-2.3144,-2.3144,-2.3144,-2.3144,-2.3144,-2.3144,-2.3135,-2.2533,-2.1677,-2.0674,-1.945,-1.8499,-1.7767,-1.7448,-1.7294,-1.7221,-1.7302,-1.7465,-1.7708,-1.7937,-1.817,-1.8415,-1.8706,-1.9012,-1.8976,-1.8938,-1.9113,-1.8885,-1.8634,-1.8629,-1.8569,-1.8439,-1.7987,-1.7009,-1.5942,-1.5119,-1.4314,-1.3628,-1.2856,-1.2312,-1.1662,-1.1169,-1.0882,-1.0766,-1.0638,-1.0624,-1.0618,-1.0618,-1.0618,-1.0618,-1.0618,-1.0618,-1.0618,-1.0618,-1.0618,-1.0618,-1.0618,-1.0618,-1.0618,-1.0618,-1.0618,-1.0618,-1.0618,-1.0618,-1.0618,-1.0618,-1.0618,-1.0461,-1.0421,-1.0221,-1.002,-0.9927,-0.9786,-0.9599,-0.9412,-0.9276,-0.9057,-0.8884,-0.8824,-0.8804,-0.8804,-0.8804,-0.8804,-0.8804,-0.8804,-0.8804,-0.8804,-0.8804,-0.8804,-0.8804,-0.8804,-0.8804,-0.8804,-0.8804,-0.8804,-0.8804,-0.8804,-0.8804,-0.8804,-0.8685,-0.8573,-0.8368,-0.8215,-0.7842,-0.7467,-0.7036,-0.6598,-0.6109,-0.5563,-0.5073,-0.4794,-0.457,-0.4515,-2.3144,-2.3144,-2.3144,-2.3144,-2.3144,-2.3144,-2.3144,-2.3057,-2.3047,-2.2195,-2.0829,-1.9918,-1.8854,-1.782,-1.7054,-1.673,-1.6648,-1.6656,-1.673,-1.6927,-1.7162,-1.7431,-1.7717,-1.7991,-1.8194,-1.8378,-1.8505,-1.8575,-1.8638,-1.8176,-1.7741,-1.7565,-1.755,-1.7261,-1.6902,-1.5791,-1.4784,-1.4129,-1.3665,-1.3172,-1.2459,-1.1874,-1.1438,-1.1022,-1.0742,-1.0665,-1.0631,-1.0618,-1.0618,-1.0618,-1.0618,-1.0618,-1.0618,-1.0618,-1.0618,-1.0618,-1.0618,-1.0618,-1.0618,-1.0618,-1.0618,-1.0618,-1.0618,-1.0618,-1.0618,-1.0618,-1.0618,-1.0618,-1.0618,-1.0618,-1.0611,-1.0381,-1.0294,-1.0221,-1.0167,-0.9987,-0.9626,-0.9432,-0.9145,-0.8884,-0.8851,-0.8804,-0.8804,-0.8804,-0.8804,-0.8804,-0.8804,-0.8804,-0.8804,-0.8804,-0.8804,-0.8804,-0.8804,-0.8804,-0.8804,-0.8804,-0.8804,-0.8804,-0.8804,-0.8804,-0.8752,-0.8685,-0.8626,-0.8521,-0.8262,-0.7943,-0.7568,-0.7192,-0.6701,-0.6213,-0.5559,-0.4904,-0.4684,-0.4515,-0.4515,-2.3125,-2.3144,-2.3135,-2.3144,-2.3144,-2.3144,-2.3144,-2.3057,-2.2882,-2.1942,-2.0403,-1.9238,-1.8189,-1.7331,-1.6565,-1.626,-1.6312,-1.637,-1.6503,-1.6587,-1.6804,-1.71,-1.7372,-1.7596,-1.7861,-1.766,-1.7886,-1.8166,-1.8308,-1.7483,-1.686,-1.6334,-1.6093,-1.5862,-1.5867,-1.4919,-1.4057,-1.3557,-1.3112,-1.2669,-1.217,-1.1654,-1.1283,-1.0929,-1.0695,-1.0561,-1.0618,-1.0618,-1.0618,-1.0618,-1.0618,-1.0618,-1.0618,-1.0618,-1.0618,-1.0618,-1.0618,-1.0618,-1.0618,-1.0618,-1.0618,-1.0618,-1.0618,-1.0618,-1.0618,-1.0618,-1.0618,-1.0618,-1.0618,-1.0618,-1.0618,-1.0604,-1.0508,-1.0468,-1.0463,-1.0255,-0.982,-0.9559,-0.9285,-0.8925,-0.8838,-0.8804,-0.8804,-0.8804,-0.8804,-0.8804,-0.8804,-0.8804,-0.8804,-0.8804,-0.8804,-0.8804,-0.8804,-0.8804,-0.8804,-0.8804,-0.8804,-0.8804,-0.8804,-0.8804,-0.8752,-0.8692,-0.8633,-0.8573,-0.8362,-0.8103,-0.7723,-0.7348,-0.6642,-0.5941,-0.5395,-0.4846,-0.4625,-0.4463,-0.4463,-2.2725,-2.2744,-2.3018,-2.3144,-2.3144,-2.3144,-2.3135,-2.2969,-2.2501,-2.1493,-2.0219,-1.8978,-1.7924,-1.7069,-1.6521,-1.6162,-1.6288,-1.6033,-1.6059,-1.6652,-1.6641,-1.659,-1.6862,-1.7349,-1.7659,-1.7783,-1.7805,-1.7707,-1.759,-1.6788,-1.6281,-1.57,-1.484,-1.4482,-1.4338,-1.3833,-1.3339,-1.2924,-1.2552,-1.2226,-1.1722,-1.1303,-1.1022,-1.0748,-1.0608,-1.0561,-1.0618,-1.0618,-1.0618,-1.0618,-1.0618,-1.0618,-1.0618,-1.0618,-1.0618,-1.0618,-1.0618,-1.0618,-1.0618,-1.0618,-1.0618,-1.0618,-1.0618,-1.0618,-1.0618,-1.0618,-1.0618,-1.0618,-1.0618,-1.0618,-1.0618,-1.0618,-1.0534,-1.0534,-1.0497,-1.0235,-0.9873,-0.9713,-0.9472,-0.9031,-0.8804,-0.8804,-0.8804,-0.8804,-0.8804,-0.8804,-0.8804,-0.8804,-0.8804,-0.8804,-0.8804,-0.8804,-0.8804,-0.8804,-0.8804,-0.8804,-0.8804,-0.8804,-0.8804,-0.8804,-0.8752,-0.8692,-0.8639,-0.858,-0.8368,-0.8209,-0.7616,-0.702,-0.6263,-0.5555,-0.5175,-0.4791,-0.457,-0.4463,-0.4463,-2.2295,-2.2334,-2.2588,-2.2705,-2.2754,-2.3018,-2.2979,-2.2698,-2.2127,-2.1195,-2.0008,-1.8948,-1.8074,-1.7275,-1.6747,-1.6484,-1.6601,-1.6373,-1.6444,-1.6904,-1.675,-1.665,-1.6773,-1.716,-1.7642,-1.7841,-1.7646,-1.7401,-1.7144,-1.6403,-1.5551,-1.4697,-1.3905,-1.3542,-1.3324,-1.3112,-1.29,-1.2524,-1.2195,-1.1827,-1.1456,-1.1162,-1.0868,-1.0661,-1.0618,-1.0618,-1.0618,-1.0618,-1.0618,-1.0618,-1.0618,-1.0618,-1.0618,-1.0618,-1.0618,-1.0618,-1.0618,-1.0618,-1.0618,-1.0618,-1.0618,-1.0618,-1.0618,-1.0618,-1.0618,-1.0618,-1.0618,-1.0618,-1.0618,-1.0618,-1.0618,-1.0618,-1.0618,-1.0618,-1.0537,-1.0221,-0.9873,-0.9699,-0.9466,-0.9045,-0.8804,-0.8804,-0.8804,-0.8804,-0.8804,-0.8804,-0.8804,-0.8804,-0.8804,-0.8804,-0.8804,-0.8804,-0.8804,-0.8804,-0.8804,-0.8804,-0.8804,-0.8804,-0.8752,-0.8752,-0.8692,-0.8633,-0.8586,-0.848,-0.8215,-0.7889,-0.7295,-0.6696,-0.5996,-0.5449,-0.512,-0.4791,-0.4519,-0.4463,-0.4463,-2.1865,-2.1865,-2.1885,-2.1934,-2.2041,-2.2715,-2.2659,-2.2169,-2.1712,-2.0955,-2.0054,-1.8953,-1.8246,-1.7896,-1.7343,-1.7098,-1.7049,-1.7079,-1.7208,-1.72,-1.7028,-1.6892,-1.6964,-1.7283,-1.7712,-1.7793,-1.7617,-1.7254,-1.683,-1.5842,-1.4705,-1.3768,-1.3112,-1.2851,-1.2691,-1.2663,-1.2517,-1.227,-1.1989,-1.1617,-1.1323,-1.1069,-1.0802,-1.0621,-1.0618,-1.0618,-1.0618,-1.0618,-1.0618,-1.0618,-1.0618,-1.0618,-1.0618,-1.0618,-1.0618,-1.0618,-1.0618,-1.0618,-1.0618,-1.0618,-1.0618,-1.0618,-1.0618,-1.0618,-1.0618,-1.0618,-1.0618,-1.0618,-1.0618,-1.0618,-1.0618,-1.0618,-1.0618,-1.0618,-1.0618,-1.0241,-0.9833,-0.9573,-0.9345,-0.9078,-0.8871,-0.8804,-0.8804,-0.8804,-0.8804,-0.8804,-0.8804,-0.8804,-0.8804,-0.8804,-0.8804,-0.8804,-0.8804,-0.8804,-0.8804,-0.8804,-0.8804,-0.8804,-0.8692,-0.8633,-0.858,-0.8474,-0.8315,-0.8103,-0.7949,-0.7568,-0.6918,-0.6376,-0.5782,-0.5344,-0.4959,-0.4794,-0.4519,-0.4519,-0.4463,-2.1426,-2.1445,-2.1758,-2.1894,-2.1924,-2.2139,-2.2104,-2.1858,-2.1455,-2.0903,-2.031,-1.9413,-1.8763,-1.842,-1.8057,-1.7931,-1.7804,-1.7696,-1.7578,-1.7451,-1.7323,-1.7217,-1.7366,-1.7508,-1.7823,-1.7832,-1.7617,-1.7185,-1.6473,-1.5346,-1.4129,-1.3193,-1.2705,-1.2396,-1.2281,-1.2305,-1.2213,-1.1982,-1.1683,-1.1436,-1.1149,-1.0868,-1.0675,-1.0588,-1.0618,-1.0618,-1.0618,-1.0618,-1.0618,-1.0618,-1.0618,-1.0618,-1.0618,-1.0618,-1.0618,-1.0618,-1.0618,-1.0618,-1.0618,-1.0618,-1.0618,-1.0618,-1.0618,-1.0618,-1.0618,-1.0618,-1.0618,-1.0618,-1.0618,-1.0618,-1.0618,-1.0618,-1.0618,-1.0618,-1.0577,-1.0329,-0.9886,-0.9626,-0.9379,-0.9005,-0.8811,-0.8804,-0.8804,-0.8804,-0.8804,-0.8804,-0.8804,-0.8804,-0.8804,-0.8804,-0.8752,-0.8752,-0.8752,-0.8745,-0.8752,-0.8752,-0.8804,-0.8752,-0.8639,-0.8521,-0.8362,-0.8203,-0.799,-0.767,-0.7408,-0.6972,-0.648,-0.5996,-0.5567,-0.5179,-0.4849,-0.4684,-0.4574,-0.4519,-0.4463,-2.0977,-2.1006,-2.124,-2.1367,-2.1367,-2.1357,-2.1387,-2.1345,-2.1125,-2.09,-2.0434,-1.9687,-1.9209,-1.9002,-1.8734,-1.8527,-1.8525,-1.8119,-1.7888,-1.7909,-1.7562,-1.7605,-1.7666,-1.7735,-1.7803,-1.7745,-1.747,-1.7038,-1.6114,-1.4752,-1.3462,-1.2776,-1.2494,-1.2094,-1.1854,-1.1837,-1.1763,-1.1572,-1.1329,-1.1162,-1.0949,-1.0708,-1.0665,-1.0618,-1.0618,-1.0618,-1.0618,-1.0618,-1.0618,-1.0618,-1.0618,-1.0618,-1.0618,-1.0618,-1.0618,-1.0618,-1.0618,-1.0618,-1.0618,-1.0618,-1.0618,-1.0618,-1.0618,-1.0618,-1.0618,-1.0618,-1.0618,-1.0618,-1.0618,-1.0618,-1.0618,-1.0618,-1.0618,-1.0618,-1.0483,-1.0349,-1.0073,-0.974,-0.9359,-0.8945,-0.8804,-0.8804,-0.8804,-0.8804,-0.8804,-0.8804,-0.8752,-0.8752,-0.8752,-0.8752,-0.8745,-0.8685,-0.8685,-0.8685,-0.8692,-0.8639,-0.8646,-0.8593,-0.848,-0.8315,-0.815,-0.7883,-0.7616,-0.7187,-0.6756,-0.6376,-0.605,-0.5727,-0.5352,-0.5018,-0.4794,-0.4684,-0.4574,-0.4519,-0.4463,-2.0459,-2.0439,-2.0469,-2.0469,-2.0546,-2.0469,-2.0556,-2.0605,-2.0682,-2.0661,-2.0429,-1.991,-1.9636,-1.9459,-1.9226,-1.8956,-1.8704,-1.8345,-1.8166,-1.8241,-1.7849,-1.7794,-1.7872,-1.8008,-1.7862,-1.7638,-1.7217,-1.6751,-1.5675,-1.4395,-1.3164,-1.2523,-1.205,-1.1683,-1.1443,-1.1478,-1.137,-1.1128,-1.0923,-1.0771,-1.0868,-1.0708,-1.0618,-1.0618,-1.0618,-1.0618,-1.0618,-1.0618,-1.0618,-1.0618,-1.0618,-1.0618,-1.0618,-1.0618,-1.0618,-1.0618,-1.0618,-1.0618,-1.0618,-1.0618,-1.0618,-1.0618,-1.0618,-1.0618,-1.0618,-1.0618,-1.0618,-1.0618,-1.0618,-1.0618,-1.0618,-1.0618,-1.0618,-1.0508,-1.0401,-1.0174,-0.9866,-0.9566,-0.9198,-0.8871,-0.8804,-0.8804,-0.8804,-0.8804,-0.8804,-0.8804,-0.8745,-0.8692,-0.8692,-0.8692,-0.8586,-0.8527,-0.8527,-0.848,-0.8421,-0.8368,-0.8427,-0.8374,-0.8268,-0.8109,-0.7937,-0.7622,-0.7192,-0.6761,-0.6268,-0.5946,-0.5622,-0.5352,-0.5132,-0.4908,-0.4688,-0.4632,-0.4574,-0.4519,-0.4463,-1.959,-1.959,-1.959,-1.959,-1.96,-1.959,-2.0004,-2.0495,-1.9905,-2.0002,-2.042,-2.0216,-1.9975,-1.9745,-1.944,-1.9125,-1.8697,-1.8475,-1.8317,-1.8123,-1.7872,-1.7842,-1.7949,-1.7871,-1.7775,-1.756,-1.7148,-1.6356,-1.511,-1.3846,-1.2948,-1.2466,-1.188,-1.139,-1.1122,-1.1176,-1.1107,-1.0799,-1.0708,-1.0637,-1.0675,-1.0648,-1.0618,-1.0618,-1.0618,-1.0618,-1.0618,-1.0618,-1.0618,-1.0618,-1.0618,-1.0618,-1.0618,-1.0618,-1.0618,-1.0618,-1.0618,-1.0618,-1.0618,-1.0618,-1.0618,-1.0618,-1.0618,-1.0618,-1.0618,-1.0618,-1.0618,-1.0618,-1.0618,-1.0618,-1.0618,-1.0618,-1.0528,-1.0448,-1.0361,-1.004,-0.9713,-0.9359,-0.9018,-0.8911,-0.8824,-0.8804,-0.8752,-0.8752,-0.8804,-0.8752,-0.8685,-0.8633,-0.8527,-0.8474,-0.8321,-0.8268,-0.8275,-0.8215,-0.8156,-0.8103,-0.8156,-0.8215,-0.8162,-0.7943,-0.7729,-0.7192,-0.6712,-0.6273,-0.5841,-0.5567,-0.5348,-0.5073,-0.4853,-0.4688,-0.4632,-0.4574,-0.4519,-0.4519,-0.4463,-1.9277,-1.9277,-1.9277,-1.9277,-1.9287,-1.9224,-1.9521,-1.9829,-1.9346,-1.9123,-1.9307,-1.963,-1.9788,-1.957,-1.9296,-1.8962,-1.8514,-1.8437,-1.8183,-1.8047,-1.7716,-1.7715,-1.7686,-1.7502,-1.711,-1.693,-1.6264,-1.5342,-1.4303,-1.3393,-1.2546,-1.206,-1.1485,-1.1089,-1.09,-1.0931,-1.0928,-1.0638,-1.0591,-1.0534,-1.0534,-1.0618,-1.0618,-1.0618,-1.0618,-1.0618,-1.0618,-1.0618,-1.0618,-1.0618,-1.0618,-1.0618,-1.0618,-1.0618,-1.0618,-1.0618,-1.0618,-1.0618,-1.0618,-1.0618,-1.0618,-1.0618,-1.0618,-1.0618,-1.0618,-1.0618,-1.0618,-1.0618,-1.0618,-1.0618,-1.0618,-1.0618,-1.0421,-1.0314,-1.02,-0.9973,-0.9559,-0.9145,-0.8945,-0.8858,-0.8752,-0.8685,-0.8639,-0.8586,-0.8586,-0.8586,-0.8527,-0.8474,-0.8368,-0.8262,-0.8109,-0.8002,-0.8008,-0.7949,-0.7783,-0.7836,-0.7943,-0.7996,-0.8055,-0.7783,-0.7461,-0.682,-0.6228,-0.5955,-0.5622,-0.5348,-0.5073,-0.4853,-0.4743,-0.4632,-0.4574,-0.4519,-0.4463,-0.4463,-0.4463,-1.9033,-1.9121,-1.9102,-1.9039,-1.9049,-1.8904,-1.8914,-1.8942,-1.8676,-1.7989,-1.747,-1.8351,-1.8909,-1.8913,-1.8699,-1.8494,-1.8133,-1.7716,-1.762,-1.7523,-1.729,-1.7193,-1.6963,-1.6715,-1.64,-1.5891,-1.5239,-1.4488,-1.3696,-1.2826,-1.2136,-1.1549,-1.1122,-1.0748,-1.0631,-1.051,-1.043,-1.0396,-1.0327,-1.0414,-1.0481,-1.0611,-1.0618,-1.0618,-1.0618,-1.0618,-1.0618,-1.0618,-1.0618,-1.0618,-1.0618,-1.0618,-1.0618,-1.0618,-1.0618,-1.0618,-1.0618,-1.0618,-1.0618,-1.0618,-1.0618,-1.0618,-1.0618,-1.0618,-1.0618,-1.0611,-1.0611,-1.0604,-1.0604,-1.0604,-1.0541,-1.0448,-1.0294,-1.0134,-1.0007,-0.9806,-0.9352,-0.8918,-0.8831,-0.8752,-0.8692,-0.8573,-0.8527,-0.848,-0.8427,-0.8368,-0.8315,-0.8268,-0.8221,-0.8055,-0.7895,-0.7788,-0.7729,-0.7622,-0.7515,-0.7622,-0.7783,-0.7836,-0.7836,-0.7568,-0.7192,-0.6712,-0.6228,-0.5845,-0.5517,-0.5238,-0.4963,-0.4798,-0.4629,-0.4519,-0.4519,-0.4463,-0.4463,-0.4463,-0.4463,-1.7872,-1.8016,-1.8025,-1.7966,-1.7846,-1.7777,-1.7796,-1.7815,-1.7558,-1.6784,-1.61,-1.6451,-1.7192,-1.7837,-1.7789,-1.7512,-1.6987,-1.6739,-1.6625,-1.65,-1.652,-1.6472,-1.6227,-1.5745,-1.5689,-1.5085,-1.4401,-1.3983,-1.297,-1.239,-1.1956,-1.1416,-1.0532,-1.0267,-1.0207,-1.0141,-1.0079,-0.9967,-0.9907,-0.988,-1.0247,-1.0361,-1.0604,-1.0618,-1.0618,-1.0618,-1.0618,-1.0618,-1.0618,-1.0618,-1.0618,-1.0618,-1.0618,-1.0618,-1.0618,-1.0618,-1.0618,-1.0618,-1.0618,-1.0618,-1.0618,-1.0618,-1.0618,-1.0618,-1.0611,-1.0521,-1.0514,-1.0494,-1.0494,-1.0481,-1.0441,-1.0254,-1.0087,-0.99,-0.9746,-0.9336,-0.8931,-0.8771,-0.8665,-0.8586,-0.8533,-0.8474,-0.8421,-0.8374,-0.8321,-0.8321,-0.8215,-0.8168,-0.8109,-0.7895,-0.7681,-0.7568,-0.7515,-0.7413,-0.7365,-0.7515,-0.7622,-0.7729,-0.7676,-0.7408,-0.7085,-0.6707,-0.6277,-0.5791,-0.5407,-0.5128,-0.4904,-0.4684,-0.4629,-0.4519,-0.4519,-0.4463,-0.4463,-0.4463,-0.4463]},{"header":{"parameterUnit":"m.s-1","parameterCategory":1,"la1":31.0,"la2":29.5877,"lo1":-88.7671,"lo2":-86.6584,"dy":0.0162,"dx":0.0185,"nx":115,"ny":88,"refTime":"2023-10-09T18:00:00:Z","depth":0,"parameterNumber":3,"parameterNumberName":"V-component_of_WINDS"},"data":[0.0,0.0,0.0,0.0,0.0,0.0,0.0,0.0,0.0,0.0,0.0,0.0,0.0,0.0,0.0,0.0,0.0,0.0,0.0,0.0,0.0,0.0,0.0,0.0,0.0,0.0,0.0,0.0,0.0,0.0,0.0,0.0,0.0,0.0,0.0,0.0,0.0,0.0,0.0,0.0,0.0,0.0,0.0,0.0,0.0,0.0,0.0,0.0,0.0,0.0,0.0,0.0,0.0,0.0,0.0,0.0,0.0,0.0,0.0,0.0,0.0,0.0,0.0,0.0,0.0,0.0,0.0,0.0,0.0,0.0,0.0,0.0,0.0,0.0,0.0,0.0,0.0,0.0,0.0,0.0,0.0,0.0,0.0,0.0,0.0,0.0,0.0,0.0,0.0,0.0,0.0,0.0,0.0,0.0,0.0,0.0,0.0,0.0,0.0,0.0,0.0,0.0,0.0,0.0,0.0,0.0,0.0,0.0,0.0,0.0,0.0,0.0,0.0,0.0,0.0,0.0,0.0,0.0,0.0,0.0,0.0,0.0,0.0,0.0,0.0,0.0,0.0,0.0,0.0,0.0,0.0,0.0,0.0,0.0,0.0,0.0,0.0,0.0,0.0,0.0,0.0,0.0,0.0,0.0,0.0,0.0,0.0,0.0,0.0,0.0,0.0,0.0,0.0,0.0,0.0,0.0,0.0,0.0,0.0,0.0,0.0,0.0,0.0,0.0,0.0,0.0,0.0,0.0,0.0,0.0,0.0,0.0,0.0,0.0,0.0,0.0,0.0,0.0,0.0,0.0,0.0,0.0,0.0,0.0,0.0,0.0,0.0,0.0,0.0,0.0,0.0,0.0,0.0,0.0,0.0,0.0,0.0,0.0,0.0,0.0,0.0,0.0,0.0,0.0,0.0,0.0,0.0,0.0,0.0,0.0,0.0,0.0,0.0,0.0,0.0,0.0,0.0,0.0,0.0,0.0,0.0,0.0,0.0,0.0,0.0,0.0,0.0,0.0,0.0,0.0,0.0,0.0,0.0,0.0,0.0,0.0,0.0,0.0,0.0,0.0,0.0,0.0,0.0,0.0,0.0,0.0,0.0,0.0,0.0,0.0,0.0,0.0,0.0,0.0,0.0,0.0,0.0,0.0,0.0,0.0,0.0,0.0,0.0,0.0,0.0,0.0,0.0,0.0,0.0,0.0,0.0,0.0,0.0,0.0,0.0,0.0,0.0,0.0,0.0,0.0,0.0,0.0,0.0,0.0,0.0,0.0,0.0,0.0,0.0,0.0,0.0,0.0,0.0,0.0,0.0,0.0,0.0,0.0,0.0,0.0,0.0,0.0,0.0,0.0,0.0,0.0,0.0,0.0,0.0,0.0,0.0,0.0,0.0,0.0,0.0,0.0,0.0,0.0,0.0,0.0,0.0,0.0,0.0,0.0,0.0,0.0,0.0,0.0,0.0,0.0,0.0,0.0,0.0,0.0,0.0,0.0,0.0,0.0,0.0,0.0,0.0,0.0,0.0,0.0,0.0,0.0,0.0,0.0,0.0,0.0,0.0,0.0,0.0,0.0,0.0,0.0,0.0,0.0,0.0,0.0,0.0,0.0,0.0,0.0,0.0,0.0,0.0,0.0,0.0,0.0,0.0,0.0,0.0,0.0,0.0,0.0,0.0,0.0,0.0,0.0,0.0,0.0,0.0,0.0,0.0,0.0,0.0,0.0,0.0,0.0,0.0,0.0,0.0,0.0,0.0,0.0,0.0,0.0,0.0,0.0,0.0,0.0,0.0,0.0,0.0,0.0,0.0,0.0,0.0,0.0,0.0,0.0,0.0,0.0,0.0,0.0,0.0,0.0,0.0,0.0,0.0,0.0,0.0,0.0,0.0,0.0,0.0,0.0,0.0,0.0,0.0,0.0,0.0,0.0,0.0,0.0,0.0,0.0,0.0,0.0,0.0,0.0,0.0,0.0,0.0,0.0,0.0,0.0,0.0,0.0,0.0,0.0,0.0,0.0,0.0,0.0,0.0,0.0,0.0,0.0,0.0,0.0,0.0,0.0,0.0,0.0,0.0,0.0,0.0,0.0,0.0,0.0,0.0,0.0,0.0,0.0,0.0,0.0,0.0,0.0,0.0,0.0,0.0,0.0,0.0,0.0,0.0,0.0,0.0,0.0,0.0,0.0,0.0,0.0,0.0,0.0,0.0,0.0,0.0,0.0,0.0,0.0,0.0,0.0,0.0,0.0,0.0,0.0,0.0,0.0,0.0,0.0,0.0,0.0,0.0,0.0,0.0,0.0,0.0,0.0,0.0,0.0,0.0,0.0,0.0,0.0,0.0,0.0,0.0,0.0,0.0,0.0,0.0,0.0,0.0,0.0,0.0,0.0,0.0,0.0,0.0,0.0,0.0,0.0,0.0,0.0,0.0,0.0,0.0,0.0,0.0,0.0,0.0,0.0,0.0,0.0,0.0,0.0,0.0,0.0,0.0,0.0,0.0,0.0,0.0,0.0,0.0,0.0,0.0,0.0,0.0,0.0,0.0,0.0,0.0,0.0,0.0,0.0,0.0,0.0,0.0,0.0,0.0,0.0,0.0,0.0,0.0,0.0,0.0,0.0,0.0,0.0,0.0,0.0,0.0,0.0,0.0,0.0,0.0,0.0,0.0,0.0,0.0,0.0,0.0,0.0,0.0,0.0,0.0,0.0,0.0,0.0,0.0,0.0,0.0,0.0,0.0,0.0,0.0,0.0,0.0,0.0,0.0,0.0,0.0,0.0,0.0,0.0,0.0,0.0,0.0,0.0,0.0,0.0,0.0,0.0,0.0,0.0,0.0,0.0,0.0,0.0,0.0,0.0,0.0,0.0,0.0,0.0,0.0,0.0,0.0,0.0,0.0,0.0,0.0,0.0,0.0,0.0,0.0,0.0,0.0,0.0,0.0,0.0,0.0,0.0,0.0,0.0,0.0,0.0,0.0,0.0,0.0,0.0,0.0,0.0,0.0,0.0,0.0,0.0,0.0,0.0,0.0,0.0,0.0,0.0,0.0,0.0,0.0,0.0,0.0,0.0,0.0,0.0,0.0,0.0,0.0,0.0,0.0,0.0,0.0,0.0,0.0,0.0,0.0,0.0,0.0,0.0,0.0,0.0,0.0,0.0,0.0,0.0,0.0,0.0,0.0,0.0,0.0,0.0,0.0,0.0,0.0,0.0,0.0,0.0,0.0,0.0,0.0,0.0,0.0,0.0,0.0,0.0,0.0,0.0,0.0,0.0,0.0,0.0,0.0,0.0,0.0,0.0,0.0,0.0,0.0,0.0,0.0,0.0,0.0,0.0,0.0,0.0,0.0,0.0,0.0,0.0,0.0,0.0,0.0,0.0,0.0,0.0,0.0,0.0,0.0,0.0,0.0,0.0,0.0,0.0,0.0,0.0,0.0,0.0,0.0,0.0,0.0,0.0,0.0,0.0,0.0,0.0,0.0,0.0,0.0,0.0,0.0,0.0,0.0,0.0,0.0,0.0,0.0,0.0,0.0,0.0,0.0,0.0,0.0,0.0,0.0,0.0,0.0,0.0,0.0,0.0,0.0,0.0,0.0,0.0,0.0,0.0,0.0,0.0,0.0,0.0,0.0,0.0,0.0,0.0,0.0,0.0,0.0,0.0,0.0,0.0,0.0,0.0,0.0,0.0,0.0,0.0,0.0,0.0,0.0,0.0,0.0,0.0,0.0,0.0,0.0,0.0,0.0,0.0,0.0,0.0,0.0,0.0,0.0,0.0,0.0,0.0,0.0,0.0,0.0,0.0,0.0,0.0,0.0,0.0,0.0,0.0,0.0,0.0,0.0,0.0,0.0,0.0,0.0,0.0,0.0,0.0,0.0,0.0,0.0,0.0,0.0,0.0,0.0,0.0,0.0,0.0,0.0,0.0,0.0,0.0,0.0,0.0,0.0,0.0,0.0,0.0,0.0,0.0,0.0,0.0,0.0,0.0,0.0,0.0,0.0,0.0,0.0,0.0,0.0,0.0,0.0,0.0,0.0,0.0,0.0,0.0,0.0,0.0,0.0,0.0,0.0,0.0,0.0,0.0,0.0,0.0,0.0,0.0,0.0,0.0,0.0,0.0,0.0,0.0,0.0,0.0,0.0,0.0,0.0,0.0,0.0,0.0,0.0,0.0,0.0,0.0,0.0,0.0,0.0,0.0,0.0,0.0,0.0,0.0,0.0,0.0,0.0,0.0,0.0,0.0,0.0,0.0,0.0,0.0,0.0,0.0,0.0,0.0,-0.482,0.0,0.0,0.0,0.0,0.0,0.0,0.0,0.0,0.0,0.0,0.0,0.0,0.0,0.0,0.0,0.0,0.0,0.0,0.0,0.0,0.0,0.0,0.0,0.0,0.0,0.0,0.0,0.0,0.0,0.0,0.0,0.0,0.0,0.0,0.0,0.0,0.0,0.0,0.0,0.0,0.0,0.0,0.0,0.0,0.0,0.0,0.0,0.0,0.0,0.0,0.0,0.0,0.0,0.0,0.0,0.0,0.0,0.0,0.0,0.0,0.0,0.0,0.0,0.0,0.0,0.0,0.0,0.0,0.0,0.0,0.0,0.0,0.0,0.0,0.0,0.0,0.0,0.0,0.0,0.0,0.0,0.0,0.0,0.0,0.0,0.0,0.0,0.0,0.0,0.0,0.0,0.0,0.0,0.0,0.0,0.0,0.0,0.0,0.0,0.0,0.0,0.0,0.0,0.0,0.0,0.0,0.0,0.0,0.0,0.0,-0.5191,-0.5266,-0.5269,-0.5263,-0.5163,0.0,0.0,0.0,0.0,0.0,0.0,0.0,0.0,0.0,0.0,0.0,0.0,0.0,0.0,0.0,0.0,0.0,0.0,0.0,0.0,0.0,0.0,0.0,0.0,0.0,0.0,0.0,0.0,0.0,0.0,0.0,0.0,0.0,0.0,0.0,0.0,0.0,0.0,0.0,0.0,0.0,0.0,0.0,0.0,0.0,0.0,0.0,0.0,0.0,0.0,0.0,0.0,0.0,0.0,0.0,0.0,0.0,0.0,0.0,0.0,0.0,0.0,0.0,0.0,0.0,0.0,0.0,0.0,0.0,0.0,0.0,0.0,0.0,0.0,0.0,0.0,0.0,0.0,0.0,0.0,0.0,0.0,0.0,0.0,0.0,0.0,0.0,0.0,0.0,0.0,0.0,0.0,0.0,0.0,0.0,0.0,0.0,0.0,0.0,0.0,0.0,0.0,0.0,0.0,0.0,0.0,0.0,0.0,0.0,0.0,0.0,0.0,-0.568,-0.5576,-0.5533,0.0,0.0,0.0,0.0,0.0,0.0,0.0,0.0,0.0,0.0,0.0,0.0,0.0,0.0,0.0,0.0,0.0,0.0,0.0,0.0,0.0,0.0,0.0,0.0,0.0,0.0,0.0,0.0,0.0,0.0,0.0,0.0,0.0,0.0,0.0,0.0,0.0,0.0,0.0,0.0,0.0,0.0,0.0,0.0,0.0,0.0,0.0,0.0,0.0,0.0,0.0,0.0,0.0,0.0,0.0,0.0,0.0,0.0,0.0,0.0,0.0,0.0,0.0,0.0,0.0,0.0,0.0,0.0,0.0,0.0,0.0,0.0,0.0,0.0,0.0,0.0,0.0,0.0,0.0,0.0,0.0,0.0,0.0,0.0,0.0,0.0,0.0,0.0,0.0,0.0,0.0,0.0,0.0,0.0,0.0,0.0,0.0,0.0,0.0,0.0,0.0,0.0,0.0,0.0,0.0,0.0,0.0,0.0,0.0,0.0,-0.6601,-0.6365,-0.6357,0.0,-0.599,0.0,0.0,0.0,0.0,0.0,0.0,0.0,0.0,0.0,0.0,0.0,0.0,0.0,0.0,0.0,0.0,0.0,0.0,0.0,0.0,0.0,0.0,0.0,0.0,0.0,0.0,0.0,0.0,0.0,0.0,0.0,0.0,0.0,0.0,0.0,0.0,0.0,0.0,0.0,0.0,0.0,0.0,0.0,0.0,0.0,0.0,0.0,0.0,0.0,0.0,0.0,0.0,0.0,0.0,0.0,0.0,0.0,0.0,0.0,0.0,0.0,0.0,0.0,0.0,0.0,0.0,0.0,0.0,0.0,0.0,0.0,0.0,0.0,0.0,0.0,0.0,0.0,0.0,0.0,0.0,0.0,0.0,0.0,0.0,0.0,0.0,0.0,0.0,0.0,0.0,0.0,0.0,0.0,0.0,0.0,0.0,0.0,0.0,0.0,0.0,0.0,0.0,0.0,0.0,0.0,0.0,0.0,0.0,0.0,0.0,-0.7222,-0.7168,-0.6937,-0.6686,0.0,0.0,0.0,0.0,0.0,0.0,0.0,0.0,0.0,0.0,0.0,0.0,0.0,0.0,0.0,0.0,0.0,0.0,0.0,0.0,0.0,0.0,0.0,0.0,0.0,0.0,0.0,0.0,0.0,0.0,0.0,0.0,0.0,0.0,0.0,0.0,0.0,0.0,0.0,0.0,0.0,0.0,0.0,0.0,0.0,0.0,0.0,0.0,0.0,0.0,0.0,0.0,0.0,0.0,0.0,0.0,0.0,0.0,0.0,0.0,0.0,0.0,0.0,0.0,0.0,0.0,0.0,0.0,0.0,0.0,0.0,0.0,0.0,0.0,0.0,0.0,0.0,0.0,0.0,0.0,0.0,0.0,0.0,0.0,0.0,0.0,0.0,0.0,0.0,0.0,0.0,0.0,0.0,0.0,0.0,0.0,0.0,0.0,0.0,0.0,0.0,0.0,0.0,0.0,0.0,0.0,0.0,0.0,0.0,0.0,-0.798,-0.7929,-0.7868,-0.7472,-0.7216,-0.6999,0.0,0.0,0.0,0.0,0.0,0.0,0.0,0.0,0.0,0.0,0.0,0.0,0.0,0.0,0.0,0.0,0.0,0.0,0.0,0.0,0.0,0.0,0.0,0.0,0.0,0.0,0.0,0.0,0.0,0.0,0.0,0.0,0.0,0.0,0.0,0.0,0.0,0.0,0.0,0.0,0.0,0.0,0.0,0.0,0.0,0.0,0.0,0.0,0.0,0.0,0.0,0.0,0.0,0.0,0.0,0.0,0.0,0.0,0.0,0.0,0.0,0.0,0.0,0.0,0.0,0.0,0.0,0.0,0.0,0.0,0.0,0.0,0.0,0.0,0.0,0.0,0.0,0.0,0.0,0.0,0.0,0.0,0.0,0.0,0.0,0.0,0.0,0.0,0.0,0.0,0.0,0.0,0.0,0.0,0.0,0.0,0.0,0.0,0.0,0.0,0.0,0.0,0.0,0.0,0.0,0.0,0.0,0.0,-0.8644,-0.8864,-0.8833,-0.8382,-0.8117,-0.7878,0.0,0.0,0.0,0.0,0.0,0.0,0.0,0.0,0.0,0.0,0.0,0.0,0.0,0.0,0.0,0.0,0.0,0.0,0.0,0.0,0.0,0.0,0.0,0.0,0.0,0.0,0.0,0.0,0.0,0.0,0.0,0.0,0.0,0.0,0.0,0.0,0.0,0.0,0.0,0.0,0.0,0.0,0.0,0.0,0.0,0.0,0.0,0.0,0.0,0.0,0.0,0.0,0.0,0.0,0.0,0.0,0.0,0.0,0.0,0.0,0.0,0.0,0.0,0.0,0.0,0.0,0.0,0.0,0.0,0.0,0.0,0.0,0.0,0.0,0.0,0.0,0.0,0.0,0.0,0.0,0.0,0.0,0.0,0.0,0.0,0.0,0.0,0.0,0.0,0.0,0.0,0.0,0.0,0.0,0.0,0.0,0.0,0.0,0.0,0.0,0.0,0.0,0.0,0.0,0.0,0.0,0.0,0.0,0.0,-0.9667,-0.951,-0.9251,-0.8926,-0.8695,-0.8512,0.0,0.0,0.0,0.0,0.0,0.0,0.0,0.0,0.0,0.0,0.0,0.0,0.0,0.0,0.0,0.0,0.0,0.0,0.0,0.0,0.0,0.0,0.0,0.0,0.0,0.0,0.0,0.0,0.0,0.0,0.0,0.0,0.0,0.0,0.0,0.0,0.0,0.0,0.0,0.0,0.0,0.0,0.0,0.0,0.0,0.0,0.0,0.0,0.0,0.0,0.0,0.0,0.0,0.0,0.0,0.0,0.0,0.0,0.0,0.0,0.0,0.0,0.0,0.0,0.0,0.0,0.0,0.0,0.0,0.0,0.0,0.0,0.0,0.0,0.0,0.0,0.0,0.0,0.0,0.0,0.0,0.0,0.0,0.0,0.0,0.0,0.0,0.0,0.0,0.0,0.0,0.0,0.0,0.0,0.0,0.0,0.0,0.0,0.0,0.0,0.0,0.0,0.0,0.0,0.0,0.0,0.0,0.0,0.0,-1.0712,0.0,-1.0422,-1.0138,-0.9929,-0.969,0.0,0.0,0.0,0.0,0.0,0.0,0.0,0.0,0.0,0.0,0.0,0.0,0.0,0.0,0.0,0.0,0.0,0.0,0.0,0.0,0.0,0.0,0.0,0.0,0.0,0.0,0.0,0.0,0.0,0.0,0.0,0.0,0.0,0.0,0.0,0.0,0.0,0.0,0.0,0.0,0.0,0.0,0.0,0.0,0.0,0.0,0.0,0.0,0.0,0.0,0.0,0.0,0.0,0.0,0.0,0.0,0.0,0.0,0.0,0.0,0.0,0.0,0.0,0.0,0.0,0.0,0.0,0.0,0.0,0.0,0.0,0.0,0.0,0.0,0.0,0.0,0.0,0.0,0.0,0.0,0.0,0.0,0.0,0.0,0.0,0.0,0.0,0.0,0.0,0.0,0.0,0.0,0.0,0.0,0.0,0.0,0.0,0.0,0.0,0.0,0.0,0.0,0.0,0.0,0.0,0.0,0.0,0.0,-1.1312,-1.182,-1.2252,-1.2303,-1.2102,-1.1845,-1.1394,0.0,0.0,0.0,0.0,0.0,0.0,0.0,0.0,0.0,0.0,0.0,0.0,0.0,0.0,0.0,0.0,0.0,0.0,0.0,0.0,0.0,0.0,0.0,0.0,0.0,0.0,0.0,0.0,0.0,0.0,0.0,0.0,0.0,0.0,0.0,0.0,0.0,0.0,0.0,0.0,0.0,0.0,0.0,0.0,0.0,0.0,0.0,0.0,0.0,0.0,0.0,0.0,0.0,0.0,0.0,0.0,0.0,0.0,0.0,0.0,0.0,0.0,0.0,0.0,0.0,0.0,0.0,0.0,0.0,0.0,0.0,0.0,0.0,0.0,0.0,0.0,0.0,0.0,0.0,0.0,0.0,0.0,0.0,0.0,0.0,0.0,0.0,0.0,0.0,0.0,0.0,0.0,0.0,0.0,0.0,0.0,0.0,0.0,0.0,0.0,0.0,0.0,0.0,0.0,0.0,0.0,0.0,0.0,0.0,-1.3125,-1.3121,-1.3047,-1.2925,-1.2595,-1.2262,0.0,0.0,0.0,0.0,0.0,0.0,0.0,0.0,0.0,0.0,0.0,0.0,0.0,0.0,0.0,0.0,0.0,0.0,0.0,0.0,0.0,0.0,0.0,0.0,0.0,0.0,0.0,0.0,0.0,0.0,0.0,0.0,0.0,0.0,0.0,0.0,0.0,0.0,0.0,0.0,0.0,0.0,0.0,0.0,0.0,0.0,0.0,0.0,0.0,0.0,0.0,0.0,0.0,0.0,0.0,0.0,0.0,0.0,0.0,0.0,0.0,0.0,0.0,0.0,0.0,0.0,0.0,0.0,0.0,0.0,0.0,0.0,0.0,0.0,0.0,0.0,0.0,0.0,0.0,0.0,0.0,0.0,0.0,0.0,0.0,0.0,0.0,0.0,0.0,0.0,0.0,0.0,0.0,0.0,0.0,0.0,0.0,0.0,0.0,0.0,0.0,0.0,0.0,0.0,0.0,0.0,0.0,0.0,0.0,-1.5335,-1.4992,-1.4894,-1.5076,-1.45,-1.3984,-1.3543,0.0,0.0,0.0,0.0,0.0,0.0,0.0,0.0,0.0,0.0,0.0,0.0,0.0,0.0,0.0,0.0,0.0,0.0,0.0,0.0,0.0,0.0,0.0,0.0,0.0,0.0,0.0,0.0,0.0,0.0,0.0,0.0,0.0,0.0,0.0,0.0,0.0,0.0,0.0,0.0,0.0,0.0,0.0,0.0,0.0,0.0,0.0,0.0,0.0,0.0,0.0,0.0,0.0,0.0,0.0,0.0,0.0,0.0,0.0,0.0,0.0,0.0,0.0,0.0,0.0,0.0,0.0,0.0,0.0,0.0,0.0,0.0,0.0,0.0,0.0,0.0,0.0,0.0,0.0,0.0,0.0,0.0,0.0,0.0,0.0,0.0,0.0,0.0,0.0,0.0,0.0,0.0,0.0,0.0,0.0,0.0,0.0,0.0,0.0,0.0,0.0,0.0,0.0,0.0,0.0,0.0,0.0,0.0,-1.8157,-1.766,-1.7635,-1.8053,-1.7197,-1.6323,0.0,0.0,0.0,0.0,0.0,0.0,0.0,0.0,0.0,0.0,0.0,0.0,0.0,0.0,0.0,0.0,0.0,0.0,0.0,0.0,0.0,0.0,0.0,0.0,0.0,0.0,0.0,0.0,0.0,0.0,0.0,0.0,0.0,0.0,0.0,0.0,0.0,0.0,0.0,0.0,0.0,0.0,0.0,0.0,0.0,0.0,0.0,0.0,0.0,0.0,0.0,0.0,0.0,0.0,0.0,0.0,0.0,0.0,0.0,0.0,0.0,0.0,0.0,0.0,0.0,0.0,0.0,0.0,0.0,0.0,0.0,0.0,0.0,0.0,0.0,0.0,0.0,0.0,0.0,0.0,0.0,0.0,0.0,0.0,0.0,0.0,0.0,0.0,0.0,0.0,0.0,0.0,0.0,0.0,0.0,0.0,0.0,0.0,0.0,0.0,0.0,0.0,0.0,0.0,0.0,0.0,0.0,0.0,0.0,-1.9126,-1.9551,-1.9479,-1.8853,-1.7809,-1.7084,0.0,0.0,0.0,0.0,0.0,0.0,0.0,0.0,0.0,0.0,0.0,0.0,0.0,0.0,0.0,0.0,0.0,0.0,0.0,0.0,0.0,0.0,0.0,0.0,0.0,0.0,0.0,0.0,0.0,0.0,0.0,0.0,0.0,0.0,0.0,0.0,0.0,0.0,0.0,0.0,0.0,0.0,0.0,0.0,0.0,0.0,0.0,0.0,0.0,0.0,0.0,0.0,0.0,0.0,0.0,0.0,0.0,0.0,0.0,0.0,0.0,0.0,0.0,0.0,0.0,0.0,0.0,0.0,0.0,0.0,0.0,0.0,0.0,0.0,0.0,0.0,0.0,0.0,0.0,0.0,0.0,0.0,0.0,0.0,0.0,0.0,0.0,0.0,0.0,0.0,0.0,0.0,0.0,0.0,0.0,0.0,0.0,0.0,0.0,0.0,0.0,0.0,0.0,0.0,0.0,0.0,0.0,0.0,-1.9234,-2.0129,-2.0916,-2.1026,-2.0426,-1.928,-1.8406,0.0,0.0,0.0,0.0,0.0,0.0,0.0,0.0,0.0,0.0,0.0,0.0,0.0,0.0,0.0,0.0,0.0,0.0,0.0,0.0,0.0,0.0,0.0,0.0,0.0,0.0,0.0,0.0,0.0,0.0,0.0,0.0,0.0,0.0,0.0,0.0,0.0,0.0,0.0,0.0,0.0,0.0,0.0,0.0,0.0,0.0,0.0,0.0,0.0,0.0,0.0,0.0,0.0,0.0,0.0,0.0,0.0,0.0,0.0,0.0,0.0,0.0,0.0,0.0,0.0,0.0,0.0,0.0,0.0,0.0,0.0,0.0,0.0,0.0,0.0,0.0,0.0,0.0,0.0,0.0,0.0,0.0,0.0,0.0,0.0,0.0,0.0,0.0,0.0,0.0,0.0,0.0,0.0,0.0,0.0,0.0,0.0,0.0,0.0,0.0,0.0,0.0,0.0,0.0,0.0,0.0,0.0,0.0,-2.0097,-2.1026,-2.1782,-2.2197,-2.2197,-2.1002,-1.9919,0.0,0.0,0.0,0.0,0.0,0.0,0.0,0.0,0.0,0.0,0.0,0.0,0.0,0.0,0.0,0.0,0.0,0.0,0.0,0.0,0.0,0.0,0.0,0.0,0.0,0.0,0.0,0.0,0.0,0.0,0.0,0.0,0.0,0.0,0.0,0.0,0.0,0.0,0.0,0.0,0.0,0.0,0.0,0.0,0.0,0.0,0.0,0.0,0.0,0.0,0.0,0.0,0.0,0.0,0.0,0.0,0.0,0.0,0.0,0.0,0.0,0.0,0.0,0.0,0.0,0.0,0.0,0.0,0.0,0.0,0.0,0.0,0.0,0.0,0.0,0.0,0.0,0.0,0.0,0.0,0.0,0.0,0.0,0.0,0.0,0.0,0.0,0.0,0.0,0.0,0.0,0.0,0.0,0.0,0.0,0.0,0.0,0.0,0.0,0.0,0.0,0.0,0.0,0.0,0.0,0.0,0.0,0.0,-2.0262,-2.1133,-2.191,-2.2282,-2.2282,-2.1233,-2.0484,0.0,0.0,0.0,0.0,0.0,0.0,0.0,0.0,0.0,0.0,0.0,0.0,0.0,0.0,0.0,0.0,0.0,0.0,0.0,0.0,0.0,0.0,0.0,0.0,0.0,0.0,0.0,0.0,0.0,0.0,0.0,0.0,0.0,0.0,0.0,0.0,0.0,0.0,0.0,0.0,0.0,0.0,0.0,0.0,0.0,0.0,0.0,0.0,-1.2021,0.0,0.0,0.0,0.0,0.0,0.0,0.0,0.0,0.0,0.0,0.0,0.0,0.0,0.0,0.0,0.0,0.0,0.0,0.0,0.0,0.0,0.0,0.0,0.0,0.0,0.0,0.0,0.0,0.0,0.0,0.0,0.0,0.0,0.0,0.0,0.0,0.0,0.0,0.0,0.0,0.0,0.0,0.0,0.0,0.0,0.0,0.0,0.0,0.0,0.0,0.0,0.0,0.0,0.0,0.0,0.0,0.0,0.0,0.0,-2.0583,-2.1749,-2.2173,-2.2321,-2.2304,-2.1754,-2.1142,0.0,0.0,0.0,0.0,0.0,0.0,0.0,0.0,0.0,0.0,0.0,0.0,0.0,0.0,0.0,0.0,0.0,0.0,0.0,0.0,0.0,0.0,0.0,0.0,0.0,0.0,0.0,0.0,0.0,0.0,0.0,0.0,0.0,0.0,0.0,0.0,0.0,0.0,0.0,0.0,0.0,0.0,0.0,0.0,0.0,0.0,0.0,0.0,0.0,0.0,0.0,0.0,0.0,0.0,0.0,0.0,0.0,0.0,0.0,0.0,0.0,0.0,0.0,0.0,0.0,0.0,0.0,0.0,0.0,0.0,0.0,0.0,0.0,0.0,0.0,0.0,0.0,0.0,0.0,0.0,0.0,0.0,0.0,0.0,0.0,0.0,0.0,0.0,0.0,0.0,0.0,0.0,0.0,0.0,0.0,0.0,0.0,0.0,0.0,0.0,0.0,0.0,0.0,0.0,0.0,0.0,0.0,-2.015,-2.0925,-2.2473,-2.246,-2.2449,-2.2432,-2.2282,-2.1714,-2.0693,0.0,0.0,0.0,0.0,0.0,0.0,0.0,0.0,0.0,0.0,0.0,0.0,0.0,0.0,0.0,0.0,0.0,0.0,0.0,0.0,0.0,0.0,0.0,0.0,0.0,0.0,0.0,0.0,0.0,0.0,0.0,0.0,0.0,0.0,0.0,0.0,0.0,0.0,-1.2299,-1.3292,0.0,0.0,0.0,0.0,0.0,0.0,0.0,0.0,-1.2566,0.0,0.0,0.0,0.0,0.0,0.0,0.0,0.0,0.0,0.0,0.0,0.0,0.0,0.0,0.0,0.0,0.0,0.0,0.0,0.0,0.0,0.0,0.0,0.0,0.0,0.0,0.0,0.0,0.0,0.0,0.0,0.0,0.0,0.0,0.0,0.0,0.0,0.0,0.0,0.0,0.0,0.0,0.0,0.0,0.0,0.0,0.0,0.0,0.0,0.0,0.0,0.0,0.0,0.0,0.0,0.0,-2.0247,-2.0323,-2.1148,-2.2782,-2.2623,-2.2497,-2.2569,-2.2338,-2.1815,-2.0954,0.0,0.0,0.0,0.0,0.0,0.0,0.0,0.0,0.0,0.0,0.0,0.0,0.0,0.0,0.0,0.0,0.0,0.0,0.0,0.0,0.0,0.0,0.0,0.0,0.0,0.0,0.0,0.0,0.0,0.0,0.0,0.0,0.0,0.0,0.0,0.0,0.0,0.0,0.0,-1.363,-1.4201,0.0,0.0,0.0,0.0,0.0,0.0,0.0,0.0,-1.3119,0.0,0.0,0.0,0.0,0.0,0.0,0.0,0.0,0.0,0.0,0.0,0.0,0.0,0.0,0.0,0.0,0.0,0.0,0.0,0.0,0.0,0.0,0.0,0.0,0.0,0.0,0.0,0.0,0.0,0.0,0.0,0.0,0.0,0.0,0.0,0.0,0.0,0.0,0.0,0.0,0.0,0.0,0.0,0.0,0.0,0.0,0.0,0.0,0.0,0.0,0.0,0.0,0.0,0.0,0.0,-1.9826,-2.0295,-2.1101,-2.2293,-2.2479,-2.2569,-2.2542,-2.2349,-2.1872,0.0,0.0,0.0,0.0,0.0,0.0,0.0,0.0,0.0,0.0,0.0,0.0,0.0,0.0,0.0,0.0,0.0,0.0,0.0,0.0,0.0,0.0,0.0,0.0,0.0,0.0,0.0,0.0,0.0,0.0,0.0,0.0,0.0,0.0,0.0,0.0,0.0,0.0,0.0,0.0,-1.4059,-1.4338,-1.4433,0.0,0.0,0.0,0.0,0.0,0.0,-1.4733,-1.4507,0.0,0.0,0.0,0.0,0.0,0.0,0.0,0.0,0.0,0.0,0.0,0.0,0.0,0.0,0.0,0.0,0.0,0.0,0.0,0.0,0.0,0.0,0.0,0.0,0.0,0.0,0.0,0.0,0.0,0.0,0.0,0.0,0.0,0.0,0.0,0.0,0.0,0.0,0.0,0.0,0.0,0.0,0.0,0.0,0.0,0.0,0.0,0.0,0.0,0.0,0.0,0.0,0.0,0.0,0.0,-1.9545,-2.0144,-2.0825,-2.1622,-2.1986,-2.2133,-2.2063,-2.1936,-2.1566,0.0,0.0,0.0,0.0,0.0,0.0,0.0,0.0,0.0,0.0,0.0,0.0,0.0,0.0,0.0,0.0,0.0,0.0,0.0,0.0,0.0,0.0,0.0,0.0,0.0,0.0,0.0,0.0,0.0,0.0,0.0,0.0,0.0,0.0,0.0,0.0,0.0,0.0,0.0,0.0,0.0,-1.4462,-1.4512,-1.5314,0.0,0.0,0.0,0.0,-1.6531,-1.6009,0.0,0.0,0.0,0.0,0.0,0.0,0.0,0.0,0.0,0.0,0.0,0.0,0.0,0.0,0.0,0.0,0.0,0.0,0.0,0.0,0.0,0.0,0.0,0.0,0.0,0.0,0.0,0.0,0.0,0.0,0.0,0.0,0.0,0.0,0.0,0.0,0.0,0.0,0.0,0.0,0.0,0.0,0.0,0.0,0.0,0.0,0.0,0.0,0.0,0.0,0.0,0.0,0.0,0.0,0.0,0.0,-1.981,-1.9877,-2.0285,-2.1021,-2.0825,-2.0629,-2.0546,-2.0415,-2.034,0.0,0.0,0.0,0.0,0.0,0.0,0.0,0.0,0.0,0.0,0.0,0.0,0.0,0.0,0.0,0.0,0.0,0.0,0.0,0.0,0.0,0.0,0.0,0.0,0.0,0.0,0.0,0.0,0.0,0.0,0.0,0.0,0.0,0.0,0.0,0.0,0.0,0.0,0.0,0.0,0.0,-1.4589,-1.4592,-1.5336,-1.5919,0.0,0.0,-1.7263,-1.7349,-1.7341,0.0,0.0,0.0,0.0,0.0,0.0,0.0,0.0,0.0,0.0,0.0,0.0,0.0,0.0,0.0,0.0,0.0,0.0,0.0,0.0,0.0,0.0,0.0,0.0,0.0,0.0,0.0,0.0,0.0,0.0,0.0,0.0,0.0,0.0,0.0,0.0,0.0,0.0,0.0,0.0,0.0,0.0,0.0,0.0,0.0,0.0,0.0,0.0,0.0,0.0,0.0,0.0,0.0,0.0,0.0,-1.8768,-1.9249,-1.9611,-1.9929,-2.0199,-2.031,-2.0305,-2.0243,-2.0135,-2.0331,0.0,0.0,0.0,0.0,0.0,0.0,0.0,0.0,0.0,0.0,0.0,0.0,0.0,0.0,0.0,0.0,0.0,0.0,0.0,0.0,0.0,0.0,0.0,0.0,0.0,0.0,0.0,0.0,0.0,0.0,0.0,0.0,0.0,0.0,0.0,0.0,0.0,0.0,0.0,0.0,0.0,0.0,-1.6005,-1.6365,0.0,0.0,0.0,-1.8154,-1.8241,0.0,0.0,0.0,0.0,0.0,0.0,0.0,0.0,0.0,0.0,0.0,0.0,0.0,0.0,0.0,0.0,0.0,0.0,0.0,0.0,0.0,0.0,0.0,0.0,0.0,0.0,0.0,0.0,0.0,0.0,0.0,0.0,0.0,0.0,0.0,0.0,0.0,0.0,0.0,0.0,0.0,0.0,0.0,0.0,0.0,0.0,0.0,0.0,0.0,0.0,0.0,0.0,0.0,0.0,0.0,0.0,0.0,-1.8787,-1.925,-1.9438,-1.9286,-1.9589,-1.9709,-1.9641,-1.9624,0.0,0.0,0.0,0.0,0.0,0.0,0.0,0.0,0.0,0.0,0.0,0.0,0.0,0.0,0.0,0.0,0.0,0.0,0.0,0.0,0.0,0.0,0.0,0.0,0.0,0.0,0.0,-0.7792,0.0,0.0,0.0,0.0,0.0,0.0,0.0,0.0,0.0,0.0,0.0,0.0,0.0,0.0,-1.6541,-1.7123,-1.7323,-1.7683,0.0,0.0,-1.9018,-1.9087,-1.9218,-1.9276,0.0,0.0,0.0,0.0,0.0,0.0,0.0,0.0,0.0,0.0,0.0,0.0,0.0,0.0,0.0,0.0,0.0,0.0,0.0,0.0,0.0,0.0,0.0,0.0,0.0,0.0,0.0,0.0,0.0,0.0,0.0,0.0,0.0,0.0,0.0,0.0,0.0,0.0,0.0,0.0,0.0,0.0,0.0,0.0,0.0,0.0,0.0,0.0,0.0,0.0,0.0,0.0,0.0,0.0,0.0,-1.8697,-1.8672,-1.8608,-1.8493,-1.8322,-1.8224,-1.8159,-1.8154,-1.8904,0.0,0.0,0.0,0.0,0.0,0.0,0.0,0.0,0.0,0.0,0.0,0.0,0.0,0.0,0.0,0.0,0.0,0.0,0.0,0.0,0.0,0.0,0.0,0.0,0.0,0.0,0.0,0.0,0.0,0.0,0.0,0.0,0.0,0.0,0.0,0.0,0.0,0.0,0.0,0.0,0.0,-1.7224,-1.7188,-1.7844,-1.836,0.0,0.0,-1.9842,-1.9896,-2.0031,-2.0105,-2.0115,0.0,0.0,0.0,0.0,0.0,0.0,0.0,0.0,0.0,0.0,0.0,0.0,0.0,0.0,0.0,0.0,0.0,0.0,0.0,0.0,0.0,0.0,0.0,0.0,0.0,0.0,0.0,0.0,0.0,0.0,0.0,0.0,0.0,0.0,0.0,0.0,0.0,0.0,0.0,0.0,0.0,0.0,0.0,0.0,0.0,0.0,0.0,0.0,0.0,0.0,0.0,0.0,0.0,-1.8542,-1.8623,-1.8555,-1.8473,-1.8328,-1.8138,-1.8044,-1.8,-1.8,-1.8567,0.0,0.0,0.0,0.0,0.0,0.0,0.0,0.0,0.0,0.0,0.0,0.0,0.0,0.0,0.0,0.0,0.0,0.0,0.0,0.0,0.0,0.0,0.0,0.0,0.0,0.0,0.0,0.0,-0.6242,-0.5619,-0.6127,0.0,0.0,0.0,0.0,0.0,0.0,0.0,0.0,0.0,0.0,-1.8308,-1.873,-1.8638,0.0,0.0,-1.9639,-1.9936,-1.999,-2.0079,-2.0145,-2.0145,-2.0182,0.0,0.0,0.0,0.0,0.0,0.0,0.0,0.0,0.0,0.0,0.0,0.0,0.0,0.0,0.0,0.0,0.0,0.0,0.0,0.0,0.0,0.0,0.0,0.0,0.0,0.0,0.0,0.0,0.0,0.0,0.0,0.0,0.0,0.0,0.0,0.0,0.0,0.0,0.0,0.0,0.0,0.0,0.0,0.0,0.0,0.0,0.0,0.0,0.0,0.0,0.0,0.0,-1.8623,-1.8526,-1.847,-1.8388,-1.8284,-1.8095,-1.8005,-1.8027,-1.8005,-1.8435,0.0,0.0,0.0,0.0,0.0,0.0,0.0,0.0,0.0,0.0,0.0,0.0,0.0,0.0,0.0,0.0,0.0,0.0,0.0,0.0,0.0,0.0,0.0,0.0,0.0,0.0,0.0,0.0,-0.7171,-0.6956,-0.8256,0.0,0.0,0.0,0.0,0.0,0.0,0.0,0.0,0.0,0.0,-1.9271,-1.9767,-1.9531,-1.9507,-2.0045,-2.0395,-2.0618,-2.0672,-2.0758,-2.0781,-2.0783,0.0,0.0,0.0,0.0,0.0,0.0,0.0,0.0,0.0,0.0,0.0,0.0,0.0,0.0,0.0,0.0,0.0,0.0,0.0,0.0,0.0,0.0,0.0,0.0,0.0,0.0,0.0,0.0,0.0,0.0,-1.5659,0.0,0.0,0.0,0.0,0.0,0.0,0.0,0.0,0.0,0.0,0.0,0.0,0.0,0.0,0.0,0.0,0.0,0.0,0.0,0.0,0.0,0.0,-1.9006,-1.8328,-1.8329,-1.8284,-1.8211,-1.8065,-1.8027,-1.8091,-1.8027,-1.8478,-1.9524,0.0,0.0,0.0,0.0,0.0,0.0,0.0,0.0,0.0,0.0,0.0,0.0,0.0,0.0,0.0,0.0,0.0,0.0,0.0,0.0,0.0,0.0,0.0,0.0,0.0,0.0,-0.9049,-0.8356,-0.8574,0.0,0.0,0.0,0.0,0.0,0.0,0.0,0.0,0.0,0.0,-2.003,-1.9941,-1.9926,-2.0502,-2.087,-2.088,-2.1587,-2.2159,-2.22,-2.2267,-2.2357,0.0,0.0,0.0,0.0,0.0,0.0,0.0,0.0,0.0,0.0,0.0,0.0,0.0,0.0,0.0,0.0,0.0,0.0,0.0,0.0,0.0,0.0,0.0,0.0,0.0,0.0,0.0,-1.9305,-1.9769,0.0,0.0,0.0,0.0,0.0,0.0,0.0,0.0,0.0,0.0,0.0,-2.0301,-2.0356,0.0,0.0,0.0,0.0,0.0,0.0,0.0,0.0,0.0,0.0,0.0,0.0,-1.9152,-1.9009,-1.8512,-1.8253,-1.8263,-1.8194,-1.819,-1.8215,-1.8172,-1.8357,-1.879,0.0,0.0,0.0,0.0,0.0,0.0,0.0,0.0,0.0,0.0,0.0,0.0,0.0,0.0,0.0,0.0,0.0,0.0,0.0,0.0,0.0,0.0,0.0,0.0,0.0,-0.8904,0.0,0.0,0.0,0.0,0.0,0.0,0.0,0.0,0.0,0.0,0.0,-2.0145,-2.0117,-2.005,-2.019,-2.0672,-2.0897,-2.1164,0.0,0.0,0.0,0.0,0.0,0.0,0.0,0.0,0.0,0.0,0.0,0.0,0.0,0.0,-2.0834,-2.0441,-1.9935,-1.9552,-1.957,0.0,0.0,0.0,0.0,0.0,0.0,0.0,0.0,0.0,0.0,0.0,0.0,0.0,0.0,-2.2474,0.0,-2.2194,0.0,0.0,0.0,0.0,0.0,0.0,0.0,0.0,-2.1048,-2.1561,-2.2099,-2.2099,-2.2212,0.0,-2.2505,-2.1866,0.0,0.0,0.0,0.0,0.0,0.0,0.0,0.0,-1.9668,-1.9314,-1.8849,-1.8495,-1.8307,-1.8243,-1.8277,-1.8339,-1.8339,-1.8363,-1.8465,-1.8622,-1.8696,0.0,0.0,0.0,0.0,0.0,0.0,0.0,0.0,0.0,0.0,0.0,0.0,0.0,0.0,0.0,0.0,0.0,0.0,0.0,0.0,0.0,0.0,0.0,-0.9052,0.0,0.0,0.0,0.0,0.0,0.0,0.0,0.0,0.0,-2.0097,-2.0413,-2.0604,-2.0518,-2.0716,-2.1043,-2.1512,0.0,0.0,0.0,0.0,0.0,0.0,0.0,-2.2943,-2.3045,-2.3074,-2.3107,-2.3154,-2.3136,-2.3098,-2.3136,0.0,0.0,-2.2045,-2.1558,-2.1245,-2.1266,-2.1756,-2.2177,-2.2213,-2.262,-2.3007,0.0,0.0,0.0,0.0,0.0,0.0,0.0,0.0,-2.6256,-2.5893,0.0,-2.5161,0.0,0.0,0.0,0.0,0.0,-2.1628,0.0,0.0,-2.3871,-2.4337,-2.4365,-2.4349,-2.4042,-2.346,-2.3393,-2.3021,-2.2299,-2.2101,0.0,0.0,0.0,0.0,0.0,0.0,-2.0577,-1.935,-1.9338,-1.9013,-1.845,-1.8363,-1.8383,-1.8406,-1.854,-1.86,-1.8622,-1.8788,-1.8896,-1.8914,-1.9572,0.0,0.0,0.0,0.0,0.0,0.0,0.0,0.0,0.0,0.0,0.0,0.0,0.0,0.0,0.0,0.0,0.0,0.0,0.0,0.0,-0.8317,0.0,0.0,0.0,0.0,0.0,0.0,0.0,0.0,0.0,0.0,-2.044,-2.0928,-2.1434,-2.1355,0.0,0.0,0.0,0.0,-2.3366,-2.3256,-2.3892,-2.4339,-2.4284,-2.4321,-2.4374,-2.4441,0.0,0.0,-2.458,-2.458,-2.4508,-2.4493,-2.3883,-2.3272,-2.2783,-2.2688,-2.2721,-2.2811,-2.2893,-2.3021,-2.3036,-2.3153,-2.3223,-3.2469,0.0,0.0,0.0,0.0,-2.8073,-2.8177,-2.8686,-2.8206,-2.8193,-2.8373,-2.7353,0.0,0.0,0.0,0.0,0.0,0.0,-2.3785,-2.4034,-2.4298,-2.4444,-2.4492,-2.4492,-2.4374,-2.4154,-2.363,-2.3291,-2.3054,-2.249,-2.222,-2.222,0.0,0.0,0.0,0.0,-2.1053,-2.0755,-2.0264,-2.0039,-2.0074,-1.9615,-1.9129,-1.8639,-1.862,-1.8622,-1.8678,-1.8807,-1.8931,-1.8985,-2.0189,0.0,0.0,0.0,0.0,0.0,0.0,0.0,0.0,0.0,0.0,0.0,0.0,0.0,0.0,0.0,0.0,0.0,0.0,0.0,-0.674,-0.8271,-1.0579,0.0,0.0,0.0,0.0,0.0,0.0,0.0,0.0,0.0,-2.1789,-2.1992,-2.2178,0.0,0.0,-2.2563,-2.3088,-2.3244,-2.3491,-2.4003,-2.4173,0.0,-2.4229,-2.4229,-2.4303,-2.4411,-2.4465,-2.4465,-2.4446,-2.4429,-2.4375,-2.4357,-2.4241,-2.4148,-2.4011,-2.3213,-2.269,-2.2774,-2.3292,-2.3782,-2.3874,-2.4326,-2.4772,-3.6249,-3.352,-3.2395,-3.1943,-3.1909,-3.1515,-3.1623,-3.2001,-3.1301,-3.1083,-3.1133,-2.9669,-2.8572,-2.7796,-2.6721,0.0,0.0,0.0,-2.5882,-2.6235,-2.6268,-2.6099,-2.5812,-2.5812,-2.549,-2.4915,-2.4171,-2.3663,-2.3393,-2.2665,-2.2327,-2.2327,0.0,0.0,-2.2293,-2.1854,-2.1579,-2.1395,-2.0984,-2.0789,-2.0829,-2.0238,-1.9715,-1.9271,-1.8894,-1.8734,-1.8789,-1.8913,-1.9,-1.907,-2.0554,-2.113,0.0,0.0,0.0,0.0,0.0,0.0,0.0,0.0,0.0,0.0,0.0,-1.6201,-1.6185,0.0,0.0,0.0,-0.9729,-0.7979,-0.7237,-0.9369,0.0,0.0,0.0,0.0,0.0,0.0,0.0,-2.3277,-2.3309,-2.3295,-2.3286,-2.3291,-2.3199,-2.2879,-2.2773,-2.2905,-2.3349,0.0,-2.2924,-2.3323,-2.3289,-2.3235,-2.3253,-2.3511,-2.386,-2.4266,-2.4303,-2.4321,-2.4321,-2.4284,-2.4266,-2.4266,-2.4339,-2.441,-2.4513,-2.3855,-2.3411,-2.3605,-2.4111,-2.4552,-2.4634,-2.5076,-2.5459,-3.9377,-3.7956,-3.632,-3.5618,-3.5534,-3.5643,-3.5672,-3.5605,-3.4884,-3.4218,-3.3491,-3.2036,-3.0864,-2.9905,-2.8471,0.0,-2.7784,-2.782,-2.821,-2.9011,-2.9011,-2.8569,-2.7806,-2.7772,-2.7063,-2.5676,-2.4864,-2.4167,-2.3477,-2.2682,-2.2327,-2.2327,-2.2327,-2.2327,-2.2395,-2.2395,-2.2112,-2.1583,-2.1644,-2.1461,-2.1021,-2.0537,-2.0279,-2.0191,-1.9435,-1.9004,-1.9003,-1.9071,-1.912,-1.9261,-2.068,-2.1515,-2.1532,0.0,0.0,0.0,0.0,0.0,0.0,0.0,0.0,0.0,0.0,0.0,0.0,0.0,0.0,0.0,-1.0248,0.0,-0.902,-1.1377,0.0,0.0,0.0,-2.2007,-2.3353,-2.4176,-2.4707,-2.4757,0.0,0.0,-2.4599,-2.4582,-2.4332,-2.3641,-2.3484,-2.3332,-2.321,-2.2495,-2.1935,-2.1907,-2.1909,-2.1929,-2.217,-2.2648,-2.329,-2.3916,-2.4044,-2.3916,-2.3916,-2.4044,-2.4061,-2.4043,-2.4154,-2.4247,-2.4375,-2.4456,-2.4685,-2.4911,-2.5065,-2.5173,-2.5235,-2.5303,-2.5389,-4.0409,-3.9529,-3.9125,-3.8331,-3.727,-3.7317,-3.7317,-3.7199,-3.5926,-3.5267,-3.4996,-3.3541,-3.2154,-3.083,-2.9897,-2.9225,-2.8704,-2.8721,-2.8805,-2.8975,-2.9011,-2.8569,-2.7806,-2.7789,-2.7299,-2.6387,-2.5133,-2.4421,-2.4201,-2.2936,-2.2327,-2.2327,-2.2327,-2.2581,-2.3105,-2.3139,-2.3095,-2.3011,-2.3134,-2.2781,-2.2003,-2.2003,-2.1745,-2.1186,-2.0391,-1.9939,-1.9885,-1.9377,-1.9406,-2.0076,-2.1078,-2.1935,-2.2501,-2.3148,0.0,0.0,0.0,0.0,0.0,0.0,0.0,0.0,0.0,-1.9525,-2.0063,0.0,-1.6733,0.0,-1.2664,-1.1207,-1.2077,-1.408,0.0,0.0,-2.1193,-2.2832,-2.4109,-2.4418,-2.4545,-2.4561,-2.4528,-2.4478,-2.4446,-2.4447,-2.4355,-2.4132,-2.3592,-2.3015,-2.2404,-2.2046,-2.185,-2.1854,-2.2297,-2.2685,-2.2703,-2.2868,-2.3052,-2.3235,-2.2795,-2.239,-2.2372,-2.2887,-2.3272,-2.3327,-2.3823,-2.4174,-2.4358,-2.4462,-2.4578,-2.4764,-2.4929,-2.508,-2.5198,-2.5231,-2.5241,-4.0764,-4.0087,-4.0087,-3.9597,-3.8886,-3.8886,-3.8684,-3.8294,-3.7144,-3.6451,-3.6045,-3.4539,-3.3068,-3.1681,-3.1258,-3.0666,-2.9989,-2.9973,-2.9973,-2.9973,-2.9956,-2.9377,-2.8345,-2.833,-2.7757,-2.6657,-2.5217,-2.4523,-2.4421,-2.3021,-2.2327,-2.2327,-2.2327,-2.2665,-2.3359,-2.3393,-2.3439,-2.351,-2.3405,-2.3187,-2.2852,-2.265,-2.2397,-2.2041,-2.1261,-2.0825,-2.077,-2.0372,-2.0388,-2.0897,-2.1753,-2.2411,-2.283,-2.3557,-2.3735,0.0,0.0,0.0,0.0,0.0,0.0,0.0,0.0,0.0,0.0,0.0,-1.8287,-1.6896,-1.5326,-1.4746,-1.5605,-1.7271,-1.9154,-2.117,-2.2526,-2.3584,-2.4355,-2.4445,-2.4445,-2.4464,-2.441,-2.4338,-2.4303,-2.4321,-2.4155,-2.3787,-2.3381,-2.2955,-2.2528,-2.2073,-2.18,-2.1801,-2.217,-2.2611,-2.2923,-2.2685,-2.2593,-2.2868,-2.2336,-2.1785,-2.1803,-2.2152,-2.2575,-2.296,-2.3382,-2.3824,-2.4192,-2.4357,-2.4462,-2.4561,-2.4719,-2.4861,-2.5019,-2.5118,-2.5153,-4.0781,-4.0087,-4.0087,-4.0087,-4.0087,-3.9986,-3.958,-3.8937,-3.8227,-3.7432,-3.6535,-3.5216,-3.3812,-3.2483,-3.2425,-3.1968,-3.1207,-3.119,-3.119,-3.119,-3.119,-3.0458,-2.9168,-2.9039,-2.8249,-2.6809,-2.5353,-2.4608,-2.4472,-2.3105,-2.2395,-2.2327,-2.2327,-2.2682,-2.3376,-2.3393,-2.3473,-2.3629,-2.3223,-2.3133,-2.3458,-2.2926,-2.2715,-2.2805,-2.2077,-2.1658,-2.1658,-2.1551,-2.1534,-2.1679,-2.2446,-2.2922,-2.2975,-2.3708,-2.4074,0.0,-2.3359,0.0,0.0,0.0,0.0,0.0,0.0,0.0,0.0,-2.0822,-1.9477,-1.7957,-1.799,-1.8403,-1.9144,-2.0442,-2.1619,-2.2614,-2.3541,-2.4192,-2.4376,-2.4358,-2.4376,-2.4376,-2.4321,-2.4266,-2.4229,-2.4192,-2.3915,-2.3382,-2.3254,-2.3235,-2.3088,-2.239,-2.1803,-2.1803,-2.1894,-2.2354,-2.2795,-2.2354,-2.2006,-2.2464,-2.1877,-2.1527,-2.1399,-2.1528,-2.1877,-2.263,-2.296,-2.3309,-2.4044,-2.4229,-2.4321,-2.4391,-2.4495,-2.466,-2.4837,-2.4961,-2.5044,-4.0764,-4.0087,-4.0087,-4.0087,-4.0087,-3.9445,-3.9106,-3.8937,-3.8227,-3.7127,-3.5842,-3.5537,-3.459,-3.3237,-3.3186,-3.2476,-3.1207,-3.119,-3.119,-3.119,-3.119,-3.0738,-2.9895,-2.9282,-2.8523,-2.7538,-2.6097,-2.5084,-2.4489,-2.3613,-2.2885,-2.2327,-2.2327,-2.2682,-2.3359,0.0,0.0,0.0,-2.3456,-2.3028,-2.3247,-2.3401,-2.3505,-2.3572,-2.2857,0.0,-2.2455,-2.1841,-2.1807,-2.2424,-2.2738,0.0,0.0,0.0,0.0,0.0,0.0,0.0,0.0,0.0,0.0,0.0,-2.3785,-2.3675,-2.3599,-2.2483,-2.1292,-2.0275,-2.0205,-2.0565,-2.1472,-2.1977,-2.2689,-2.3668,-2.4041,-2.4228,-2.4303,-2.4266,-2.4229,-2.4229,-2.4228,-2.4209,-2.4209,-2.4209,-2.4154,-2.3951,-2.3969,-2.3969,-2.3952,-2.2758,-2.1858,-2.1839,-2.2391,-2.2813,-2.2997,-2.2354,-2.162,-2.1106,-2.0299,-1.9874,-1.9892,-2.0391,-2.1051,-2.1896,-2.2575,-2.3254,-2.4044,-2.421,-2.4247,-2.4321,-2.4393,-2.4498,-2.4707,-2.4802,-2.4861,-4.0426,0.0,-4.0087,-4.0087,0.0,-3.9309,-3.8785,-3.8396,-3.7669,-3.6705,-3.5639,-3.5639,-3.4793,-3.3389,-3.3389,-3.2594,-3.119,-3.119,-3.119,-3.119,-3.119,-3.0796,-3.0065,-2.9347,-2.8591,-2.7759,-2.6316,-2.5423,-2.5017,-2.4289,-2.3562,-2.2835,-2.2852,-2.2852,-2.2852,-2.2937,-2.3351,-2.4142,-2.3298,-2.2977,-2.3241,-2.3476,-2.3678,-2.3813,-2.3495,0.0,0.0,0.0,0.0,0.0,0.0,0.0,0.0,-2.4132,0.0,-2.4151,-2.4113,-2.4112,-2.4094,-2.4132,-2.4151,-2.4151,-2.417,-2.417,-2.4094,-2.3476,-2.2878,-2.2378,-2.2342,-2.2527,-2.3025,-2.3256,-2.3576,-2.4078,-2.417,-2.4209,-2.4228,-2.4228,-2.4209,-2.4209,-2.4209,-2.419,-2.419,-2.419,-2.419,-2.419,-2.419,-2.419,-2.4153,-2.3529,-2.2978,-2.2978,-2.329,-2.3602,-2.3492,-2.2538,-2.1711,-2.1125,-2.0115,-1.9396,-1.9286,-1.962,-2.0317,-2.1492,-2.2152,-2.2776,-2.3897,-2.4209,-2.4209,-2.4247,-2.4284,-2.4321,-2.4444,-2.4545,-2.466,-4.0087,-4.0087,-4.0087,-4.0087,-4.002,-3.9174,-3.8311,-3.7466,0.0,0.0,0.0,-3.5639,-3.4861,-3.3609,-3.3474,-3.2662,-3.141,-3.1258,-3.119,-3.119,-3.119,-3.0875,-3.0286,-2.9391,-2.8677,-2.7946,-2.6503,-2.5727,-2.5592,-2.4983,-2.4306,-2.363,-2.3477,-2.3054,-2.2361,-2.2432,-2.2822,-2.338,-2.3066,-2.2995,-2.3307,-2.3453,-2.3638,-2.3876,-2.3878,-2.3937,-2.3996,-2.3978,-2.3978,-2.3978,-2.4074,-2.4112,-2.4112,-2.417,-2.419,-2.419,-2.419,-2.419,-2.419,-2.419,-2.419,-2.419,-2.419,-2.417,-2.4113,-2.4074,-2.3996,-2.3976,-2.3937,-2.3958,-2.4036,-2.4094,-2.4151,-2.419,-2.419,-2.419,-2.419,-2.419,-2.419,-2.419,-2.419,-2.419,-2.419,-2.419,-2.419,-2.419,-2.419,-2.419,-2.419,-2.4135,-2.4043,-2.4061,-2.4061,-2.4116,-2.3823,-2.296,-2.1969,-2.1455,-2.0372,-1.951,-1.9344,-1.9418,-2.0115,-2.1528,-2.1877,-2.2648,-2.3859,-2.419,-2.419,-2.419,-2.419,-2.421,-2.4229,-2.4321,-2.4461,-4.0087,-4.0087,-4.0087,-4.0087,-3.9969,-3.8633,-3.7263,-3.596,-3.5842,-3.5723,-3.5639,-3.5639,-3.5148,-3.4303,-3.3694,-3.2949,-3.2104,-3.1461,-3.119,-3.119,-3.119,-3.1157,-3.0965,-2.9634,-2.8917,-2.8715,-2.7266,-2.6218,-2.5659,-2.549,-2.5067,-2.4371,-2.3697,-2.3038,-2.2361,-2.2422,-2.2583,-2.2733,-2.2894,-2.3095,-2.3313,-2.3544,-2.3721,-2.3816,-2.3917,-2.3996,-2.3978,-2.3978,-2.3978,-2.3978,-2.4074,-2.4112,-2.4094,-2.417,-2.419,-2.419,-2.419,-2.419,-2.419,-2.419,-2.419,-2.419,-2.419,-2.4208,-2.419,-2.417,-2.417,-2.4151,-2.4151,-2.4151,-2.4189,-2.417,-2.419,-2.4208,-2.419,-2.419,-2.419,-2.419,-2.419,-2.419,-2.419,-2.419,-2.419,-2.419,-2.419,-2.419,-2.419,-2.419,-2.419,-2.419,-2.419,-2.419,-2.419,-2.3914,-2.3456,-2.307,-2.2281,-2.0886,-2.0611,-2.0152,-1.9599,-1.9968,-2.0721,-2.1639,-2.2336,-2.3107,-2.4025,-2.419,-2.419,-2.419,-2.4209,-2.4209,-2.4209,-2.4247,-2.4284,-4.0087,-4.0087,-4.0087,-4.0087,-4.0003,-3.8937,-3.7872,-3.6857,-3.6417,-3.5994,-3.5639,-3.5639,-3.5216,-3.4489,-3.415,-3.3372,-3.2297,-3.1935,-3.1562,-3.1207,-3.119,-3.119,-3.1055,-2.9668,-2.8987,-2.8886,-2.7419,-2.6522,-2.6218,-2.6201,-2.5812,-2.5084,-2.4357,-2.363,-2.2953,-2.3028,-2.2976,-2.2712,-2.291,-2.3109,-2.336,-2.3567,-2.3768,-2.3896,-2.4016,-2.4074,-2.4113,-2.4113,-2.4113,-2.4132,-2.4151,-2.4151,-2.4151,-2.417,-2.419,-2.419,-2.419,-2.419,-2.419,-2.419,-2.419,-2.419,-2.419,-2.419,-2.419,-2.419,-2.419,-2.419,-2.419,-2.419,-2.419,-2.419,-2.419,-2.419,-2.419,-2.419,-2.419,-2.419,-2.419,-2.419,-2.419,-2.419,-2.419,-2.419,-2.419,-2.419,-2.419,-2.419,-2.419,-2.419,-2.419,-2.419,-2.419,-2.4061,-2.3676,-2.3272,-2.2685,-2.1933,-2.1492,-2.1106,-2.0703,-2.1015,-2.151,-2.2244,-2.2795,-2.329,-2.4043,-2.419,-2.419,-2.419,-2.419,-2.419,-2.419,-2.419,-2.4228,-4.0087,-4.0087,-4.0087,-3.9986,-3.98,-3.9242,-3.8565,-3.7872,-3.728,-3.6603,-3.591,-3.5707,-3.5284,-3.4759,-3.4573,-3.3863,-3.2831,-3.2466,-3.2009,-3.1461,-3.1258,-3.119,-3.1055,-2.9837,-2.924,-2.9076,-2.7879,-2.7114,-2.6962,-2.6945,-2.6488,-2.5642,-2.5017,-2.4357,-2.3646,-2.3616,-2.3414,-2.3067,-2.3052,-2.3206,-2.3453,-2.3638,-2.3831,-2.3996,-2.4094,-2.4151,-2.4208,-2.419,-2.419,-2.419,-2.419,-2.419,-2.419,-2.419,-2.419,-2.419,-2.419,-2.419,-2.419,-2.419,-2.419,-2.419,-2.419,-2.419,-2.419,-2.419,-2.419,-2.419,-2.419,-2.419,-2.419,-2.419,-2.419,-2.419,-2.419,-2.419,-2.419,-2.419,-2.419,-2.419,-2.419,-2.419,-2.419,-2.419,-2.419,-2.419,-2.419,-2.419,-2.419,-2.419,-2.419,-2.419,-2.419,-2.4171,-2.4153,-2.3731,-2.3235,-2.307,-2.2483,-2.1987,-2.1822,-2.1859,-2.2244,-2.285,-2.3162,-2.3529,-2.4061,-2.419,-2.419,-2.419,-2.419,-2.419,-2.419,-2.419,-2.4209,-4.0087,-4.0087,-4.0087,-3.9698,-3.9157,-3.9056,-3.8616,-3.799,-3.7821,-3.7364,-3.6654,-3.5943,-3.5588,-3.5436,-3.481,-3.4387,-3.4117,-3.2882,-3.2273,-3.2121,-3.1495,-3.119,-3.1157,-3.0362,-3.0,-2.9894,-2.9083,-2.8315,-2.774,-2.7688,-2.7012,-2.5761,-2.5541,-2.5135,-2.4438,-2.3891,-2.368,-2.3777,-2.3401,-2.3343,-2.366,-2.3792,-2.3937,-2.4094,-2.4151,-2.4208,-2.419,-2.419,-2.419,-2.419,-2.419,-2.419,-2.419,-2.419,-2.419,-2.419,-2.419,-2.419,-2.419,-2.419,-2.419,-2.419,-2.419,-2.419,-2.419,-2.419,-2.419,-2.419,-2.419,-2.419,-2.419,-2.419,-2.419,-2.419,-2.419,-2.419,-2.419,-2.419,-2.419,-2.419,-2.419,-2.419,-2.419,-2.419,-2.419,-2.419,-2.419,-2.419,-2.419,-2.419,-2.419,-2.419,-2.419,-2.419,-2.4171,-2.4171,-2.3768,-2.3199,-2.296,-2.2666,-2.2373,-2.2538,-2.2978,-2.318,-2.3584,-2.4025,-2.4116,-2.419,-2.419,-2.419,-2.419,-2.419,-2.419,-2.419,-2.4209,-4.0087,-4.0087,-4.0087,-3.9918,-3.9648,-3.9631,-3.9478,-3.9174,-3.8734,-3.8128,-3.7388,-3.6624,-3.6062,-3.5577,-3.5284,-3.4928,-3.4455,-3.3863,-3.3339,-3.2916,-3.2188,-3.1862,-3.1737,-3.0637,-3.0099,-3.004,-2.9353,-2.8859,-2.8552,-2.8518,-2.796,-2.7029,-2.6877,-2.6336,-2.522,-2.5017,-2.4829,-2.459,-2.4098,-2.4011,-2.4253,-2.4049,-2.3955,-2.4036,-2.4151,-2.419,-2.419,-2.419,-2.419,-2.419,-2.419,-2.419,-2.419,-2.419,-2.419,-2.419,-2.419,-2.419,-2.419,-2.419,-2.419,-2.419,-2.419,-2.419,-2.419,-2.419,-2.419,-2.419,-2.419,-2.419,-2.419,-2.419,-2.419,-2.419,-2.419,-2.419,-2.419,-2.419,-2.419,-2.419,-2.419,-2.419,-2.419,-2.419,-2.419,-2.419,-2.419,-2.419,-2.419,-2.419,-2.419,-2.419,-2.419,-2.419,-2.419,-2.419,-2.4025,-2.3823,-2.3712,-2.3474,-2.3345,-2.34,-2.3712,-2.3694,-2.3969,-2.419,-2.4171,-2.419,-2.419,-2.419,-2.419,-2.419,-2.419,-2.419,-2.419,-4.0087,-4.0087,-4.0087,-4.0087,-4.0087,-4.0087,-4.0087,-4.002,-3.9529,-3.8922,-3.8167,-3.7621,-3.684,-3.5994,-3.5723,-3.5318,-3.481,-3.459,-3.4201,-3.3643,-3.2933,-3.2591,-3.2497,-3.1557,-3.0886,-3.0637,-3.0213,-2.9702,-2.933,-2.9079,-2.8687,-2.8197,-2.8146,-2.7503,-2.632,-2.6219,-2.5926,-2.5391,-2.4857,-2.464,-2.4658,-2.4342,-2.4133,-2.4034,-2.4132,-2.4189,-2.419,-2.419,-2.419,-2.419,-2.419,-2.419,-2.419,-2.419,-2.419,-2.419,-2.419,-2.419,-2.419,-2.419,-2.419,-2.419,-2.419,-2.419,-2.419,-2.419,-2.419,-2.419,-2.419,-2.419,-2.419,-2.419,-2.419,-2.419,-2.419,-2.419,-2.419,-2.419,-2.419,-2.419,-2.419,-2.419,-2.419,-2.419,-2.419,-2.419,-2.419,-2.419,-2.419,-2.419,-2.419,-2.419,-2.419,-2.419,-2.419,-2.419,-2.419,-2.419,-2.4135,-2.4116,-2.419,-2.419,-2.4171,-2.3969,-2.4135,-2.419,-2.419,-2.419,-2.419,-2.419,-2.419,-2.419,-2.419,-2.419,-2.4209,-4.0087,-4.0087,-4.0087,-4.0087,-4.0087,-4.0087,-4.0087,-4.0087,-4.0003,-3.9598,-3.8958,-3.8871,-3.8058,-3.6705,-3.6062,-3.5639,-3.5453,-3.4844,-3.4539,-3.4387,-3.3694,-3.3347,-3.3369,-3.3262,-3.284,-3.2165,-3.2019,-3.136,-3.0176,-2.9414,-2.9011,-2.8977,-2.8941,-2.8518,-2.7655,-2.7131,-2.6652,-2.6065,-2.5582,-2.5115,-2.469,-2.4777,-2.461,-2.42,-2.4112,-2.4113,-2.419,-2.419,-2.419,-2.419,-2.419,-2.419,-2.4226,-2.4245,-2.4245,-2.4245,-2.4208,-2.419,-2.419,-2.419,-2.419,-2.419,-2.419,-2.419,-2.419,-2.419,-2.419,-2.419,-2.419,-2.419,-2.419,-2.419,-2.419,-2.419,-2.419,-2.419,-2.419,-2.419,-2.419,-2.419,-2.419,-2.419,-2.419,-2.419,-2.419,-2.419,-2.419,-2.419,-2.419,-2.419,-2.419,-2.419,-2.419,-2.419,-2.419,-2.419,-2.419,-2.419,-2.419,-2.419,-2.419,-2.419,-2.419,-2.419,-2.419,-2.419,-2.419,-2.419,-2.419,-2.419,-2.419,-2.419,-2.419,-2.419,-2.4209,-4.0087,-4.0087,-4.0087,-4.0087,-4.0087,-4.0087,-4.0087,-4.0087,-4.0087,-3.9665,-3.9093,-3.9023,-3.843,-3.7483,-3.7212,-3.6535,-3.5656,-3.5334,-3.5216,-3.5131,-3.4438,-3.4126,-3.4041,-3.3626,-3.3263,-3.3043,-3.3017,-3.2747,-3.2222,-3.1461,-3.0835,-3.0362,-2.9905,-2.9093,-2.7994,-2.7692,-2.7348,-2.6742,-2.621,-2.587,-2.5791,-2.559,-2.5206,-2.4711,-2.429,-2.4132,-2.419,-2.419,-2.419,-2.419,-2.419,-2.4428,-2.4907,-2.498,-2.4961,-2.4925,-2.4465,-2.419,-2.419,-2.419,-2.419,-2.419,-2.419,-2.419,-2.419,-2.419,-2.419,-2.419,-2.419,-2.419,-2.419,-2.419,-2.419,-2.419,-2.419,-2.419,-2.419,-2.419,-2.419,-2.419,-2.419,-2.419,-2.419,-2.419,-2.419,-2.419,-2.419,-2.419,-2.419,-2.419,-2.419,-2.419,-2.419,-2.419,-2.419,-2.419,-2.419,-2.419,-2.419,-2.419,-2.419,-2.419,-2.419,-2.419,-2.419,-2.419,-2.419,-2.419,-2.419,-2.419,-2.419,-2.419,-2.419,-2.4228,-2.4228,-4.0087,-4.0087,-4.0087,-4.0087,-4.0087,-4.0087,-4.0087,-4.0087,-4.007,-3.9817,-3.9429,-3.9344,-3.8937,-3.8345,-3.8261,-3.7601,-3.64,-3.6113,-3.5876,-3.5588,-3.5081,-3.4861,-3.4776,-3.4353,-3.3981,-3.3744,-3.3491,-3.3389,-3.3355,-3.2899,-3.2256,-3.1546,-3.1038,-3.0057,-2.8772,-2.8422,-2.8049,-2.7416,-2.6815,-2.6536,-2.6486,-2.6269,-2.5886,-2.5366,-2.4969,-2.4734,-2.4612,-2.4575,-2.4722,-2.4924,-2.4997,-2.5217,-2.5713,-2.5768,-2.566,-2.5384,-2.4907,-2.4447,-2.4245,-2.419,-2.419,-2.419,-2.419,-2.419,-2.419,-2.419,-2.419,-2.419,-2.419,-2.419,-2.419,-2.419,-2.419,-2.419,-2.419,-2.419,-2.419,-2.419,-2.419,-2.419,-2.419,-2.419,-2.419,-2.419,-2.419,-2.419,-2.419,-2.419,-2.419,-2.419,-2.419,-2.419,-2.419,-2.419,-2.419,-2.419,-2.419,-2.419,-2.419,-2.419,-2.419,-2.419,-2.419,-2.419,-2.419,-2.419,-2.419,-2.419,-2.419,-2.419,-2.419,-2.419,-2.4228,-2.4229,-2.4284,-4.0087,-4.0087,-4.0087,-4.0087,-4.0087,-4.0087,-4.0087,-4.0087,-4.0087,-4.0037,-3.9969,-4.0003,-3.9597,-3.9106,-3.9005,-3.8582,-3.7804,-3.7094,-3.6383,-3.5757,-3.5588,-3.5537,-3.552,-3.5436,-3.5064,-3.4489,-3.3829,-3.3508,-3.3609,-3.3457,-3.3034,-3.2442,-3.2188,-3.1326,-3.0074,-2.933,-2.8674,-2.7981,-2.7362,-2.6864,-2.6422,-2.6669,-2.6552,-2.6117,-2.6149,-2.6002,-2.5493,-2.5439,-2.5713,-2.6355,-2.6465,-2.6576,-2.6576,-2.6539,-2.6227,-2.5623,-2.5366,-2.4924,-2.43,-2.419,-2.419,-2.419,-2.419,-2.419,-2.419,-2.419,-2.419,-2.419,-2.419,-2.419,-2.419,-2.419,-2.419,-2.419,-2.419,-2.419,-2.419,-2.419,-2.419,-2.419,-2.419,-2.419,-2.419,-2.419,-2.419,-2.419,-2.419,-2.419,-2.419,-2.419,-2.419,-2.419,-2.419,-2.419,-2.419,-2.419,-2.419,-2.419,-2.419,-2.419,-2.419,-2.419,-2.419,-2.419,-2.419,-2.419,-2.419,-2.419,-2.419,-2.419,-2.419,-2.4209,-2.421,-2.4248,-2.4356,-4.0087,-4.0087,-4.0087,-4.0087,-4.0087,-4.0087,-4.0087,-4.0087,-4.0087,-4.0087,-4.0087,-4.0087,-3.9935,-3.9783,-3.9732,-3.9343,-3.8633,-3.7889,-3.7144,-3.6434,-3.5876,-3.5639,-3.5639,-3.5639,-3.5504,-3.5267,-3.5064,-3.4928,-3.4793,-3.4404,-3.3998,-3.3677,-3.2763,-3.1816,-3.0869,-2.9676,-2.8686,-2.8015,-2.7383,-2.7063,-2.7057,-2.7321,-2.7234,-2.6867,-2.7007,-2.705,-2.6966,-2.6518,-2.6355,-2.6667,-2.6612,-2.6851,-2.7218,-2.6888,-2.6484,-2.6153,-2.5144,-2.4502,-2.4263,-2.419,-2.419,-2.419,-2.419,-2.419,-2.419,-2.419,-2.419,-2.419,-2.419,-2.419,-2.419,-2.419,-2.419,-2.419,-2.419,-2.419,-2.419,-2.419,-2.419,-2.419,-2.419,-2.419,-2.419,-2.419,-2.419,-2.419,-2.419,-2.419,-2.419,-2.419,-2.419,-2.419,-2.419,-2.419,-2.419,-2.419,-2.419,-2.419,-2.419,-2.419,-2.419,-2.419,-2.419,-2.419,-2.419,-2.419,-2.419,-2.419,-2.419,-2.419,-2.419,-2.4209,-2.421,-2.4284,-2.4426,-4.0087,-4.0087,-4.0087,-4.0087,-4.0087,-4.0087,-4.0087,-4.0087,-4.0087,-4.0087,-4.0087,-4.0087,-4.0087,-4.0087,-4.0087,-3.9834,-3.9309,-3.8379,-3.7652,-3.706,-3.6062,-3.5656,-3.5639,-3.5639,-3.5639,-3.5639,-3.5622,-3.5639,-3.5605,-3.5148,-3.4776,-3.4303,-3.3288,-3.2341,-3.1546,-3.0174,-2.9068,-2.8386,-2.7743,-2.7348,-2.7362,-2.7539,-2.7606,-2.7477,-2.7695,-2.7901,-2.8026,-2.7661,-2.7471,-2.749,-2.7493,-2.7769,-2.8136,-2.7512,-2.6924,-2.6392,-2.5456,-2.4557,-2.4263,-2.419,-2.419,-2.419,-2.419,-2.419,-2.419,-2.419,-2.419,-2.419,-2.419,-2.419,-2.419,-2.419,-2.419,-2.419,-2.419,-2.419,-2.419,-2.419,-2.419,-2.419,-2.419,-2.419,-2.419,-2.419,-2.419,-2.419,-2.419,-2.419,-2.419,-2.419,-2.419,-2.419,-2.419,-2.419,-2.419,-2.419,-2.419,-2.419,-2.419,-2.419,-2.419,-2.419,-2.419,-2.419,-2.419,-2.419,-2.419,-2.419,-2.419,-2.419,-2.4209,-2.4247,-2.4266,-2.4392,-2.4547,-4.0206,-4.0138,-4.0155,-4.0138,-4.0087,-4.0087,-4.0087,-4.0087,-4.0087,-4.0087,-4.0087,-4.0087,-4.0087,-4.0087,-4.0087,-4.002,-3.98,-3.8548,-3.7905,-3.7415,-3.64,-3.5639,-3.5639,-3.5639,-3.5639,-3.5639,-3.5639,-3.5639,-3.5622,-3.5537,-3.525,-3.4607,-3.388,-3.3085,-3.2239,-3.0874,-2.9804,-2.9076,-2.842,-2.7811,-2.7324,-2.7508,-2.7712,-2.7961,-2.8201,-2.842,-2.8567,-2.8638,-2.8805,-2.8938,-2.8815,-2.8737,-2.8741,-2.8172,-2.7236,-2.6465,-2.575,-2.4924,-2.4355,-2.419,-2.419,-2.419,-2.419,-2.419,-2.419,-2.419,-2.419,-2.419,-2.419,-2.419,-2.419,-2.419,-2.419,-2.419,-2.419,-2.419,-2.419,-2.419,-2.419,-2.419,-2.419,-2.419,-2.419,-2.419,-2.419,-2.419,-2.419,-2.419,-2.419,-2.419,-2.419,-2.419,-2.419,-2.419,-2.419,-2.419,-2.419,-2.419,-2.419,-2.419,-2.419,-2.419,-2.419,-2.419,-2.419,-2.419,-2.419,-2.419,-2.4209,-2.419,-2.4228,-2.4266,-2.4375,-2.4513,-2.4645,-4.1407,-4.0933,-4.0899,-4.0595,-4.0121,-4.0087,-4.0087,-4.0087,-4.0087,-4.0087,-4.0087,-4.0087,-4.0087,-4.0087,-4.0087,-4.0087,-3.9715,-3.8565,-3.7922,-3.7652,-3.6332,-3.569,-3.5639,-3.5639,-3.5639,-3.5639,-3.5639,-3.5639,-3.5639,-3.5639,-3.5504,-3.5318,-3.4523,-3.3812,-3.3017,-3.1641,-3.0577,-2.982,-2.9183,-2.8561,-2.8064,-2.8184,-2.828,-2.8088,-2.8291,-2.851,-2.8761,-2.8923,-2.8975,-2.8994,-2.8975,-2.8705,-2.8172,-2.742,-2.6631,-2.5823,-2.5034,-2.4465,-2.4263,-2.419,-2.419,-2.419,-2.419,-2.419,-2.419,-2.419,-2.419,-2.419,-2.419,-2.419,-2.419,-2.419,-2.419,-2.419,-2.419,-2.419,-2.419,-2.419,-2.419,-2.419,-2.419,-2.419,-2.419,-2.419,-2.419,-2.419,-2.419,-2.419,-2.419,-2.419,-2.419,-2.419,-2.419,-2.419,-2.419,-2.419,-2.419,-2.419,-2.419,-2.419,-2.419,-2.419,-2.419,-2.419,-2.419,-2.419,-2.419,-2.419,-2.4209,-2.4209,-2.4266,-2.4321,-2.4462,-2.4596,-2.4738,-4.2033,-4.1627,-4.1339,-4.095,-4.0527,-4.0223,-4.0087,-4.0087,-4.0087,-4.0087,-4.0087,-4.0087,-4.0087,-4.0087,-4.0087,-4.0087,-3.9884,-3.8565,-3.7956,-3.7669,-3.6332,-3.5673,-3.5639,-3.5639,-3.5639,-3.5639,-3.5639,-3.5639,-3.5639,-3.5639,-3.5639,-3.5453,-3.4861,-3.4117,-3.3339,-3.229,-3.1123,-3.0226,-2.9763,-2.9293,-2.8785,-2.862,-2.8636,-2.8468,-2.8506,-2.8536,-2.881,-2.8929,-2.8975,-2.8975,-2.8938,-2.8631,-2.7842,-2.7053,-2.6245,-2.5439,-2.4649,-2.4208,-2.419,-2.419,-2.419,-2.419,-2.419,-2.419,-2.419,-2.419,-2.419,-2.419,-2.419,-2.419,-2.419,-2.419,-2.419,-2.419,-2.419,-2.419,-2.419,-2.419,-2.419,-2.419,-2.419,-2.419,-2.419,-2.419,-2.419,-2.419,-2.419,-2.419,-2.419,-2.419,-2.419,-2.419,-2.419,-2.419,-2.419,-2.419,-2.419,-2.419,-2.419,-2.419,-2.419,-2.419,-2.419,-2.419,-2.419,-2.419,-2.419,-2.4209,-2.419,-2.4228,-2.4303,-2.4411,-2.453,-2.4676,-2.4813,-4.2472,-4.2337,-4.1627,-4.1271,-4.1068,-4.0409,-4.0087,-4.0087,-4.0087,-4.0087,-4.0087,-4.0087,-4.0087,-4.0087,-4.0087,-4.007,-3.9986,-3.8565,-3.7821,-3.7195,-3.6265,-3.5639,-3.5639,-3.5639,-3.5639,-3.5639,-3.5639,-3.5639,-3.5639,-3.5639,-3.5639,-3.5504,-3.4945,-3.4184,-3.3474,-3.2713,-3.1647,-3.0586,-3.0411,-3.0135,-2.961,-2.9171,-2.9,-2.8994,-2.8685,-2.863,-2.8834,-2.8952,-2.8975,-2.8975,-2.8975,-2.8576,-2.7824,-2.7053,-2.6245,-2.5419,-2.4667,-2.419,-2.419,-2.419,-2.419,-2.419,-2.419,-2.419,-2.419,-2.419,-2.419,-2.419,-2.419,-2.419,-2.419,-2.419,-2.419,-2.419,-2.419,-2.419,-2.419,-2.419,-2.419,-2.419,-2.419,-2.419,-2.419,-2.419,-2.419,-2.419,-2.419,-2.419,-2.419,-2.419,-2.419,-2.419,-2.419,-2.419,-2.419,-2.419,-2.419,-2.419,-2.419,-2.419,-2.419,-2.419,-2.419,-2.419,-2.419,-2.419,-2.419,-2.4209,-2.4209,-2.4284,-2.4375,-2.4481,-2.4599,-2.4757,-2.4889,-4.3724,-4.3115,-4.2388,-4.1728,-4.1136,-4.0409,-4.0087,-4.0087,-4.0087,-4.0087,-4.0087,-4.0087,-4.0087,-4.0087,-4.0087,-4.0087,-3.9834,-3.8497,-3.733,-3.6096,-3.5876,-3.5639,-3.5639,-3.5639,-3.5639,-3.5639,-3.5639,-3.5639,-3.5639,-3.5639,-3.5639,-3.5571,-3.5368,-3.4709,-3.3525,-3.3169,-3.2449,-3.1291,-3.1155,-3.1001,-3.0508,-3.0029,-2.9624,-2.9362,-2.8967,-2.8846,-2.8881,-2.897,-2.8994,-2.8975,-2.8962,-2.865,-2.7824,-2.7071,-2.6282,-2.5476,-2.4704,-2.4226,-2.419,-2.419,-2.4208,-2.4263,-2.43,-2.419,-2.419,-2.4263,-2.4226,-2.419,-2.419,-2.419,-2.419,-2.419,-2.419,-2.419,-2.419,-2.419,-2.419,-2.419,-2.419,-2.419,-2.419,-2.419,-2.419,-2.419,-2.419,-2.419,-2.419,-2.419,-2.419,-2.419,-2.419,-2.419,-2.419,-2.419,-2.419,-2.419,-2.419,-2.419,-2.419,-2.419,-2.419,-2.419,-2.419,-2.419,-2.419,-2.419,-2.419,-2.4209,-2.4192,-2.4321,-2.4465,-2.4566,-2.4695,-2.4836,-2.4917,-4.413,-4.3352,-4.2608,-4.188,-4.1153,-4.0409,-4.0087,-4.0087,-4.0087,-4.0087,-4.0087,-4.0087,-4.0087,-4.0087,-4.007,-3.9918,-3.9276,-3.8058,-3.6755,-3.5842,-3.5639,-3.5639,-3.5639,-3.5639,-3.5639,-3.5639,-3.5639,-3.5639,-3.5639,-3.5639,-3.5639,-3.5639,-3.5639,-3.4776,-3.3609,-3.3389,-3.2584,-3.1567,-3.1487,-3.1522,-3.1376,-3.0949,-3.0297,-2.9656,-2.9198,-2.8887,-2.8952,-2.8994,-2.8975,-2.8975,-2.8975,-2.865,-2.7934,-2.7383,-2.6612,-2.5531,-2.5072,-2.452,-2.4337,-2.4226,-2.4355,-2.474,-2.4759,-2.5016,-2.5071,-2.5034,-2.4759,-2.4667,-2.4447,-2.419,-2.419,-2.419,-2.419,-2.419,-2.419,-2.419,-2.419,-2.419,-2.419,-2.419,-2.419,-2.419,-2.419,-2.419,-2.419,-2.419,-2.419,-2.419,-2.419,-2.419,-2.419,-2.419,-2.419,-2.419,-2.419,-2.419,-2.419,-2.419,-2.419,-2.419,-2.419,-2.419,-2.419,-2.419,-2.419,-2.419,-2.4209,-2.421,-2.4248,-2.4375,-2.45,-2.4631,-2.4757,-2.4846,-2.4931,-4.3961,-4.3183,-4.2439,-4.1762,-4.1136,-4.0392,-4.0087,-4.0087,-4.0087,-4.0087,-4.0087,-4.0087,-4.0003,-3.9901,-3.9851,-3.9445,-3.8481,-3.7533,-3.64,-3.5723,-3.5639,-3.5639,-3.5639,-3.5639,-3.5639,-3.5639,-3.5639,-3.5639,-3.5639,-3.5639,-3.5639,-3.5639,-3.5639,-3.4945,-3.388,-3.3372,-3.2846,-3.181,-3.1644,-3.1785,-3.1934,-3.159,-3.088,-2.9961,-2.9272,-2.8965,-2.8994,-2.8975,-2.8975,-2.8975,-2.8975,-2.8631,-2.8172,-2.7732,-2.731,-2.5862,-2.5733,-2.5364,-2.4979,-2.4777,-2.4997,-2.5568,-2.5566,-2.586,-2.6172,-2.5933,-2.5529,-2.5109,-2.4742,-2.419,-2.419,-2.419,-2.419,-2.419,-2.419,-2.419,-2.419,-2.419,-2.419,-2.419,-2.419,-2.419,-2.419,-2.419,-2.419,-2.419,-2.419,-2.419,-2.419,-2.419,-2.419,-2.419,-2.419,-2.419,-2.419,-2.419,-2.419,-2.419,-2.419,-2.419,-2.419,-2.419,-2.419,-2.419,-2.419,-2.419,-2.4228,-2.4247,-2.4303,-2.443,-2.4549,-2.4695,-2.4802,-2.4875,-2.4945,-4.3183,-4.2422,-4.1694,-4.1305,-4.1085,-4.0392,-4.0087,-4.0087,-4.0087,-4.0087,-4.0087,-4.007,-3.9749,-3.936,-3.9191,-3.8447,-3.7499,-3.6789,-3.6299,-3.5723,-3.5639,-3.5639,-3.5639,-3.5639,-3.5639,-3.5639,-3.5639,-3.5639,-3.5639,-3.5639,-3.5639,-3.5639,-3.5639,-3.5081,-3.432,-3.3711,-3.3049,-3.2264,-3.1926,-3.1929,-3.2091,-3.1824,-3.1189,-3.0163,-2.9472,-2.908,-2.8994,-2.8975,-2.8975,-2.8975,-2.8975,-2.8902,-2.865,-2.8172,-2.7677,-2.7218,-2.6667,-2.6245,-2.597,-2.608,-2.6209,-2.6374,-2.641,-2.6447,-2.6612,-2.6484,-2.608,-2.5364,-2.4759,-2.4226,-2.419,-2.419,-2.419,-2.419,-2.419,-2.419,-2.419,-2.419,-2.419,-2.419,-2.419,-2.419,-2.419,-2.419,-2.419,-2.419,-2.419,-2.419,-2.419,-2.419,-2.419,-2.419,-2.419,-2.419,-2.419,-2.419,-2.419,-2.419,-2.419,-2.419,-2.419,-2.419,-2.419,-2.4209,-2.419,-2.419,-2.4228,-2.4284,-2.4393,-2.4532,-2.4647,-2.4772,-2.4861,-2.4931,-2.4959,-4.276,-4.1711,-4.1339,-4.0967,-4.0595,-4.0257,-4.0087,-4.0087,-4.0087,-4.0087,-4.0087,-4.0054,-3.9681,-3.914,-3.8988,-3.8159,-3.7009,-3.6315,-3.5977,-3.5656,-3.5639,-3.5639,-3.5622,-3.5639,-3.5639,-3.5639,-3.5639,-3.5622,-3.5639,-3.5639,-3.5639,-3.5639,-3.5622,-3.5233,-3.4489,-3.3761,-3.3175,-3.2627,-3.2101,-3.1948,-3.2248,-3.2085,-3.1472,-3.0735,-2.9936,-2.9452,-2.9012,-2.8975,-2.8975,-2.8975,-2.8975,-2.8975,-2.8865,-2.865,-2.8227,-2.7824,-2.7438,-2.7016,-2.6722,-2.6631,-2.6741,-2.7181,-2.7236,-2.7475,-2.7603,-2.7457,-2.6686,-2.5695,-2.5182,-2.463,-2.4263,-2.4245,-2.419,-2.419,-2.419,-2.419,-2.419,-2.419,-2.419,-2.419,-2.419,-2.419,-2.419,-2.419,-2.419,-2.419,-2.419,-2.419,-2.419,-2.419,-2.419,-2.419,-2.419,-2.419,-2.419,-2.419,-2.419,-2.419,-2.419,-2.419,-2.419,-2.419,-2.419,-2.4191,-2.4191,-2.4228,-2.4284,-2.4357,-2.4497,-2.4629,-2.4753,-2.4875,-2.4931,-2.4985,-2.5025,-4.2185,-4.0967,-4.0967,-4.0629,-4.0121,-4.0087,-4.0087,-4.0087,-4.0087,-4.0087,-4.0054,-3.9868,-3.9428,-3.8819,-3.8326,-3.7614,-3.6547,-3.5904,-3.5762,-3.5728,-3.5711,-3.5711,-3.5684,-3.5684,-3.5684,-3.5673,-3.5684,-3.5622,-3.5622,-3.5639,-3.5639,-3.5639,-3.5622,-3.5368,-3.4726,-3.3897,-3.3243,-3.2781,-3.2118,-3.2018,-3.2311,-3.2283,-3.191,-3.1294,-3.0589,-2.9806,-2.9067,-2.8975,-2.8975,-2.8975,-2.8975,-2.8975,-2.8975,-2.8975,-2.8705,-2.8172,-2.8044,-2.7658,-2.7365,-2.72,-2.7567,-2.8007,-2.8026,-2.8393,-2.8484,-2.8026,-2.7236,-2.6174,-2.5678,-2.5291,-2.4722,-2.4483,-2.4373,-2.419,-2.419,-2.419,-2.419,-2.419,-2.419,-2.419,-2.419,-2.419,-2.419,-2.419,-2.419,-2.419,-2.419,-2.419,-2.419,-2.419,-2.419,-2.419,-2.419,-2.419,-2.419,-2.419,-2.419,-2.419,-2.419,-2.419,-2.419,-2.419,-2.4209,-2.421,-2.4266,-2.4284,-2.4357,-2.4444,-2.4578,-2.4738,-2.4842,-2.494,-2.5012,-2.5044,-2.5069,-4.0967,-4.0223,-4.0273,-4.0155,-4.0087,-4.0087,-4.0087,-4.0087,-4.0087,-4.0087,-4.0037,-3.9394,-3.8768,-3.7987,-3.6825,-3.6197,-3.5987,-3.599,-3.5932,-3.5932,-3.5932,-3.5922,-3.5929,-3.5966,-3.5895,-3.5796,-3.5762,-3.5728,-3.5639,-3.5639,-3.5639,-3.5639,-3.5622,-3.5504,-3.5081,-3.3998,-3.349,-3.3311,-3.2397,-3.2161,-3.2674,-3.248,-3.1938,-3.1294,-3.0583,-2.9824,-2.9104,-2.8975,-2.8975,-2.8975,-2.8975,-2.8975,-2.8975,-2.8975,-2.8957,-2.8888,-2.8851,-2.8792,-2.8553,-2.8425,-2.8425,-2.8668,-2.8741,-2.8865,-2.8796,-2.8411,-2.7769,-2.7622,-2.6906,-2.6117,-2.5438,-2.5217,-2.4887,-2.4502,-2.4263,-2.4226,-2.419,-2.419,-2.419,-2.419,-2.419,-2.419,-2.419,-2.419,-2.419,-2.419,-2.419,-2.419,-2.419,-2.419,-2.419,-2.419,-2.419,-2.419,-2.419,-2.419,-2.419,-2.419,-2.419,-2.419,-2.419,-2.4209,-2.4209,-2.4229,-2.4284,-2.4393,-2.4479,-2.458,-2.4704,-2.4842,-2.494,-2.5006,-2.5069,-2.5106,-2.5141,-4.0375,-4.0087,-4.0087,-4.0087,-4.0087,-4.0087,-4.0087,-4.0087,-4.0087,-4.0087,-4.0002,-3.9408,-3.8571,-3.749,-3.6437,-3.6096,-3.6105,-3.6148,-3.6191,-3.6191,-3.6191,-3.62,-3.6165,-3.6131,-3.607,-3.6017,-3.5851,-3.5773,-3.5711,-3.5588,-3.5622,-3.5588,-3.5571,-3.5334,-3.5006,-3.4033,-3.3427,-3.3041,-3.2611,-3.259,-3.2809,-3.2567,-3.1992,-3.1371,-3.0632,-2.9824,-2.9195,-2.8975,-2.8975,-2.8975,-2.8975,-2.8975,-2.8975,-2.8975,-2.8975,-2.8975,-2.8975,-2.8957,-2.8938,-2.8975,-2.8975,-2.8975,-2.8975,-2.8957,-2.892,-2.8705,-2.8191,-2.7769,-2.7493,-2.6924,-2.6153,-2.564,-2.5293,-2.4925,-2.463,-2.4355,-2.43,-2.4208,-2.419,-2.419,-2.419,-2.419,-2.419,-2.419,-2.419,-2.419,-2.419,-2.419,-2.419,-2.419,-2.419,-2.419,-2.419,-2.419,-2.419,-2.419,-2.419,-2.419,-2.419,-2.419,-2.4209,-2.419,-2.421,-2.4284,-2.4375,-2.4479,-2.458,-2.4692,-2.4779,-2.4926,-2.5051,-2.5101,-2.513,-2.5145,-2.5179,-4.0087,-4.0087,-4.0087,-4.0087,-4.0087,-4.0087,-4.0087,-4.0087,-4.0087,-4.0138,-3.9934,-3.9333,-3.8294,-3.7239,-3.6628,-3.6402,-3.6409,-3.6451,-3.6468,-3.6485,-3.6461,-3.6454,-3.6404,-3.6345,-3.6242,-3.6157,-3.5659,-3.546,-3.5304,-3.5176,-3.4996,-3.5301,-3.4989,-3.4752,-3.4253,-3.3632,-3.306,-3.2689,-3.2685,-3.2866,-3.3064,-3.2653,-3.2046,-3.1371,-3.0613,-2.9824,-2.9145,-2.8975,-2.8975,-2.8975,-2.8975,-2.8975,-2.8975,-2.8975,-2.8975,-2.8975,-2.8975,-2.8975,-2.8975,-2.8975,-2.8975,-2.8975,-2.8975,-2.8975,-2.8975,-2.8975,-2.8847,-2.8209,-2.8154,-2.7695,-2.7034,-2.6355,-2.6062,-2.5713,-2.5291,-2.4869,-2.4538,-2.4557,-2.4392,-2.419,-2.419,-2.419,-2.419,-2.419,-2.419,-2.419,-2.419,-2.419,-2.419,-2.419,-2.419,-2.419,-2.419,-2.419,-2.419,-2.419,-2.419,-2.419,-2.419,-2.419,-2.4209,-2.4209,-2.4229,-2.4321,-2.4428,-2.4532,-2.4634,-2.4738,-2.4851,-2.4966,-2.5076,-2.516,-2.5187,-2.5201,-2.5233,-4.0087,-4.0087,-4.0087,-4.0087,-4.0087,-4.0087,-4.0087,-4.0087,-4.0087,-4.0154,-4.0031,-3.9157,-3.7974,-3.6953,-3.6812,-3.6776,-3.6776,-3.6891,-3.693,-3.6891,-3.6829,-3.6708,-3.6591,-3.6357,-3.6232,-3.5934,-3.5309,-3.4823,-3.4507,-3.4024,-3.4117,-3.4421,-3.4245,-3.3896,-3.3519,-3.3156,-3.283,-3.2599,-3.2755,-3.3032,-3.302,-3.2638,-3.2015,-3.1304,-3.0577,-2.9824,-2.9049,-2.8975,-2.8975,-2.8975,-2.8975,-2.8975,-2.8975,-2.8975,-2.8975,-2.8975,-2.8975,-2.8975,-2.8975,-2.8975,-2.8975,-2.8975,-2.8975,-2.8975,-2.8975,-2.8975,-2.8883,-2.8815,-2.8686,-2.8429,-2.7952,-2.7567,-2.6979,-2.6576,-2.6062,-2.5548,-2.5236,-2.5109,-2.4888,-2.4373,-2.419,-2.419,-2.419,-2.419,-2.419,-2.419,-2.419,-2.419,-2.419,-2.419,-2.419,-2.419,-2.419,-2.419,-2.419,-2.419,-2.419,-2.419,-2.419,-2.419,-2.419,-2.4209,-2.421,-2.4303,-2.4411,-2.4551,-2.4685,-2.4757,-2.4856,-2.498,-2.5101,-2.5184,-2.5231,-2.5243,-2.5264,-4.0087,-4.0087,-4.0087,-4.0087,-4.0087,-4.0087,-4.0087,-4.0087,-4.007,-4.0031,-3.9924,-3.9088,-3.838,-3.772,-3.7249,-3.7206,-3.7299,-3.7354,-3.7317,-3.7241,-3.7126,-3.6777,-3.6444,-3.5948,-3.5555,-3.5015,-3.4411,-3.4165,-3.3955,-3.3209,-3.3104,-3.3264,-3.3499,-3.3436,-3.3127,-3.285,-3.2687,-3.2796,-3.2921,-3.3105,-3.2637,-3.2074,-3.14,-3.0687,-2.9898,-2.9379,-2.903,-2.8994,-2.8975,-2.8975,-2.8975,-2.8975,-2.8975,-2.8975,-2.8975,-2.8975,-2.8975,-2.8975,-2.8975,-2.8975,-2.8975,-2.8975,-2.8975,-2.8975,-2.8975,-2.8975,-2.8975,-2.8975,-2.8975,-2.8741,-2.8631,-2.8081,-2.753,-2.7273,-2.6888,-2.6374,-2.586,-2.566,-2.5054,-2.441,-2.4245,-2.419,-2.419,-2.419,-2.419,-2.419,-2.419,-2.419,-2.419,-2.419,-2.419,-2.419,-2.419,-2.419,-2.419,-2.419,-2.419,-2.419,-2.419,-2.419,-2.419,-2.4191,-2.421,-2.4303,-2.4375,-2.4498,-2.4615,-2.4742,-2.4842,-2.4966,-2.5094,-2.5217,-2.5252,-2.5274,-2.5284,-4.0087,-4.0087,-4.0087,-4.0087,-4.0087,-4.0087,-4.0087,-4.0138,-4.0121,-4.0041,-3.9801,-3.9303,-3.8872,-3.8433,-3.7859,-3.7577,-3.7613,-3.7631,-3.7577,-3.736,-3.7016,-3.6544,-3.5927,-3.531,-3.4765,-3.4026,-3.3556,-3.3339,-3.3281,-3.2622,-3.2505,-3.2689,-3.3007,-3.2983,-3.2817,-3.2738,-3.282,-3.3086,-3.3196,-3.3016,-3.2456,-3.1759,-3.1004,-3.0283,-2.9512,-2.9104,-2.9012,-2.8975,-2.8975,-2.8975,-2.8975,-2.8975,-2.8975,-2.8975,-2.8975,-2.8975,-2.8975,-2.8975,-2.8975,-2.8975,-2.8975,-2.8975,-2.8975,-2.8975,-2.8975,-2.8975,-2.8975,-2.8975,-2.8975,-2.8975,-2.8957,-2.8521,-2.8282,-2.8081,-2.7934,-2.7438,-2.6447,-2.5915,-2.5126,-2.441,-2.4318,-2.419,-2.419,-2.419,-2.419,-2.419,-2.419,-2.419,-2.419,-2.419,-2.419,-2.419,-2.419,-2.419,-2.419,-2.419,-2.419,-2.419,-2.419,-2.419,-2.4209,-2.4191,-2.4192,-2.4229,-2.4339,-2.4445,-2.4564,-2.4676,-2.4794,-2.4921,-2.5075,-2.5231,-2.5273,-2.5284,-2.5284,-4.0054,-4.0087,-4.007,-4.0087,-4.0087,-4.0087,-4.0087,-4.0138,-4.0238,-4.0203,-4.0043,-3.9663,-3.923,-3.8699,-3.8097,-3.7846,-3.7739,-3.765,-3.7506,-3.7255,-3.645,-3.6053,-3.5422,-3.4722,-3.3947,-3.3744,-3.3115,-3.2605,-3.2525,-3.22,-3.2046,-3.223,-3.2634,-3.2704,-3.2354,-3.2737,-3.3117,-3.3345,-3.3502,-3.3003,-3.2336,-3.1591,-3.0791,-3.0026,-2.9384,-2.9017,-2.8975,-2.8975,-2.8975,-2.8975,-2.8975,-2.8975,-2.8975,-2.8975,-2.8975,-2.8975,-2.8975,-2.8975,-2.8975,-2.8975,-2.8975,-2.8975,-2.8975,-2.8975,-2.8975,-2.8975,-2.8975,-2.8975,-2.8975,-2.8975,-2.8975,-2.8938,-2.887,-2.876,-2.8553,-2.7985,-2.6979,-2.6264,-2.5511,-2.452,-2.4281,-2.419,-2.419,-2.419,-2.419,-2.419,-2.419,-2.419,-2.419,-2.419,-2.419,-2.419,-2.419,-2.419,-2.419,-2.419,-2.419,-2.419,-2.419,-2.419,-2.4209,-2.4209,-2.421,-2.421,-2.4284,-2.4393,-2.4495,-2.461,-2.479,-2.4987,-2.5111,-2.5222,-2.5264,-2.5313,-2.5313,-3.936,-3.9394,-3.9868,-4.0087,-4.0087,-4.0087,-4.007,-4.0188,-4.0385,-4.0422,-4.0114,-3.9788,-3.9331,-3.8793,-3.8223,-3.7846,-3.7685,-3.7094,-3.6933,-3.6541,-3.5686,-3.4781,-3.4193,-3.3685,-3.3038,-3.2415,-3.1957,-3.1944,-3.1897,-3.1908,-3.2126,-3.237,-3.2752,-3.2912,-3.2975,-3.319,-3.3433,-3.3449,-3.3131,-3.2482,-3.1774,-3.1054,-3.0283,-2.9531,-2.9145,-2.9017,-2.8975,-2.8975,-2.8975,-2.8975,-2.8975,-2.8975,-2.8975,-2.8975,-2.8975,-2.8975,-2.8975,-2.8975,-2.8975,-2.8975,-2.8975,-2.8975,-2.8975,-2.8975,-2.8975,-2.8975,-2.8975,-2.8975,-2.8975,-2.8975,-2.8975,-2.8975,-2.8943,-2.8943,-2.8645,-2.793,-2.7126,-2.6686,-2.6025,-2.4814,-2.419,-2.419,-2.419,-2.419,-2.419,-2.419,-2.419,-2.419,-2.419,-2.419,-2.419,-2.419,-2.419,-2.419,-2.419,-2.419,-2.419,-2.419,-2.419,-2.419,-2.4209,-2.4209,-2.4228,-2.4229,-2.4303,-2.4357,-2.4528,-2.4685,-2.4888,-2.5056,-2.5157,-2.5233,-2.5274,-2.5313,-2.5313,-3.8616,-3.8684,-3.9123,-3.9326,-3.9411,-3.9868,-4.0002,-3.9915,-4.0124,-4.0072,-3.9696,-3.9282,-3.8982,-3.8574,-3.806,-3.7685,-3.7506,-3.6774,-3.6292,-3.5842,-3.4726,-3.3949,-3.3277,-3.2617,-3.2158,-3.1533,-3.1509,-3.1555,-3.174,-3.202,-3.242,-3.2816,-3.316,-3.3309,-3.3397,-3.3502,-3.3605,-3.3497,-3.3057,-3.2276,-3.1476,-3.0668,-2.9861,-2.9292,-2.8975,-2.8975,-2.8975,-2.8975,-2.8975,-2.8975,-2.8975,-2.8975,-2.8975,-2.8975,-2.8975,-2.8975,-2.8975,-2.8975,-2.8975,-2.8975,-2.8975,-2.8975,-2.8975,-2.8975,-2.8975,-2.8975,-2.8975,-2.8975,-2.8975,-2.8975,-2.8975,-2.8975,-2.8975,-2.8975,-2.8755,-2.8081,-2.7126,-2.6649,-2.6007,-2.485,-2.419,-2.419,-2.419,-2.419,-2.419,-2.419,-2.419,-2.419,-2.419,-2.419,-2.419,-2.419,-2.419,-2.419,-2.419,-2.419,-2.419,-2.419,-2.4209,-2.4209,-2.4209,-2.421,-2.4247,-2.4284,-2.4375,-2.4462,-2.4626,-2.4775,-2.4974,-2.5099,-2.5168,-2.5233,-2.5303,-2.5313,-2.5313,-3.7872,-3.7872,-3.7905,-3.799,-3.8176,-3.9343,-3.9645,-3.9183,-3.9371,-3.9204,-3.8729,-3.8432,-3.8254,-3.816,-3.762,-3.7303,-3.6982,-3.6213,-3.5676,-3.5072,-3.3783,-3.3152,-3.2587,-3.1998,-3.1628,-3.1448,-3.1457,-3.1614,-3.1819,-3.2301,-3.2834,-3.3238,-3.3502,-3.3478,-3.3497,-3.3424,-3.3479,-3.3258,-3.2716,-3.1916,-3.1109,-3.0411,-2.9677,-2.9182,-2.8975,-2.8975,-2.8975,-2.8975,-2.8975,-2.8975,-2.8975,-2.8975,-2.8975,-2.8975,-2.8975,-2.8975,-2.8975,-2.8975,-2.8975,-2.8975,-2.8975,-2.8975,-2.8975,-2.8975,-2.8975,-2.8975,-2.8975,-2.8975,-2.8975,-2.8975,-2.8975,-2.8975,-2.8975,-2.8975,-2.8975,-2.8136,-2.7016,-2.63,-2.5676,-2.4942,-2.4373,-2.419,-2.419,-2.419,-2.419,-2.419,-2.419,-2.419,-2.419,-2.419,-2.419,-2.419,-2.419,-2.419,-2.419,-2.419,-2.419,-2.419,-2.4209,-2.421,-2.4229,-2.4266,-2.4321,-2.4393,-2.4464,-2.4564,-2.4734,-2.4879,-2.5044,-2.5141,-2.522,-2.5252,-2.5303,-2.5303,-2.5313,-3.711,-3.7144,-3.7686,-3.7922,-3.7973,-3.8345,-3.8478,-3.8438,-3.8508,-3.83,-3.7799,-3.7895,-3.7633,-3.7149,-3.7023,-3.6562,-3.5906,-3.5109,-3.4314,-3.3523,-3.2752,-3.2211,-3.1819,-3.1585,-3.1342,-3.1359,-3.1457,-3.1651,-3.1984,-3.2539,-3.3086,-3.3491,-3.3533,-3.3378,-3.3066,-3.2912,-3.2883,-3.2698,-3.21,-3.1421,-3.0632,-2.9861,-2.9329,-2.909,-2.8975,-2.8975,-2.8975,-2.8975,-2.8975,-2.8975,-2.8975,-2.8975,-2.8975,-2.8975,-2.8975,-2.8975,-2.8975,-2.8975,-2.8975,-2.8975,-2.8975,-2.8975,-2.8975,-2.8975,-2.8975,-2.8975,-2.8975,-2.8975,-2.8975,-2.8975,-2.8975,-2.8975,-2.8975,-2.8975,-2.8865,-2.8187,-2.7163,-2.6447,-2.5768,-2.474,-2.4208,-2.419,-2.419,-2.419,-2.419,-2.419,-2.419,-2.419,-2.419,-2.419,-2.4209,-2.4209,-2.4209,-2.419,-2.4209,-2.4209,-2.419,-2.4209,-2.4228,-2.4229,-2.4284,-2.4338,-2.4409,-2.4512,-2.4613,-2.4719,-2.4832,-2.4974,-2.5113,-2.5176,-2.5241,-2.5273,-2.5293,-2.5303,-2.5313,-3.6332,-3.6383,-3.6789,-3.7009,-3.7009,-3.6992,-3.7043,-3.7157,-3.7529,-3.732,-3.6864,-3.7025,-3.6901,-3.6502,-3.618,-3.5781,-3.5209,-3.4076,-3.3291,-3.2814,-3.1846,-3.1598,-3.1385,-3.1346,-3.1308,-3.1363,-3.1517,-3.1709,-3.2144,-3.2749,-3.3321,-3.3067,-3.3195,-3.2782,-3.2349,-3.2085,-3.1884,-3.1579,-3.1127,-3.0668,-3.0081,-2.942,-2.9104,-2.8975,-2.8975,-2.8975,-2.8975,-2.8975,-2.8975,-2.8975,-2.8975,-2.8975,-2.8975,-2.8975,-2.8975,-2.8975,-2.8975,-2.8975,-2.8975,-2.8975,-2.8975,-2.8975,-2.8975,-2.8975,-2.8975,-2.8975,-2.8975,-2.8975,-2.8975,-2.8975,-2.8975,-2.8975,-2.8975,-2.8975,-2.8608,-2.8242,-2.749,-2.6759,-2.5713,-2.4575,-2.419,-2.419,-2.419,-2.419,-2.419,-2.419,-2.4209,-2.4209,-2.4209,-2.4209,-2.419,-2.4191,-2.4191,-2.4191,-2.4209,-2.4228,-2.4247,-2.4266,-2.4284,-2.4321,-2.4356,-2.4444,-2.4528,-2.4657,-2.4779,-2.4879,-2.4961,-2.5057,-2.518,-2.5228,-2.5252,-2.5273,-2.5293,-2.5303,-2.5313,-3.5436,-3.5402,-3.5453,-3.5453,-3.5408,-3.5453,-3.5425,-3.5509,-3.6186,-3.6333,-3.5926,-3.6104,-3.6165,-3.5839,-3.541,-3.4912,-3.4271,-3.3265,-3.2605,-3.2406,-3.1708,-3.1291,-3.1269,-3.119,-3.1252,-3.1334,-3.1545,-3.1839,-3.2317,-3.2715,-3.2788,-3.2411,-3.2444,-3.21,-3.1439,-3.1323,-3.1029,-3.0369,-3.0215,-3.0,-2.9861,-2.942,-2.8975,-2.8975,-2.8975,-2.8975,-2.8975,-2.8975,-2.8975,-2.8975,-2.8975,-2.8975,-2.8975,-2.8975,-2.8975,-2.8975,-2.8975,-2.8975,-2.8975,-2.8975,-2.8975,-2.8975,-2.8975,-2.8975,-2.8975,-2.8975,-2.8975,-2.8975,-2.8975,-2.8975,-2.8975,-2.8975,-2.8975,-2.887,-2.8576,-2.7952,-2.7108,-2.6282,-2.5273,-2.4373,-2.419,-2.419,-2.419,-2.419,-2.419,-2.419,-2.419,-2.4209,-2.4209,-2.4209,-2.4247,-2.4247,-2.4247,-2.4284,-2.4284,-2.4303,-2.4303,-2.4321,-2.4358,-2.4411,-2.4426,-2.4547,-2.4676,-2.4798,-2.4907,-2.5006,-2.5101,-2.518,-2.5225,-2.525,-2.5292,-2.5302,-2.5293,-2.5303,-2.5313,-3.3931,-3.3931,-3.3931,-3.3931,-3.3947,-3.3931,-3.396,-3.3941,-3.4132,-3.482,-3.5548,-3.5732,-3.5487,-3.4899,-3.4712,-3.415,-3.3046,-3.2655,-3.2049,-3.171,-3.1269,-3.106,-3.1089,-3.0954,-3.1099,-3.1355,-3.1582,-3.1758,-3.2219,-3.2421,-3.2454,-3.2265,-3.1986,-3.1292,-3.0558,-3.0497,-3.0106,-2.947,-2.942,-2.9425,-2.9329,-2.9255,-2.8975,-2.8975,-2.8975,-2.8975,-2.8975,-2.8975,-2.8975,-2.8975,-2.8975,-2.8975,-2.8975,-2.8975,-2.8975,-2.8975,-2.8975,-2.8975,-2.8975,-2.8975,-2.8975,-2.8975,-2.8975,-2.8975,-2.8975,-2.8975,-2.8975,-2.8975,-2.8975,-2.8975,-2.8975,-2.8975,-2.8925,-2.8705,-2.8466,-2.7585,-2.6686,-2.5713,-2.4777,-2.4483,-2.4245,-2.419,-2.4209,-2.4209,-2.419,-2.4209,-2.4191,-2.421,-2.4247,-2.4266,-2.4339,-2.4358,-2.4376,-2.4375,-2.4375,-2.4393,-2.4375,-2.4375,-2.4393,-2.4445,-2.4513,-2.4676,-2.4832,-2.4926,-2.5051,-2.5113,-2.516,-2.5217,-2.5261,-2.5292,-2.5302,-2.5293,-2.5303,-2.5303,-2.5313,-3.3389,-3.3389,-3.3389,-3.3389,-3.3406,-3.3465,-3.3474,-3.3496,-3.3508,-3.3972,-3.4652,-3.4695,-3.4447,-3.3897,-3.3761,-3.3345,-3.2229,-3.1935,-3.1653,-3.1258,-3.084,-3.0683,-3.0632,-3.0467,-3.0241,-3.0387,-3.0749,-3.111,-3.1751,-3.1743,-3.1647,-3.1417,-3.0924,-3.0467,-2.9745,-2.963,-2.9423,-2.903,-2.8902,-2.8943,-2.8943,-2.8975,-2.8975,-2.8975,-2.8975,-2.8975,-2.8975,-2.8975,-2.8975,-2.8975,-2.8975,-2.8975,-2.8975,-2.8975,-2.8975,-2.8975,-2.8975,-2.8975,-2.8975,-2.8975,-2.8975,-2.8975,-2.8975,-2.8975,-2.8975,-2.8975,-2.8975,-2.8975,-2.8975,-2.8975,-2.8975,-2.8975,-2.8631,-2.8338,-2.8026,-2.7402,-2.6264,-2.5126,-2.4575,-2.4337,-2.4209,-2.4191,-2.4228,-2.4247,-2.4247,-2.4247,-2.4247,-2.4266,-2.4303,-2.4339,-2.4411,-2.4446,-2.4465,-2.4464,-2.4497,-2.4479,-2.4445,-2.4428,-2.4429,-2.4497,-2.4596,-2.4802,-2.4977,-2.5044,-2.5101,-2.516,-2.5217,-2.5261,-2.5282,-2.5302,-2.5293,-2.5303,-2.5313,-2.5313,-2.5313,-3.2966,-3.3119,-3.3085,-3.3143,-3.316,-3.3243,-3.326,-3.3311,-3.3349,-3.3304,-3.3204,-3.3106,-3.3083,-3.2923,-3.2551,-3.2195,-3.1726,-3.0997,-3.0828,-3.0658,-3.0251,-3.0082,-2.983,-2.9544,-2.9587,-2.973,-3.007,-3.0374,-3.0761,-3.0774,-3.0612,-3.0086,-2.9747,-2.9531,-2.9012,-2.8682,-2.8462,-2.837,-2.8374,-2.8613,-2.8796,-2.8957,-2.8975,-2.8975,-2.8975,-2.8975,-2.8975,-2.8975,-2.8975,-2.8975,-2.8975,-2.8975,-2.8975,-2.8975,-2.8975,-2.8975,-2.8975,-2.8975,-2.8975,-2.8975,-2.8975,-2.8975,-2.8975,-2.8975,-2.8975,-2.8957,-2.8957,-2.8938,-2.8938,-2.8938,-2.8962,-2.8705,-2.8282,-2.7842,-2.7493,-2.6943,-2.5695,-2.4668,-2.4429,-2.4209,-2.4209,-2.421,-2.4247,-2.4284,-2.4303,-2.4303,-2.4321,-2.4358,-2.4394,-2.4429,-2.4481,-2.4515,-2.4513,-2.4547,-2.458,-2.4547,-2.4497,-2.4479,-2.4479,-2.4564,-2.4676,-2.4832,-2.4977,-2.507,-2.5144,-2.5184,-2.5239,-2.5271,-2.5283,-2.5303,-2.5303,-2.5313,-2.5313,-2.5313,-2.5313,-3.1111,-3.1681,-3.1698,-3.1754,-3.1866,-3.1905,-3.1939,-3.1974,-3.2004,-3.1733,-3.1429,-3.1268,-3.1336,-3.1849,-3.1764,-3.127,-3.0333,-2.989,-2.9685,-2.9464,-2.9498,-2.9413,-2.9124,-2.8699,-2.9351,-2.9447,-2.9527,-3.0158,-2.9651,-2.9728,-2.9969,-2.974,-2.8549,-2.8209,-2.8044,-2.7673,-2.7321,-2.7383,-2.7405,-2.7518,-2.8154,-2.8466,-2.8938,-2.8975,-2.8975,-2.8975,-2.8975,-2.8975,-2.8975,-2.8975,-2.8975,-2.8975,-2.8975,-2.8975,-2.8975,-2.8975,-2.8975,-2.8975,-2.8975,-2.8975,-2.8975,-2.8975,-2.8975,-2.8975,-2.8957,-2.8906,-2.8888,-2.8833,-2.8833,-2.8796,-2.8686,-2.8172,-2.7714,-2.72,-2.6778,-2.5825,-2.4705,-2.443,-2.4302,-2.4247,-2.4266,-2.4266,-2.4284,-2.4321,-2.4339,-2.4339,-2.4375,-2.4412,-2.4411,-2.4481,-2.4549,-2.4564,-2.458,-2.4631,-2.4666,-2.458,-2.4547,-2.4513,-2.453,-2.4613,-2.4707,-2.4813,-2.4945,-2.5082,-2.5168,-2.5206,-2.5231,-2.5273,-2.5283,-2.5303,-2.5303,-2.5313,-2.5313,-2.5313,-2.5313]}]]